[[{"header":{"parameterUnit":"m.s-1","parameterCategory":1,"la1":30.6,"la2":28.766,"lo1":-90.7593,"lo2":-88.6598,"dy":0.0162,"dx":0.0183,"nx":116,"ny":114,"refTime":"2024-03-02T18:00:00:Z","depth":0,"parameterNumber":2,"parameterNumberName":"U-component_of_WINDS"},"data":[0.0,0.0,0.0,0.0,0.0,0.0,0.0,0.0,0.0,0.0,0.0,0.0,0.0,0.0,0.0,0.0,0.0,0.0,0.0,0.0,0.0,0.0,0.0,0.0,0.0,0.0,0.0,0.0,0.0,0.0,0.0,0.0,0.0,0.0,0.0,0.0,0.0,0.0,0.0,0.0,0.0,0.0,0.0,0.0,0.0,0.0,0.0,0.0,0.0,0.0,0.0,0.0,0.0,0.0,0.0,0.0,0.0,0.0,0.0,0.0,0.0,0.0,0.0,0.0,0.0,0.0,0.0,0.0,0.0,0.0,0.0,0.0,0.0,0.0,0.0,0.0,0.0,0.0,0.0,0.0,0.0,0.0,0.0,0.0,0.0,0.0,0.0,0.0,0.0,0.0,0.0,0.0,0.0,0.0,0.0,0.0,0.0,0.0,0.0,0.0,0.0,0.0,0.0,0.0,0.0,0.0,0.0,0.0,0.0,0.0,0.0,0.0,0.0,0.0,0.0,0.0,0.0,0.0,0.0,0.0,0.0,0.0,0.0,0.0,0.0,0.0,0.0,0.0,0.0,0.0,0.0,0.0,0.0,0.0,0.0,0.0,0.0,0.0,0.0,0.0,0.0,0.0,0.0,0.0,0.0,0.0,0.0,0.0,0.0,0.0,0.0,0.0,0.0,0.0,0.0,0.0,0.0,0.0,0.0,0.0,0.0,0.0,0.0,0.0,0.0,0.0,0.0,0.0,0.0,0.0,0.0,0.0,0.0,0.0,0.0,0.0,0.0,0.0,0.0,0.0,0.0,0.0,0.0,0.0,0.0,0.0,0.0,0.0,0.0,0.0,0.0,0.0,0.0,0.0,0.0,0.0,0.0,0.0,0.0,0.0,0.0,0.0,0.0,0.0,0.0,0.0,0.0,0.0,0.0,0.0,0.0,0.0,0.0,0.0,0.0,0.0,0.0,0.0,0.0,0.0,0.0,0.0,0.0,0.0,0.0,0.0,0.0,0.0,0.0,0.0,0.0,0.0,0.0,0.0,0.0,0.0,0.0,0.0,0.0,0.0,0.0,0.0,0.0,0.0,0.0,0.0,0.0,0.0,0.0,0.0,0.0,0.0,0.0,0.0,0.0,0.0,0.0,0.0,0.0,0.0,0.0,0.0,0.0,0.0,0.0,0.0,0.0,0.0,0.0,0.0,0.0,0.0,0.0,0.0,0.0,0.0,0.0,0.0,0.0,0.0,0.0,0.0,0.0,0.0,0.0,0.0,0.0,0.0,0.0,0.0,0.0,0.0,0.0,0.0,0.0,0.0,0.0,0.0,0.0,0.0,0.0,0.0,0.0,0.0,0.0,0.0,0.0,0.0,0.0,0.0,0.0,0.0,0.0,0.0,0.0,0.0,0.0,0.0,0.0,0.0,0.0,0.0,0.0,0.0,0.0,0.0,0.0,0.0,0.0,0.0,0.0,0.0,0.0,0.0,0.0,0.0,0.0,0.0,0.0,0.0,0.0,0.0,0.0,0.0,0.0,0.0,0.0,0.0,0.0,0.0,0.0,0.0,0.0,0.0,0.0,0.0,0.0,0.0,0.0,0.0,0.0,0.0,0.0,0.0,0.0,0.0,0.0,0.0,0.0,0.0,0.0,0.0,0.0,0.0,0.0,0.0,0.0,0.0,0.0,0.0,0.0,0.0,0.0,0.0,0.0,0.0,0.0,0.0,0.0,0.0,0.0,0.0,0.0,0.0,0.0,0.0,0.0,0.0,0.0,0.0,0.0,0.0,0.0,0.0,0.0,0.0,0.0,0.0,0.0,0.0,0.0,0.0,0.0,0.0,0.0,0.0,0.0,0.0,0.0,0.0,0.0,0.0,0.0,0.0,0.0,0.0,0.0,0.0,0.0,0.0,0.0,0.0,0.0,0.0,0.0,0.0,0.0,0.0,0.0,0.0,0.0,0.0,0.0,0.0,0.0,0.0,0.0,0.0,0.0,0.0,0.0,0.0,0.0,0.0,0.0,0.0,0.0,0.0,0.0,0.0,0.0,0.0,0.0,0.0,0.0,0.0,0.0,0.0,0.0,0.0,0.0,0.0,0.0,0.0,0.0,0.0,0.0,0.0,0.0,0.0,0.0,0.0,0.0,0.0,0.0,0.0,0.0,0.0,0.0,0.0,0.0,0.0,0.0,0.0,0.0,0.0,0.0,0.0,0.0,0.0,0.0,0.0,0.0,0.0,0.0,0.0,0.0,0.0,0.0,0.0,0.0,0.0,0.0,0.0,0.0,0.0,0.0,0.0,0.0,0.0,0.0,0.0,0.0,0.0,0.0,0.0,0.0,0.0,0.0,0.0,0.0,0.0,0.0,0.0,0.0,0.0,0.0,0.0,0.0,0.0,0.0,0.0,0.0,0.0,0.0,0.0,0.0,0.0,0.0,0.0,0.0,0.0,0.0,0.0,0.0,0.0,0.0,0.0,0.0,0.0,0.0,0.0,0.0,0.0,0.0,0.0,0.0,0.0,0.0,0.0,0.0,0.0,0.0,0.0,0.0,0.0,0.0,0.0,0.0,0.0,0.0,0.0,0.0,0.0,0.0,0.0,0.0,0.0,0.0,0.0,0.0,0.0,0.0,0.0,0.0,0.0,0.0,0.0,0.0,0.0,0.0,0.0,0.0,0.0,0.0,0.0,0.0,0.0,0.0,0.0,0.0,0.0,0.0,0.0,0.0,0.0,0.0,0.0,0.0,0.0,0.0,0.0,0.0,0.0,0.0,0.0,0.0,0.0,0.0,0.0,0.0,0.0,0.0,0.0,0.0,0.0,0.0,0.0,0.0,0.0,0.0,0.0,0.0,0.0,0.0,0.0,0.0,0.0,0.0,0.0,0.0,0.0,0.0,0.0,0.0,0.0,0.0,0.0,0.0,0.0,0.0,0.0,0.0,0.0,0.0,0.0,0.0,0.0,0.0,0.0,0.0,0.0,0.0,0.0,0.0,0.0,0.0,0.0,0.0,0.0,0.0,0.0,0.0,0.0,0.0,0.0,0.0,0.0,0.0,0.0,0.0,0.0,0.0,0.0,0.0,0.0,0.0,0.0,0.0,0.0,0.0,0.0,0.0,0.0,0.0,0.0,0.0,0.0,0.0,0.0,0.0,0.0,0.0,0.0,0.0,0.0,0.0,0.0,0.0,0.0,0.0,0.0,0.0,0.0,0.0,0.0,0.0,0.0,0.0,0.0,0.0,0.0,0.0,0.0,0.0,0.0,0.0,0.0,0.0,0.0,0.0,0.0,0.0,0.0,0.0,0.0,0.0,0.0,0.0,0.0,0.0,0.0,0.0,0.0,0.0,0.0,0.0,0.0,0.0,0.0,0.0,0.0,0.0,0.0,0.0,0.0,0.0,0.0,0.0,0.0,0.0,0.0,0.0,0.0,0.0,0.0,0.0,0.0,0.0,0.0,0.0,0.0,0.0,0.0,0.0,0.0,0.0,0.0,0.0,0.0,0.0,0.0,0.0,0.0,0.0,0.0,0.0,0.0,0.0,0.0,0.0,0.0,0.0,0.0,0.0,0.0,0.0,0.0,0.0,0.0,0.0,0.0,0.0,0.0,0.0,0.0,0.0,0.0,0.0,0.0,0.0,0.0,0.0,0.0,0.0,0.0,0.0,0.0,0.0,0.0,0.0,0.0,0.0,0.0,0.0,0.0,0.0,0.0,0.0,0.0,0.0,0.0,0.0,0.0,0.0,0.0,0.0,0.0,0.0,0.0,0.0,0.0,0.0,0.0,0.0,0.0,0.0,0.0,0.0,0.0,0.0,0.0,0.0,0.0,0.0,0.0,0.0,0.0,0.0,0.0,0.0,0.0,0.0,0.0,0.0,0.0,0.0,0.0,0.0,0.0,0.0,0.0,0.0,0.0,0.0,0.0,0.0,0.0,0.0,0.0,0.0,0.0,0.0,0.0,0.0,0.0,0.0,0.0,0.0,0.0,0.0,0.0,0.0,0.0,0.0,0.0,0.0,0.0,0.0,0.0,0.0,0.0,0.0,0.0,0.0,0.0,0.0,0.0,0.0,0.0,0.0,0.0,0.0,0.0,0.0,0.0,0.0,0.0,0.0,0.0,0.0,0.0,0.0,0.0,0.0,0.0,0.0,0.0,0.0,0.0,0.0,0.0,0.0,0.0,0.0,0.0,0.0,0.0,0.0,0.0,0.0,0.0,0.0,0.0,0.0,0.0,0.0,0.0,0.0,0.0,0.0,0.0,0.0,0.0,0.0,0.0,0.0,0.0,0.0,0.0,0.0,0.0,0.0,0.0,0.0,0.0,0.0,0.0,0.0,0.0,0.0,0.0,0.0,0.0,0.0,0.0,0.0,0.0,0.0,0.0,0.0,0.0,0.0,0.0,0.0,0.0,0.0,0.0,0.0,0.0,0.0,0.0,0.0,0.0,0.0,0.0,0.0,0.0,0.0,0.0,0.0,0.0,0.0,0.0,0.0,0.0,0.0,0.0,0.0,0.0,0.0,0.0,0.0,0.0,0.0,0.0,0.0,0.0,0.0,0.0,0.0,0.0,0.0,0.0,0.0,0.0,0.0,0.0,0.0,0.0,0.0,0.0,0.0,0.0,0.0,0.0,0.0,0.0,0.0,0.0,0.0,0.0,0.0,0.0,0.0,0.0,0.0,0.0,0.0,0.0,0.0,0.0,0.0,0.0,0.0,0.0,0.0,0.0,0.0,0.0,0.0,0.0,0.0,0.0,0.0,0.0,0.0,0.0,0.0,0.0,0.0,0.0,0.0,0.0,0.0,0.0,0.0,0.0,0.0,0.0,0.0,0.0,0.0,0.0,0.0,0.0,0.0,0.0,0.0,0.0,0.0,0.0,0.0,0.0,0.0,0.0,0.0,0.0,0.0,0.0,0.0,0.0,0.0,0.0,0.0,0.0,0.0,0.0,0.0,0.0,0.0,0.0,0.0,0.0,0.0,0.0,0.0,0.0,0.0,0.0,0.0,0.0,0.0,0.0,0.0,0.0,0.0,0.0,0.0,0.0,0.0,0.0,0.0,0.0,0.0,0.0,0.0,0.0,0.0,0.0,0.0,0.0,0.0,0.0,0.0,0.0,0.0,0.0,0.0,0.0,0.0,0.0,0.0,0.0,0.0,0.0,0.0,0.0,0.0,0.0,0.0,0.0,0.0,0.0,0.0,0.0,0.0,0.0,0.0,0.0,0.0,0.0,0.0,0.0,0.0,0.0,0.0,0.0,0.0,0.0,0.0,0.0,0.0,0.0,0.0,0.0,0.0,0.0,0.0,0.0,0.0,0.0,0.0,0.0,0.0,0.0,0.0,0.0,0.0,0.0,0.0,0.0,0.0,0.0,0.0,0.0,0.0,0.0,0.0,0.0,0.0,0.0,0.0,0.0,0.0,0.0,0.0,0.0,0.0,0.0,0.0,0.0,0.0,0.0,0.0,0.0,0.0,0.0,0.0,0.0,0.0,0.0,0.0,0.0,0.0,0.0,0.0,0.0,0.0,0.0,0.0,0.0,0.0,0.0,0.0,0.0,0.0,0.0,0.0,0.0,0.0,0.0,0.0,0.0,0.0,0.0,0.0,0.0,0.0,0.0,0.0,0.0,0.0,0.0,0.0,0.0,0.0,0.0,0.0,0.0,0.0,0.0,0.0,0.0,0.0,0.0,0.0,0.0,0.0,0.0,0.0,0.0,0.0,0.0,0.0,0.0,0.0,0.0,0.0,0.0,0.0,0.0,0.0,0.0,0.0,0.0,0.0,0.0,0.0,0.0,0.0,0.0,0.0,0.0,0.0,0.0,0.0,0.0,0.0,0.0,0.0,0.0,0.0,0.0,0.0,0.0,0.0,0.0,0.0,0.0,0.0,0.0,0.0,0.0,0.0,0.0,0.0,0.0,0.0,0.0,0.0,0.0,0.0,0.0,0.0,0.0,0.0,0.0,0.0,0.0,0.0,0.0,0.0,0.0,0.0,0.0,0.0,0.0,0.0,0.0,0.0,0.0,0.0,0.0,0.0,0.0,0.0,0.0,0.0,0.0,0.0,0.0,0.0,0.0,0.0,0.0,0.0,0.0,0.0,0.0,3.3176,0.0,0.0,0.0,0.0,0.0,0.0,0.0,0.0,0.0,0.0,0.0,0.0,0.0,0.0,0.0,0.0,0.0,0.0,0.0,0.0,0.0,0.0,0.0,0.0,0.0,0.0,0.0,0.0,0.0,0.0,0.0,0.0,0.0,0.0,0.0,3.0598,3.0598,3.0569,3.0559,3.139,3.1786,3.1757,3.1795,3.1842,3.1913,0.0,0.0,0.0,0.0,0.0,0.0,0.0,0.0,0.0,0.0,0.0,0.0,0.0,0.0,0.0,0.0,0.0,0.0,0.0,0.0,0.0,0.0,0.0,0.0,0.0,0.0,0.0,0.0,0.0,0.0,0.0,0.0,0.0,0.0,0.0,0.0,0.0,0.0,0.0,0.0,0.0,0.0,0.0,0.0,0.0,0.0,0.0,0.0,0.0,0.0,0.0,0.0,0.0,0.0,0.0,0.0,0.0,0.0,0.0,0.0,0.0,0.0,0.0,0.0,0.0,0.0,0.0,0.0,0.0,0.0,0.0,3.2935,0.0,0.0,0.0,0.0,0.0,0.0,0.0,0.0,0.0,0.0,0.0,0.0,0.0,0.0,0.0,0.0,0.0,0.0,0.0,0.0,0.0,0.0,0.0,2.9747,2.982,2.9988,3.0038,3.0128,0.0,0.0,0.0,0.0,0.0,3.0453,3.0385,3.0511,3.0637,3.0723,3.1581,3.2497,3.3439,3.3338,3.3422,3.3604,3.3437,0.0,0.0,0.0,0.0,0.0,0.0,0.0,0.0,0.0,0.0,0.0,0.0,0.0,0.0,0.0,0.0,0.0,0.0,0.0,0.0,0.0,0.0,0.0,0.0,0.0,0.0,0.0,0.0,0.0,0.0,0.0,0.0,0.0,0.0,0.0,0.0,0.0,0.0,0.0,0.0,0.0,0.0,0.0,0.0,0.0,0.0,0.0,0.0,0.0,0.0,0.0,0.0,0.0,0.0,0.0,0.0,0.0,0.0,0.0,0.0,0.0,0.0,0.0,3.0801,3.1316,3.2324,3.2928,3.3677,3.4469,3.3747,3.373,3.4083,3.2622,0.0,0.0,0.0,0.0,0.0,0.0,0.0,0.0,0.0,0.0,0.0,0.0,0.0,0.0,0.0,0.0,0.0,0.0,0.0,0.0,0.0,2.8881,2.9181,2.9931,3.0007,3.0079,3.0299,3.0292,3.0059,2.9487,3.0124,3.0182,2.9495,3.0163,3.0887,3.163,3.2436,3.3646,3.5168,3.4465,3.4552,3.5214,3.3841,3.2861,3.231,0.0,0.0,0.0,0.0,0.0,0.0,0.0,0.0,0.0,0.0,0.0,0.0,0.0,0.0,0.0,0.0,0.0,0.0,0.0,0.0,0.0,0.0,0.0,0.0,0.0,0.0,0.0,0.0,0.0,0.0,0.0,0.0,0.0,0.0,0.0,0.0,0.0,0.0,0.0,0.0,0.0,3.1816,3.1055,0.0,0.0,0.0,0.0,0.0,0.0,0.0,0.0,0.0,0.0,0.0,0.0,0.0,3.0607,3.0593,3.0543,3.0887,3.1642,3.1579,3.2382,3.3903,3.4007,3.4533,3.5328,3.5232,0.0,3.418,3.3882,0.0,0.0,0.0,0.0,0.0,0.0,0.0,0.0,0.0,0.0,0.0,0.0,0.0,0.0,0.0,0.0,0.0,0.0,0.0,0.0,0.0,2.8527,2.8883,2.9712,2.9841,2.9975,3.0128,3.0142,3.0054,2.9871,3.0198,3.024,2.9929,3.0254,3.1102,3.2413,3.3211,3.4257,3.5495,3.5136,3.5193,3.5562,3.4863,3.4412,3.417,3.4066,0.0,0.0,0.0,0.0,0.0,0.0,0.0,0.0,0.0,0.0,0.0,0.0,0.0,0.0,0.0,0.0,0.0,0.0,0.0,0.0,0.0,0.0,0.0,0.0,0.0,0.0,0.0,0.0,0.0,0.0,0.0,0.0,0.0,0.0,0.0,0.0,0.0,0.0,0.0,3.1669,3.1415,3.1519,3.1103,3.0801,0.0,0.0,0.0,0.0,0.0,0.0,0.0,0.0,0.0,3.0634,3.0571,3.0537,3.0482,3.0451,3.0642,3.1028,3.1472,3.2314,3.3487,3.3936,3.4647,3.5493,3.546,3.5215,3.4831,3.4309,3.3878,3.3494,0.0,0.0,0.0,0.0,3.2676,3.2718,0.0,0.0,0.0,0.0,0.0,0.0,0.0,0.0,0.0,0.0,0.0,0.0,2.7993,2.8256,2.8725,2.9588,2.9736,2.9859,2.9991,3.0007,2.9969,2.9941,3.0164,3.019,3.004,3.0475,3.1436,3.2897,3.3717,3.4581,3.5493,3.5493,3.5547,3.5604,3.5596,3.5544,3.5437,3.5073,3.4187,3.2945,0.0,0.0,0.0,0.0,0.0,0.0,0.0,0.0,0.0,0.0,0.0,0.0,0.0,0.0,0.0,0.0,0.0,0.0,0.0,0.0,0.0,0.0,0.0,0.0,0.0,0.0,0.0,0.0,0.0,0.0,0.0,0.0,0.0,0.0,0.0,0.0,0.0,3.1402,3.1289,3.1724,3.1191,3.0799,0.0,0.0,0.0,0.0,0.0,0.0,3.0784,3.0729,3.0651,3.0577,3.0511,3.0451,3.0402,3.041,3.0398,3.0398,3.1064,3.191,3.2929,3.3525,3.4408,3.546,3.5412,3.5379,3.5307,3.4678,3.4414,3.4342,3.3635,3.3341,3.3341,3.3341,3.3306,3.3353,0.0,0.0,0.0,0.0,0.0,0.0,0.0,0.0,0.0,0.0,0.0,2.593,2.7131,2.7883,2.8707,2.9696,2.9808,2.9859,2.9991,3.0007,2.9688,2.9008,2.9761,2.9858,2.9094,3.0701,3.1988,3.2897,3.3703,3.4581,3.5493,3.5493,3.5547,3.5591,3.5604,3.5212,3.4614,3.5418,3.433,3.2143,3.2947,0.0,0.0,0.0,0.0,0.0,0.0,0.0,0.0,0.0,0.0,0.0,0.0,0.0,0.0,0.0,0.0,0.0,0.0,0.0,0.0,0.0,0.0,0.0,0.0,0.0,0.0,0.0,0.0,0.0,0.0,0.0,0.0,0.0,0.0,0.0,0.0,0.0,0.0,3.0959,3.082,0.0,0.0,0.0,0.0,3.0899,3.0891,3.0836,3.0711,3.0704,3.0646,3.0501,3.043,3.0398,3.0398,3.0402,3.0398,3.0398,3.0436,3.1333,3.291,3.2929,3.3857,3.5412,3.5412,3.5364,3.5296,3.5258,3.5247,3.5235,3.513,3.5076,3.5076,3.5076,3.5062,3.5086,0.0,0.0,0.0,0.0,0.0,0.0,0.0,0.0,2.3899,2.4116,2.4712,2.5536,2.6632,2.7468,2.8363,2.9321,2.9608,2.9755,2.9805,2.9841,2.9775,2.9563,2.9893,2.9956,2.9702,3.0896,3.1971,3.2828,3.3681,3.4553,3.5446,3.5493,3.5547,3.5604,3.5601,3.5474,3.529,3.5607,3.4945,3.3641,3.3434,3.2127,0.0,0.0,0.0,0.0,0.0,0.0,0.0,0.0,0.0,0.0,0.0,0.0,0.0,0.0,0.0,0.0,0.0,0.0,0.0,0.0,0.0,0.0,0.0,0.0,0.0,0.0,0.0,0.0,0.0,0.0,0.0,0.0,0.0,0.0,0.0,0.0,0.0,3.0775,3.0774,0.0,3.0798,3.0804,3.0841,3.0899,3.0857,3.0792,3.0706,3.0651,3.0593,3.0501,3.0479,3.0439,3.0398,3.0406,3.0402,3.0398,3.0398,3.1282,3.2891,3.2864,3.3758,3.535,3.5339,3.5324,3.5289,3.5289,3.5308,3.5277,3.5226,3.5209,3.5209,3.5196,3.5181,3.5129,0.0,0.0,0.0,0.0,0.0,0.0,0.0,0.0,2.3925,2.4344,2.5005,2.5827,2.6896,2.773,2.8535,2.9297,2.9569,2.9682,2.9699,3.0035,3.0145,2.991,2.9991,3.0034,3.0109,3.0744,3.1628,3.28,3.3365,3.4271,3.5412,3.546,3.5547,3.5604,3.5601,3.5637,3.5708,3.5708,3.5446,3.4964,3.409,3.2721,3.121,0.0,0.0,0.0,0.0,0.0,0.0,0.0,0.0,0.0,0.0,0.0,0.0,0.0,0.0,0.0,0.0,0.0,0.0,0.0,0.0,0.0,0.0,0.0,0.0,0.0,0.0,0.0,0.0,0.0,0.0,0.0,0.0,0.0,0.0,0.0,3.0742,3.0717,3.0769,3.0802,3.0804,3.081,3.083,3.0858,3.0835,3.0778,3.0739,3.067,3.0598,3.054,3.052,3.0479,3.0428,3.0398,3.0394,3.0398,3.0698,3.1558,3.2916,3.3144,3.3978,3.5304,3.5293,3.5277,3.5277,3.5277,3.5296,3.5264,3.5209,3.5209,3.5193,3.5198,3.5147,3.5092,0.0,0.0,0.0,0.0,0.0,0.0,2.3746,2.3688,2.405,2.4878,2.5778,2.6735,2.7853,2.8627,2.9251,2.9645,2.9683,2.9701,2.9699,3.0544,3.0711,2.9914,3.0026,3.0102,3.0109,3.0171,3.1054,3.28,3.2804,3.3695,3.5398,3.546,3.5528,3.5591,3.5604,3.5643,3.5708,3.5708,3.5782,3.5827,3.4978,3.3659,3.2096,0.0,0.0,0.0,0.0,0.0,0.0,0.0,0.0,0.0,0.0,0.0,0.0,0.0,0.0,0.0,0.0,0.0,0.0,0.0,0.0,0.0,0.0,0.0,0.0,0.0,0.0,0.0,0.0,0.0,0.0,0.0,0.0,0.0,3.071,3.0698,3.0704,3.0697,3.0767,3.0799,3.0799,3.0799,3.0802,3.0796,3.0799,3.0797,3.0804,3.0739,3.0665,3.0591,3.054,3.051,3.0509,3.0439,3.0414,3.0448,3.1295,3.2116,3.2954,3.3738,3.4553,3.5312,3.5312,3.5261,3.5209,3.5277,3.5264,3.52,3.5212,3.5209,3.5193,3.5198,3.5147,3.5075,0.0,0.0,0.0,0.0,0.0,0.0,2.4355,2.4454,2.4613,2.4769,2.6009,2.7036,2.7387,2.8244,2.8934,2.9251,2.9531,2.9701,2.9701,2.9944,3.0034,2.991,2.994,3.0003,3.0094,3.0171,3.1026,3.2741,3.2766,3.3671,3.533,3.5398,3.5468,3.5528,3.5577,3.5635,3.5698,3.5757,3.5818,3.5885,3.5636,3.4897,3.3951,0.0,0.0,0.0,0.0,0.0,0.0,0.0,0.0,0.0,0.0,0.0,0.0,0.0,0.0,0.0,0.0,0.0,0.0,0.0,0.0,0.0,0.0,0.0,0.0,0.0,0.0,0.0,0.0,0.0,0.0,0.0,0.0,3.0637,3.0626,3.0634,3.0634,3.0626,3.0678,3.0736,3.0736,3.0764,3.0808,3.0802,3.0798,3.0784,3.0723,3.0765,3.0715,3.0593,3.0571,3.0549,3.051,3.0479,3.0766,3.1349,3.1595,3.243,3.3777,3.4007,3.4519,3.5226,3.5226,3.5209,3.5209,3.5231,3.5217,3.52,3.5198,3.5198,3.5198,3.5092,3.502,3.4945,0.0,0.0,0.0,0.0,0.0,0.0,2.4676,2.4706,2.4873,2.5207,2.6279,2.7243,2.777,2.836,2.8808,2.9082,2.9394,2.9569,2.9569,2.9608,2.9795,3.0189,2.9957,2.9971,3.0328,3.0497,3.135,3.2953,3.2987,3.3737,3.5187,3.5254,3.536,3.5496,3.5565,3.5643,3.5688,3.5728,3.5818,3.5905,3.5905,3.5378,3.4658,3.5152,3.4803,3.3983,3.3478,3.3851,3.4322,3.2473,0.0,0.0,0.0,0.0,0.0,0.0,0.0,0.0,0.0,0.0,0.0,0.0,0.0,0.0,0.0,0.0,0.0,0.0,0.0,0.0,0.0,0.0,0.0,0.0,3.1127,3.1019,3.0653,3.0593,3.0602,3.0602,3.0668,3.0697,3.0691,3.0736,3.0778,3.0799,3.0769,3.0758,3.0737,3.076,3.0729,3.0645,3.061,3.075,3.1042,3.1011,3.1414,3.2251,3.2589,3.3244,3.4164,3.4467,3.4845,3.5226,3.5209,3.5209,3.5209,3.5196,3.5181,0.0,0.0,0.0,0.0,0.0,3.4983,3.4908,0.0,0.0,0.0,0.0,0.0,0.0,2.4873,2.4775,2.5059,2.5846,2.6655,2.753,2.8547,2.8687,2.8797,2.906,2.9251,2.9392,2.9392,2.9433,2.977,3.0418,3.002,3.0077,3.0692,3.1016,3.1883,3.3285,3.331,3.3865,3.4962,3.5016,3.5203,3.5457,3.5534,3.5608,3.5678,3.5689,3.5782,3.5891,3.5891,3.5437,3.4754,3.4749,3.4261,3.3574,3.3578,3.4075,3.4602,3.374,0.0,0.0,0.0,0.0,0.0,0.0,0.0,0.0,0.0,0.0,0.0,0.0,0.0,0.0,0.0,0.0,0.0,0.0,0.0,0.0,0.0,0.0,0.0,0.0,3.2,3.1758,3.0975,3.0799,3.069,3.0613,3.0657,3.0688,3.0697,3.0697,3.0717,3.0784,3.0734,3.0721,3.0782,0.0,0.0,0.0,0.0,3.1243,3.1951,3.189,3.2293,3.3172,3.3853,3.425,3.4372,3.5,3.5304,3.5312,3.5226,3.5209,3.5209,3.5193,3.5143,3.5092,3.5092,3.5129,3.5147,3.5111,3.5001,3.4889,0.0,0.0,0.0,0.0,0.0,0.0,2.5403,2.5879,2.6189,2.5745,2.6997,2.8094,2.8414,2.8594,2.8767,2.8915,2.9119,2.923,2.923,2.9246,2.9342,2.9537,2.9999,3.0397,3.0691,3.1386,3.227,3.3285,3.3306,3.3802,3.4754,3.4774,3.4944,3.5254,3.533,3.5457,3.5623,3.5679,3.5747,3.5821,3.5818,3.5741,3.5645,3.5645,3.5509,3.5325,3.5313,3.5417,3.5444,3.4612,3.4452,3.4457,3.3578,3.3194,0.0,0.0,0.0,0.0,0.0,0.0,0.0,0.0,0.0,0.0,0.0,0.0,0.0,0.0,0.0,0.0,0.0,0.0,0.0,3.2868,3.2868,3.28,3.2574,3.1918,3.1274,3.0665,3.0615,3.0613,3.0621,3.0673,3.0715,3.0729,3.0704,3.0709,3.0711,3.1413,3.1796,3.1745,3.2425,3.2831,3.2927,3.285,3.3244,3.4055,0.0,0.0,3.5243,3.5288,3.5304,3.5312,3.5226,3.5209,3.5209,3.5215,3.5164,3.5092,3.5038,3.5001,3.4964,3.5001,3.4983,3.4908,0.0,0.0,0.0,0.0,0.0,0.0,2.6151,2.6443,2.6594,2.6242,2.7225,2.8007,2.8191,2.838,2.8543,2.8637,2.891,2.9052,2.9097,2.9071,2.9209,2.9531,3.0028,3.0664,3.1481,3.2071,3.273,3.3493,3.3542,3.3846,3.4445,3.4467,3.4735,3.5157,3.5219,3.5383,3.5612,3.5678,3.5747,3.5803,3.581,3.5826,3.585,3.585,3.5834,3.5799,3.5799,3.5799,3.5741,3.5332,3.5203,3.5113,3.4691,3.4241,3.3751,0.0,0.0,0.0,0.0,0.0,0.0,0.0,0.0,0.0,0.0,0.0,0.0,0.0,0.0,3.342,3.3779,0.0,3.3781,3.3719,3.3708,3.3542,3.3072,3.2629,3.2042,3.1244,3.082,3.0597,3.0597,3.1028,3.1305,3.1305,3.1693,3.1968,3.2002,3.2458,3.2695,3.2656,3.3064,3.3471,3.3856,3.3781,3.4176,3.5005,3.4897,3.5098,3.556,3.5407,3.535,3.5354,3.5289,3.5258,3.5245,3.5215,3.5183,3.5147,3.5075,3.5001,3.4945,3.5001,3.4945,3.4908,0.0,0.0,0.0,0.0,0.0,0.0,0.0,2.6848,2.6856,2.6853,2.7388,2.7864,2.8025,2.8219,2.8353,2.8458,2.8712,2.8887,2.8957,2.8887,2.9156,2.9779,3.0198,3.0972,3.2311,3.2776,3.3213,3.3726,3.378,3.3928,3.4147,3.4195,3.4532,3.5034,3.51,3.5321,3.5601,3.5657,3.5728,3.5785,3.5773,3.5782,3.5782,3.581,3.5791,3.5799,3.5799,3.5799,3.5799,3.5799,3.5799,3.5791,3.5812,3.5313,3.4547,3.3567,3.3297,0.0,0.0,0.0,0.0,0.0,0.0,0.0,0.0,0.0,3.3667,3.377,3.381,3.3996,3.4613,3.4681,3.4632,3.4569,3.4558,3.4303,3.3581,3.335,3.2983,3.227,3.1534,3.1062,3.1072,3.1718,3.2133,3.2133,3.2798,3.3223,3.3292,3.3464,3.3553,3.3571,3.3721,3.4127,3.4764,3.4709,3.502,3.5706,3.5589,3.5553,3.5591,3.5468,3.5412,3.5398,3.533,3.5304,3.5296,3.5231,3.5198,3.5181,3.5147,3.5075,3.502,3.5001,3.4945,3.4889,0.0,0.0,0.0,0.0,0.0,0.0,0.0,0.0,2.7624,2.7032,2.7656,2.8182,2.8246,2.8327,2.8458,2.8644,2.8761,2.881,2.881,2.8761,2.9057,2.9849,3.0592,3.1454,3.2472,3.3213,3.3661,3.3807,3.3807,3.3842,3.3947,3.4005,3.4325,3.4832,3.4888,3.5181,3.5604,3.5604,3.5648,3.5718,3.5708,3.5718,3.5718,3.5775,3.5801,3.5799,3.5799,3.5799,3.5799,3.5799,3.5799,3.5791,3.5812,3.5697,3.5272,3.3742,3.3301,3.2959,3.1331,3.1547,3.2413,3.3208,3.3388,3.3785,0.0,0.0,3.4675,3.5444,3.5606,3.5604,3.5572,3.5573,3.5533,3.5461,3.5449,3.5405,3.5232,3.4558,3.402,3.3923,3.3222,3.2748,3.2819,3.2908,3.2967,3.2977,3.3121,3.3225,3.3297,3.4033,3.448,3.4531,3.5236,3.5644,3.5736,3.5679,3.5668,3.5699,3.5688,3.5654,3.5591,3.5515,3.546,3.5398,3.533,3.5304,3.5312,3.5296,3.5261,3.5193,3.5198,3.5147,3.5075,3.502,3.4945,3.4908,0.0,0.0,0.0,0.0,0.0,0.0,0.0,0.0,0.0,2.7434,2.771,2.7922,2.7933,2.8136,2.8327,2.8569,2.8612,2.8637,2.8687,2.8662,2.8982,2.9805,3.0603,3.1456,3.2365,3.3214,3.3671,3.3753,3.378,3.3815,3.3895,3.3972,3.4227,3.4628,3.4832,3.51,3.5416,3.555,3.5648,3.5688,3.5699,3.5708,3.5708,3.5737,3.5747,3.5687,3.5271,3.5092,0.0,3.5092,3.5092,3.5181,3.5609,3.5406,3.4766,3.3586,3.3231,3.3218,3.3033,3.2878,3.3063,0.0,3.4806,3.5027,3.5694,3.5617,3.5509,3.584,3.5898,3.5866,3.5708,3.5699,3.5678,0.0,3.556,3.5534,3.5507,3.5199,3.4936,3.4903,3.4609,3.4032,3.313,3.3503,3.3807,3.3798,3.4323,3.468,3.4742,3.5148,3.5389,3.5444,3.5786,3.5943,3.5905,3.5872,3.5799,3.5708,3.5698,3.5665,3.5591,3.5522,3.5482,3.546,3.5398,3.5335,3.5304,3.5293,3.5261,3.5209,3.5212,3.5179,3.5147,3.5038,3.4945,3.4908,0.0,0.0,0.0,0.0,0.0,0.0,0.0,0.0,0.0,0.0,2.7789,2.7806,2.7806,2.7996,2.8219,2.8458,2.851,2.8562,2.8587,2.8587,2.8974,2.9831,3.043,3.1147,3.2001,3.2666,3.3013,3.304,3.312,3.3283,3.3563,3.364,3.3969,3.4517,3.4774,3.5032,3.5296,3.5514,3.5646,3.5697,3.5698,3.5708,3.5708,3.5689,3.5544,3.5262,3.4758,3.4574,3.4542,3.4315,3.4237,3.4328,3.4861,3.4648,3.4004,3.3128,3.2857,3.299,3.3611,3.3652,0.0,3.5036,3.5604,3.5833,3.5779,3.5852,3.5894,3.5823,3.5818,3.5818,3.5679,3.5688,3.5676,3.5616,3.5528,3.5489,3.5507,3.5493,3.5493,3.5412,3.5412,3.4946,3.3769,3.4256,3.465,3.4654,3.5298,3.5718,3.5803,3.5852,3.5916,3.6001,3.6004,3.5981,3.5928,3.5911,3.5852,3.5745,3.5737,3.5697,3.5608,3.554,3.5509,3.5493,3.5446,3.5398,3.5315,3.5304,3.5258,3.5226,3.5209,3.5196,3.52,3.5092,3.5001,3.4927,0.0,0.0,0.0,0.0,0.0,0.0,0.0,0.0,0.0,0.0,0.0,0.0,0.0,2.8164,2.8246,2.838,2.851,2.8587,2.8587,2.8587,2.9025,2.9958,3.0013,3.044,3.132,3.1433,3.1451,3.1375,3.1451,3.1912,3.2753,3.2828,3.3412,3.4517,3.4772,3.5053,3.5296,3.5522,3.5639,3.5704,3.5704,3.5704,3.5695,3.5697,3.5185,3.4439,3.4492,3.4505,3.4384,3.3608,3.3336,3.3342,3.3361,3.3347,3.3165,3.2291,3.1997,3.1951,3.197,0.0,3.4371,3.4429,3.5085,3.5713,3.5698,3.5718,3.5699,3.5615,3.5658,3.5689,3.5623,3.5657,3.5676,3.5616,3.5528,3.5489,3.5507,3.5493,3.5493,3.5412,3.5412,3.5393,0.0,3.5402,3.5489,3.5562,3.5581,3.5662,3.5792,3.5788,3.586,3.5992,3.5994,3.5994,3.6005,3.5934,3.5908,3.5898,3.5834,3.5756,3.5678,3.5565,3.5509,3.5493,3.5493,3.546,3.5379,3.533,3.5304,3.5277,3.5226,3.5196,3.52,3.52,3.5092,3.5001,0.0,0.0,0.0,0.0,0.0,0.0,0.0,0.0,0.0,0.0,0.0,0.0,0.0,0.0,0.0,0.0,2.8398,2.8484,2.8536,2.8587,2.8746,2.9119,2.9646,3.0097,3.0497,3.1052,3.1334,3.1378,3.1384,3.1581,3.1906,3.2533,3.3019,3.3464,3.4304,3.4774,3.4925,3.5258,3.5451,3.5509,3.5651,3.5704,3.5704,3.5695,3.5155,3.4323,0.0,3.3289,3.2817,3.2589,3.2503,3.2594,3.3087,3.2873,3.2375,3.2019,3.1881,3.2077,3.3198,0.0,3.4419,3.5037,3.5417,3.565,3.5679,3.5688,3.5688,3.5615,3.5113,3.4676,3.4552,3.4584,3.4623,3.4543,3.5089,3.5501,3.5507,3.5493,3.5493,3.5412,3.5412,0.0,0.0,0.0,0.0,3.5584,3.5589,3.5662,3.5794,3.58,3.5862,3.5996,3.5999,3.5994,3.6005,3.5934,3.5908,3.5898,3.5793,3.5708,3.5637,3.5534,3.5509,3.5493,3.5493,3.546,3.5398,3.5379,3.5354,3.5312,3.5277,3.5245,3.5196,3.5198,3.5164,3.5129,0.0,0.0,0.0,0.0,0.0,0.0,0.0,0.0,0.0,0.0,0.0,0.0,0.0,0.0,0.0,0.0,0.0,2.8458,2.851,2.8562,2.8637,2.8694,2.9228,2.9551,2.9631,3.0186,3.0491,3.0516,3.054,3.0735,3.1083,3.1666,3.2292,3.2937,3.3765,3.4391,3.4832,3.5146,3.5378,3.5502,3.5314,3.524,3.5201,3.4891,3.4235,0.0,3.2915,3.2198,3.1508,3.1571,3.1802,3.2141,3.2586,3.2582,3.233,3.1975,3.2232,3.2907,3.3994,3.4487,3.4815,3.5411,3.5558,3.5589,3.5623,3.5629,3.5599,3.5502,3.4788,3.4128,3.3993,3.4074,3.4087,3.3907,3.4715,3.5364,3.5383,3.5369,3.5369,3.5364,3.5364,3.5364,0.0,0.0,0.0,3.556,3.5584,3.5651,3.5755,3.5795,3.5848,3.5953,3.5953,3.5971,3.6005,3.5958,3.5914,3.5898,3.5793,3.5708,3.5637,3.5565,3.5522,3.5501,3.5507,3.5493,3.5427,3.5412,3.5383,3.5324,3.5308,3.5273,3.5242,3.5248,3.525,3.5215,0.0,0.0,0.0,0.0,0.0,0.0,0.0,0.0,0.0,0.0,0.0,0.0,0.0,0.0,0.0,0.0,0.0,0.0,2.8492,2.8562,2.8637,2.8694,2.8761,2.8785,2.881,2.8947,2.897,2.8905,2.8952,2.9425,3.0231,3.036,3.1256,3.2808,3.3106,3.3827,3.4883,3.5085,3.5328,3.548,3.4659,3.4331,3.4234,3.3421,3.257,3.1806,3.1872,3.1347,3.0618,3.0737,3.1345,3.2045,3.1977,3.2483,3.2928,3.2145,3.3001,3.4231,3.4333,3.4912,3.5493,3.5493,3.5493,3.5493,3.5493,3.5493,3.546,3.533,3.4616,3.3988,0.0,0.0,3.4035,3.3741,3.4514,3.5149,3.5226,3.5157,3.5171,0.0,0.0,0.0,0.0,0.0,0.0,3.5483,0.0,3.5628,3.5684,3.5752,3.5836,3.5908,3.5897,3.5932,3.6005,3.6005,3.5963,3.5892,3.5823,3.5765,3.5698,3.562,3.556,3.5502,3.5501,3.5507,3.5507,3.5427,3.5412,3.5398,3.533,3.5296,3.53,3.5308,3.5293,3.5277,0.0,0.0,0.0,0.0,0.0,0.0,0.0,0.0,0.0,0.0,0.0,0.0,0.0,0.0,0.0,0.0,0.0,0.0,2.8562,2.8587,2.8637,2.8694,2.8737,2.8767,2.8881,2.8905,2.8929,2.8975,2.8994,2.9131,2.9421,3.0142,3.0735,3.1213,3.2044,3.2618,3.2995,3.3261,3.3421,3.3532,3.3456,3.3441,3.3421,3.3179,3.259,3.1872,3.1889,3.1371,3.0773,3.1436,3.219,3.282,3.2803,3.2898,3.3095,3.3477,3.3877,3.4353,3.5014,3.5334,3.5493,3.5493,3.5493,3.5493,3.5493,3.5493,3.546,3.533,3.4052,3.3105,0.0,0.0,0.0,3.3558,3.4626,0.0,3.5432,3.5417,0.0,3.5379,0.0,3.5364,3.5364,3.5364,0.0,0.0,3.556,3.5608,3.5626,3.5685,3.5774,3.591,3.5893,3.5934,3.6005,3.5955,3.5946,3.5974,3.585,3.5794,3.5764,3.5658,3.5565,3.5502,3.5502,3.5489,3.5509,3.5488,3.546,3.546,3.5412,3.533,3.53,3.53,3.5289,3.5296,0.0,0.0,0.0,0.0,0.0,0.0,0.0,0.0,0.0,0.0,0.0,0.0,0.0,0.0,0.0,0.0,0.0,0.0,0.0,2.8587,2.8612,2.8644,2.8669,2.8743,2.8858,2.8881,2.8929,2.8994,2.8994,2.904,2.9108,2.968,3.0179,3.0642,3.1257,3.1883,3.2439,3.2611,3.2787,0.0,0.0,3.2541,3.2483,3.2145,3.1719,3.134,3.134,3.1523,3.1814,0.0,0.0,3.3572,3.3581,3.3824,3.4103,3.4186,0.0,3.4885,3.5372,3.5493,3.5493,3.5493,3.5493,3.5411,3.5026,3.4916,3.4773,3.4299,3.3016,0.0,0.0,0.0,0.0,0.0,0.0,0.0,3.5379,3.5335,3.5335,0.0,3.5412,0.0,3.5412,3.5412,3.5427,0.0,3.5566,3.5596,3.5604,3.566,3.5755,3.5853,3.5882,3.5937,3.6005,3.5927,3.5916,3.5968,3.5875,3.582,3.5791,3.5689,3.5612,3.5534,0.0,3.5528,3.5547,3.5541,3.5528,3.5515,3.5468,3.5422,3.5379,3.5345,3.5335,3.5339,0.0,0.0,0.0,0.0,0.0,0.0,0.0,0.0,0.0,0.0,0.0,0.0,0.0,0.0,0.0,0.0,0.0,0.0,0.0,0.0,2.8587,2.8587,2.8662,2.8737,2.8785,2.8858,2.8929,2.8994,2.8994,2.904,2.9112,2.9178,2.9678,3.0476,3.0601,3.1258,3.2263,3.234,3.2513,3.2662,3.1909,3.1602,3.1555,0.0,3.0588,3.0598,3.0598,3.1593,3.2913,3.2987,3.3607,3.4372,3.4385,3.4899,3.5353,3.4584,3.4911,3.5493,3.5493,3.5493,3.546,3.546,3.546,3.5262,3.4378,3.4139,3.3848,3.2972,0.0,3.1471,3.2298,3.2568,3.2877,3.3582,0.0,3.5212,3.5247,3.5184,3.5203,3.5364,3.5379,3.5398,3.5398,3.5412,3.5427,3.5507,3.5566,3.5596,3.5601,3.5658,3.5729,3.581,3.5876,3.5937,3.5997,3.5947,3.5899,3.5914,3.5897,3.5852,3.5807,3.5728,3.5657,3.5601,3.5596,0.0,3.5604,3.5604,3.556,3.5515,3.5496,3.5495,3.5493,3.5427,3.5412,3.5398,0.0,0.0,0.0,0.0,0.0,0.0,0.0,0.0,0.0,0.0,2.7233,2.7282,0.0,0.0,0.0,0.0,0.0,0.0,0.0,0.0,0.0,2.8587,2.8612,2.8662,2.8737,2.8785,2.8858,2.8929,2.8975,2.9044,2.9178,2.924,2.9483,2.9851,2.9942,3.0189,3.0537,3.06,3.0682,3.0765,3.0617,3.0617,3.0712,3.0577,0.0,0.0,3.053,3.1137,3.205,3.276,3.4012,3.5271,3.527,3.5372,3.5468,3.5334,3.5345,3.5412,3.5412,3.5379,3.533,3.533,3.533,3.5119,3.4309,3.4103,0.0,0.0,3.1905,3.1625,3.3015,3.2788,0.0,3.4488,0.0,0.0,0.0,0.0,3.5402,0.0,0.0,0.0,0.0,0.0,0.0,0.0,0.0,3.5608,3.5604,3.5646,3.576,3.5877,3.5957,3.5986,3.5995,3.5992,3.5973,3.5976,3.5868,3.5816,3.5788,3.5737,3.5654,3.5601,3.5601,0.0,3.5589,3.5604,3.5591,3.5591,3.5515,3.5495,3.5493,3.5493,3.5446,3.5398,0.0,0.0,0.0,0.0,0.0,0.0,0.0,2.7007,2.704,2.7201,2.725,2.7282,2.7201,2.7434,2.7587,0.0,0.0,0.0,0.0,0.0,0.0,0.0,2.8587,2.8637,2.8694,2.8761,2.8834,2.8905,0.0,2.9062,2.9134,2.9218,2.9349,2.955,2.9717,2.9872,2.9988,3.0138,3.0221,3.0247,3.0254,3.0336,3.0455,3.0455,0.0,0.0,0.0,3.102,3.1758,3.217,3.3429,3.4899,3.5353,3.5493,3.5493,3.5493,3.5493,3.546,3.546,3.5427,3.5398,3.5364,3.5364,3.5004,3.3724,0.0,0.0,0.0,3.0909,3.0873,3.1996,0.0,0.0,0.0,0.0,0.0,0.0,0.0,0.0,0.0,0.0,0.0,0.0,0.0,0.0,0.0,0.0,3.5628,3.5639,3.5715,3.5794,3.59,3.5937,3.595,3.5993,3.5976,3.5956,3.595,3.588,3.583,3.5799,3.5718,3.5687,3.5643,3.5643,0.0,3.5643,3.5651,3.5639,3.5596,3.5572,3.5534,3.5495,3.5507,3.5493,3.5446,0.0,0.0,0.0,0.0,0.0,0.0,0.0,2.7007,2.7089,2.725,2.7299,2.725,2.7152,2.7373,2.7544,0.0,0.0,0.0,0.0,0.0,0.0,0.0,0.0,0.0,0.0,0.0,0.0,0.0,2.897,0.0,0.0,0.0,0.0,0.0,2.9626,2.9771,2.9874,3.0034,3.0123,0.0,0.0,3.0247,0.0,0.0,0.0,0.0,0.0,3.0882,3.1457,3.1638,3.2569,3.3814,3.4666,3.507,3.5205,3.5191,3.5191,3.5249,3.5422,3.5446,3.5432,3.5383,3.5383,3.4908,3.3192,3.2732,0.0,0.0,2.9988,3.0122,3.0863,0.0,0.0,0.0,0.0,0.0,0.0,0.0,0.0,0.0,0.0,0.0,0.0,0.0,0.0,0.0,0.0,0.0,3.5706,3.5762,3.5825,3.5903,3.5893,3.5937,3.6009,3.5957,3.5917,3.591,3.5912,3.5858,3.5791,3.5727,3.5698,3.5704,3.5878,0.0,0.0,3.6168,3.6195,3.6161,3.6156,3.6119,3.6061,3.6073,3.6045,3.6031,0.0,0.0,0.0,0.0,0.0,0.0,0.0,2.7007,2.7089,2.725,2.7299,2.7299,2.7282,2.7313,2.733,0.0,0.0,0.0,0.0,0.0,0.0,0.0,0.0,0.0,0.0,0.0,0.0,0.0,0.0,0.0,0.0,0.0,0.0,0.0,0.0,0.0,2.9719,2.9808,0.0,0.0,0.0,0.0,0.0,0.0,0.0,0.0,0.0,0.0,3.0637,0.0,0.0,3.1988,3.2858,3.3673,3.4301,3.4251,0.0,0.0,3.5105,3.532,3.5327,3.5308,3.5312,3.4852,3.3104,0.0,0.0,3.046,2.9988,3.0137,3.0863,3.0904,3.1166,3.2127,3.2334,3.276,0.0,0.0,0.0,0.0,0.0,0.0,0.0,0.0,0.0,0.0,0.0,0.0,3.5699,3.5764,3.583,3.5893,3.5909,3.5936,3.5996,3.5995,3.5996,3.5989,3.5938,3.587,3.5791,3.5727,3.5698,3.5742,3.6477,0.0,0.0,3.7638,3.7962,3.7957,3.7957,3.7919,3.7866,3.7866,3.7819,3.7777,0.0,0.0,0.0,0.0,0.0,0.0,2.6909,2.6975,2.7089,2.725,2.7299,2.7299,2.7299,2.7299,2.7299,2.7299,0.0,0.0,0.0,0.0,0.0,0.0,0.0,0.0,0.0,0.0,0.0,2.8785,0.0,0.0,0.0,0.0,0.0,0.0,0.0,0.0,0.0,2.9682,0.0,0.0,0.0,0.0,0.0,0.0,0.0,0.0,0.0,0.0,0.0,0.0,0.0,0.0,3.1226,3.1699,0.0,0.0,3.3976,3.4246,3.4923,3.5203,3.5304,3.5293,3.5312,3.4837,3.3054,0.0,3.2156,3.0396,2.9924,2.9918,3.0223,3.0208,3.0264,3.0622,3.1129,0.0,0.0,0.0,0.0,0.0,0.0,0.0,0.0,0.0,0.0,0.0,0.0,0.0,3.5708,3.5757,3.5807,3.5851,3.5888,3.591,3.5948,3.5949,3.596,3.5996,3.5925,3.6138,3.6584,3.6502,3.6744,3.7212,3.7541,0.0,0.0,3.8063,3.8206,3.8194,3.8201,3.8177,3.817,3.8111,3.8084,3.805,0.0,0.0,0.0,0.0,0.0,2.664,2.6792,2.6909,2.7057,2.7201,2.7282,2.7299,2.7299,2.7299,2.7299,2.7299,2.7299,0.0,0.0,0.0,0.0,0.0,0.0,0.0,0.0,0.0,2.8718,2.8785,2.8881,0.0,0.0,0.0,0.0,0.0,0.0,0.0,0.0,0.0,0.0,0.0,0.0,0.0,0.0,0.0,0.0,0.0,0.0,0.0,0.0,0.0,0.0,0.0,3.0202,3.0349,3.108,0.0,3.338,3.3729,3.4641,3.498,3.5102,3.5174,3.5002,3.4413,0.0,0.0,3.18,3.0307,2.991,2.9825,2.9771,2.9719,2.9645,2.9588,3.0321,3.1111,3.1732,0.0,0.0,0.0,0.0,0.0,0.0,0.0,0.0,0.0,0.0,0.0,3.5708,3.576,3.5813,3.5833,3.5878,3.5909,3.5893,3.5903,3.6056,3.6385,3.6323,3.6719,3.7475,3.7411,3.7695,3.8241,3.8481,0.0,0.0,3.8856,3.8972,3.8972,3.8967,3.8942,3.891,3.8857,3.883,3.8801,0.0,0.0,0.0,0.0,0.0,0.0,2.6657,2.6825,2.6942,2.7103,2.7233,2.7299,2.7299,2.7299,2.7299,2.7299,2.7299,0.0,0.0,0.0,0.0,0.0,0.0,0.0,0.0,0.0,2.8718,2.8785,2.8881,2.8929,2.8994,2.9085,0.0,0.0,0.0,0.0,0.0,0.0,0.0,0.0,0.0,0.0,0.0,0.0,0.0,0.0,0.0,0.0,0.0,0.0,0.0,0.0,0.0,2.9959,3.0219,3.1751,3.2222,3.2581,3.418,3.4612,3.4655,3.4851,3.4262,3.3464,0.0,0.0,3.1058,3.0193,2.9943,2.9859,2.9735,2.9664,2.9588,2.9512,3.018,3.0744,3.0904,0.0,0.0,0.0,0.0,0.0,0.0,0.0,0.0,0.0,0.0,0.0,3.5708,3.5766,3.5834,3.5908,3.5898,3.5908,3.5893,3.5896,3.6378,3.7283,3.7225,3.7616,3.8371,3.8323,3.8297,0.0,0.0,0.0,0.0,4.0423,4.0771,4.0771,4.0771,4.0694,4.0568,4.0568,4.0526,4.0469,0.0,0.0,0.0,0.0,0.0,0.0,0.0,2.664,2.6825,2.699,2.712,2.7201,2.7282,2.7299,2.7299,2.7299,2.7299,0.0,0.0,0.0,0.0,0.0,0.0,0.0,0.0,2.8612,2.8662,2.8737,2.881,2.8858,2.8929,2.9017,2.9062,2.9089,0.0,0.0,0.0,0.0,0.0,0.0,0.0,0.0,0.0,0.0,0.0,0.0,0.0,0.0,0.0,0.0,0.0,0.0,0.0,0.0,0.0,3.0756,3.126,3.1727,3.2635,3.3072,3.3253,3.3308,3.3118,3.2718,3.1917,0.0,3.1032,3.0132,2.9876,2.9789,2.9717,2.9664,2.9775,3.0298,3.0553,3.0905,0.0,0.0,0.0,0.0,0.0,0.0,0.0,0.0,0.0,0.0,0.0,0.0,3.5708,3.5766,3.581,3.5838,3.5823,3.6117,3.6721,3.6771,3.7245,3.8112,3.8105,3.85,3.9295,3.9273,3.9528,0.0,0.0,0.0,0.0,4.0694,4.079,4.079,4.079,4.0759,4.0733,4.0635,4.0593,4.0564,0.0,0.0,0.0,0.0,0.0,0.0,0.0,2.6487,2.6657,2.6859,2.699,2.712,2.7201,2.7282,2.7282,2.7233,2.7282,0.0,0.0,0.0,0.0,0.0,0.0,0.0,2.8587,2.8587,2.8637,2.8694,2.8737,2.881,2.8905,2.8952,2.9017,2.9044,2.9044,2.913,0.0,0.0,0.0,0.0,0.0,0.0,2.9512,0.0,0.0,0.0,0.0,0.0,0.0,0.0,0.0,0.0,0.0,0.0,0.0,0.0,3.0319,3.0789,3.1706,3.2127,3.2333,3.2424,3.2179,3.182,0.0,0.0,3.0604,3.0007,2.9842,2.979,2.9718,2.9645,2.9756,3.0223,3.0777,0.0,0.0,0.0,0.0,0.0,0.0,0.0,0.0,0.0,0.0,0.0,0.0,0.0,3.5708,3.6076,3.6298,3.6284,3.6301,3.6557,3.7125,3.7506,3.8122,3.8982,3.8983,3.9429,4.0235,4.0193,4.0435,0.0,0.0,0.0,0.0,4.079,4.079,4.079,4.079,4.079,4.0746,4.0668,4.0621,4.0588,0.0,0.0,0.0,0.0,0.0,0.0,0.0,2.6349,2.6453,2.6657,2.6859,2.7007,2.7103,2.7201,2.7233,2.7135,0.0,0.0,0.0,0.0,0.0,0.0,0.0,0.0,2.8587,2.8587,2.8637,2.8694,2.8694,2.8767,2.8881,2.8905,2.8929,2.8994,2.8994,2.904,2.9108,2.924,2.9344,2.9386,2.9407,2.945,0.0,0.0,0.0,0.0,0.0,0.0,0.0,0.0,0.0,0.0,0.0,0.0,0.0,0.0,0.0,0.0,0.0,3.1582,3.1712,3.1958,3.1354,3.081,3.1111,0.0,0.0,2.9876,2.9842,2.9773,2.9701,2.9664,2.9607,2.9605,0.0,0.0,0.0,0.0,0.0,0.0,0.0,0.0,0.0,0.0,0.0,0.0,0.0,0.0,3.5796,3.6687,3.719,3.7197,3.7238,3.7319,3.7383,3.8195,3.9037,3.9894,3.9896,4.0312,4.1108,4.1031,4.0961,0.0,0.0,0.0,0.0,4.079,4.079,4.079,4.079,4.0759,4.07,4.07,4.0654,4.0607,0.0,0.0,0.0,0.0,0.0,0.0,0.0,0.0,0.0,0.0,2.6657,2.6859,2.7007,2.7087,2.7184,0.0,0.0,0.0,0.0,0.0,0.0,0.0,0.0,0.0,2.8587,2.8587,2.8612,2.8612,2.8669,2.8718,2.8743,2.8839,2.8905,2.8929,2.8994,2.904,2.9108,2.924,2.9302,2.9323,2.9386,2.9407,0.0,0.0,0.0,0.0,2.9607,2.9664,0.0,0.0,0.0,0.0,0.0,0.0,0.0,0.0,2.933,2.9506,2.9734,0.0,3.0208,3.0264,3.0169,3.0055,0.0,3.0009,0.0,0.0,0.0,0.0,0.0,0.0,0.0,0.0,0.0,0.0,0.0,0.0,0.0,0.0,0.0,0.0,0.0,0.0,0.0,0.0,0.0,3.6695,3.6686,3.7541,3.8016,3.8025,3.8708,3.9089,3.9123,3.9376,3.9931,4.0793,4.0791,4.0897,4.1094,4.1087,4.1007,0.0,0.0,0.0,4.079,4.079,4.079,4.079,4.079,4.079,4.0778,4.0733,4.0687,4.0668,0.0,0.0,0.0,0.0,0.0,0.0,0.0,0.0,0.0,0.0,0.0,2.664,2.6859,2.6957,0.0,0.0,0.0,0.0,0.0,0.0,0.0,0.0,0.0,2.8536,2.8562,2.8587,2.8587,2.8587,2.8637,2.8687,2.8694,2.8767,2.8839,2.8887,2.8952,2.904,2.9089,2.9175,2.9218,2.9262,2.9344,0.0,0.0,0.0,0.0,0.0,2.9511,2.9531,0.0,2.9434,2.9392,2.9328,0.0,0.0,0.0,0.0,2.92,2.9246,2.9138,2.9332,2.957,2.9608,2.9626,2.9682,2.979,2.9825,0.0,0.0,0.0,0.0,0.0,0.0,0.0,0.0,0.0,0.0,0.0,0.0,0.0,0.0,0.0,0.0,0.0,0.0,0.0,0.0,0.0,3.7555,3.7588,3.8433,3.8899,3.8937,3.9799,4.0077,3.9711,4.0156,4.0632,4.1096,4.1094,4.1107,4.1092,4.1094,4.1043,0.0,0.0,0.0,4.0798,4.0808,4.079,4.079,4.079,4.079,4.079,4.0759,4.0746,4.0746,0.0,0.0,0.0,0.0,0.0,0.0,0.0,0.0,0.0,0.0,0.0,0.0,0.0,0.0,0.0,0.0,0.0,0.0,0.0,0.0,0.0,0.0,2.8388,2.8466,2.8492,2.8562,2.8587,2.8587,2.8587,2.8637,2.8669,2.8694,2.8767,2.8905,2.908,2.915,2.9085,2.9108,2.9134,2.9178,2.9262,0.0,0.0,0.0,0.0,0.0,0.0,0.0,0.0,2.9312,2.9289,2.9262,2.9178,0.0,0.0,0.0,0.0,0.0,2.8952,2.9208,2.9481,2.9453,2.9415,2.9454,2.9626,2.9718,0.0,0.0,0.0,0.0,0.0,0.0,0.0,0.0,0.0,0.0,0.0,0.0,0.0,0.0,0.0,0.0,0.0,0.0,0.0,0.0,0.0,3.8415,3.8489,3.9314,3.98,3.9859,4.0529,4.0576,3.989,4.0688,4.1091,4.1096,4.1101,4.1099,4.111,4.111,4.1054,4.101,0.0,0.0,4.0809,4.0804,4.0803,4.079,4.079,4.079,4.079,4.079,4.079,4.079,0.0,0.0,0.0,0.0,0.0,0.0,0.0,0.0,0.0,0.0,0.0,0.0,0.0,0.0,0.0,0.0,0.0,0.0,0.0,0.0,0.0,2.8025,2.8219,2.8362,2.851,2.8492,2.8543,2.8587,2.8587,2.8612,2.8612,2.8669,2.8767,2.8923,2.969,2.9641,2.9017,2.9085,2.9108,2.9112,2.9197,0.0,0.0,0.0,0.0,0.0,0.0,0.0,0.0,2.9225,2.9222,2.9178,2.8998,0.0,0.0,0.0,0.0,0.0,2.8743,2.9308,2.9795,2.93,2.9119,2.9082,2.9126,2.9293,0.0,0.0,0.0,0.0,0.0,0.0,0.0,0.0,0.0,0.0,0.0,0.0,0.0,0.0,0.0,0.0,0.0,0.0,0.0,0.0,0.0,3.9294,3.9325,4.0145,4.0624,4.0624,4.0811,4.083,4.0722,4.0928,4.1031,4.1096,4.1101,4.1091,4.1094,4.1094,4.1054,4.0991,0.0,4.0916,4.0809,4.0807,4.08,4.079,4.079,4.079,4.079,4.079,4.079,4.079,0.0,0.0,0.0,0.0,0.0,0.0,0.0,0.0,0.0,0.0,0.0,0.0,0.0,0.0,0.0,0.0,0.0,0.0,0.0,0.0,2.7922,2.8014,2.8081,2.8219,2.8406,2.8466,2.8536,2.8562,2.8562,2.8562,2.8587,2.8687,2.8694,2.8712,2.9265,2.9253,2.8858,2.8994,2.9062,2.9044,0.0,0.0,0.0,0.0,0.0,0.0,0.0,0.0,0.0,0.0,2.9089,2.9021,2.8929,0.0,0.0,0.0,0.0,0.0,2.8594,2.884,2.9122,2.9272,2.9856,3.0406,3.0365,3.0587,3.0644,0.0,0.0,0.0,0.0,0.0,0.0,0.0,0.0,0.0,0.0,0.0,0.0,0.0,0.0,0.0,0.0,0.0,0.0,0.0,0.0,0.0,4.0196,4.0571,4.0818,4.0848,4.0888,4.0907,4.0907,4.0976,4.102,4.105,4.1074,4.1108,4.1108,4.1108,4.1084,4.1054,0.0,4.0964,4.0896,4.083,4.0796,4.08,4.0803,4.079,4.079,4.079,4.079,4.0848,0.0,0.0,0.0,0.0,0.0,0.0,0.0,0.0,0.0,0.0,0.0,0.0,0.0,0.0,0.0,0.0,0.0,0.0,0.0,2.76,2.7777,2.7882,2.794,2.8053,2.8246,2.8309,2.8344,2.8344,2.8344,2.8504,2.8825,2.9083,2.9039,2.8781,2.8941,2.8925,2.8694,2.8858,2.897,2.9017,0.0,0.0,0.0,0.0,0.0,0.0,0.0,0.0,0.0,0.0,0.0,0.0,0.0,0.0,0.0,2.8669,2.8612,2.8536,2.8466,2.8505,2.8738,2.9505,3.036,3.1071,3.121,3.1464,3.1506,0.0,0.0,0.0,0.0,0.0,0.0,0.0,0.0,0.0,0.0,0.0,0.0,0.0,0.0,0.0,0.0,0.0,0.0,0.0,0.0,0.0,4.0808,4.0804,4.0818,4.0877,4.0888,4.0917,4.0926,4.0968,4.1006,4.0994,4.1066,4.1104,4.1108,4.1108,4.1091,4.1099,4.1051,4.101,4.0996,4.0866,4.0798,4.0807,4.0796,4.079,4.079,4.079,4.0906,4.1158,0.0,0.0,0.0,0.0,0.0,0.0,0.0,0.0,0.0,0.0,0.0,0.0,0.0,0.0,0.0,0.0,0.0,0.0,0.0,2.7355,2.7526,2.7526,2.7701,2.7922,2.8126,2.795,2.7886,2.7954,2.7954,2.8475,2.9438,3.0258,3.026,2.9611,2.9512,2.9178,2.8694,2.8718,2.8834,2.8994,2.9017,0.0,0.0,0.0,0.0,0.0,0.0,0.0,0.0,0.0,0.0,0.0,0.0,0.0,2.8669,2.8543,2.8458,2.8406,2.8327,2.881,2.9476,3.01,2.9793,2.9561,3.0291,3.0628,0.0,3.1026,0.0,0.0,0.0,0.0,0.0,0.0,0.0,0.0,0.0,0.0,0.0,0.0,0.0,0.0,0.0,0.0,0.0,0.0,0.0,0.0,4.079,4.0792,4.0807,4.0807,4.0859,4.0926,4.0988,4.1006,4.1007,4.0994,4.1061,4.1109,4.1108,4.1108,4.1099,4.1091,4.1092,4.1052,4.0998,4.0913,4.0859,4.0807,4.0796,4.079,4.079,4.079,4.1274,4.1912,0.0,0.0,0.0,0.0,0.0,0.0,0.0,0.0,0.0,0.0,0.0,0.0,0.0,0.0,0.0,0.0,0.0,0.0,0.0,2.7404,2.7496,2.7496,2.7569,2.763,2.7736,2.776,2.78,2.7829,2.7869,2.8113,2.8518,2.8831,2.8785,2.8461,2.862,2.8596,2.8466,2.8619,2.881,2.8994,2.8994,2.8994,0.0,0.0,0.0,0.0,0.0,0.0,0.0,0.0,2.8881,2.8834,2.8718,2.8644,2.8587,2.8518,2.838,2.8264,2.8237,2.8678,2.9331,3.0066,3.0307,0.0,0.0,3.2013,3.202,3.1668,3.1819,0.0,0.0,0.0,0.0,0.0,0.0,0.0,0.0,0.0,0.0,0.0,0.0,0.0,0.0,0.0,0.0,0.0,0.0,0.0,4.0796,4.0804,4.0818,4.0867,4.0888,4.0917,4.0935,4.0976,4.1006,4.0994,4.1061,4.1101,4.1108,4.1108,4.1094,4.1101,4.1093,4.1093,4.1066,4.0998,4.0926,4.0857,4.0823,4.079,4.0848,4.1351,4.1738,4.2164,0.0,0.0,0.0,0.0,0.0,0.0,0.0,0.0,0.0,0.0,0.0,0.0,0.0,0.0,0.0,0.0,0.0,0.0,2.7201,2.7359,2.7452,2.7452,2.7452,2.7452,2.7452,2.7569,2.7752,2.7979,2.834,2.8411,2.8182,2.8182,2.8141,2.8082,2.8039,2.8146,2.8327,2.8543,2.881,2.8994,2.8994,2.8994,0.0,0.0,0.0,0.0,0.0,0.0,0.0,0.0,2.8834,2.8761,2.8644,2.8569,2.8492,2.8458,2.8559,2.8676,2.8649,2.8856,2.9289,3.0362,0.0,0.0,3.2274,3.2666,3.2634,3.2319,3.2288,0.0,0.0,0.0,0.0,0.0,0.0,0.0,0.0,0.0,0.0,0.0,0.0,0.0,0.0,0.0,0.0,0.0,0.0,0.0,0.0,4.0804,4.0818,4.0867,4.0888,4.0917,4.0926,4.0976,4.1013,4.1025,4.1074,4.1108,4.1108,4.1108,4.1108,4.1091,4.1107,4.1092,4.1093,4.1039,4.0942,4.0855,4.0826,4.0796,4.0887,4.1699,4.2164,4.2628,0.0,0.0,0.0,0.0,0.0,0.0,0.0,0.0,0.0,0.0,0.0,0.0,0.0,0.0,0.0,0.0,0.0,0.0,2.7103,2.7233,2.7299,2.7299,2.7299,2.7299,2.7299,2.7299,2.7661,2.8385,2.939,2.9484,2.8798,2.8798,2.8811,2.8838,2.8052,2.7933,2.8327,2.851,2.8737,2.8994,2.8994,2.8994,2.8994,0.0,0.0,0.0,0.0,0.0,0.0,0.0,2.8761,2.8669,2.8543,2.8492,2.8466,2.8353,2.8945,2.9674,2.962,2.941,2.9567,0.0,0.0,0.0,3.1725,3.2108,3.2301,3.2957,0.0,3.2164,0.0,0.0,0.0,0.0,0.0,0.0,0.0,0.0,0.0,0.0,0.0,0.0,0.0,0.0,0.0,0.0,0.0,0.0,0.0,4.0792,4.0807,4.0807,4.0859,4.0926,4.0996,4.0993,4.1025,4.1091,4.1101,4.1108,4.1108,4.1108,4.1108,4.1091,4.1107,4.1091,4.1093,4.1039,4.0926,4.0807,4.0807,4.0792,4.0906,4.1719,4.257,4.344,0.0,0.0,0.0,0.0,0.0,0.0,0.0,0.0,0.0,0.0,0.0,0.0,0.0,0.0,0.0,0.0,0.0,0.0,2.6891,2.707,2.7152,2.7152,2.7152,2.7152,2.7152,2.7717,2.7887,2.7627,2.793,2.7944,2.7719,2.7719,2.7844,2.7962,2.7777,2.7989,2.844,2.8458,2.8662,2.8994,2.89,2.8923,2.8994,0.0,0.0,0.0,0.0,0.0,0.0,0.0,0.0,0.0,2.8543,2.8484,2.8406,2.8264,2.837,2.8475,2.8436,2.9229,0.0,3.0339,0.0,0.0,0.0,3.1929,0.0,0.0,0.0,0.0,0.0,0.0,0.0,0.0,0.0,0.0,0.0,0.0,0.0,0.0,0.0,0.0,0.0,0.0,0.0,0.0,0.0,0.0,0.0,4.0718,4.0818,4.0867,4.0888,4.0917,4.0926,4.0979,4.1013,4.1025,4.1074,4.1108,4.1108,4.1108,4.1108,4.1111,4.1097,4.1099,4.1084,4.0974,4.0882,4.0807,4.08,4.1163,4.1757,4.2609,4.3479,4.433,0.0,0.0,0.0,0.0,0.0,0.0,0.0,0.0,0.0,0.0,2.5621,2.5881,0.0,0.0,0.0,0.0,0.0,0.0,0.0,2.7006,2.7103,2.7055,2.7103,2.7103,2.7055,2.755,2.7568,2.7186,2.7478,2.7478,2.7186,2.7233,2.731,2.7448,2.7642,2.7961,2.8317,2.838,2.8562,2.8834,2.881,2.8834,2.8947,0.0,0.0,0.0,0.0,0.0,0.0,0.0,0.0,0.0,2.8492,2.8406,2.8371,2.8703,2.8925,2.9155,2.9673,3.0313,0.0,3.1253,3.1854,3.2328,3.2281,0.0,0.0,0.0,0.0,0.0,0.0,0.0,0.0,0.0,0.0,0.0,0.0,0.0,0.0,0.0,0.0,0.0,0.0,0.0,0.0,0.0,0.0,0.0,0.0,4.0694,4.0818,4.0867,4.0888,4.0907,4.0907,4.0972,4.0994,4.0994,4.107,4.1108,4.1108,4.1108,4.1108,4.1108,4.1108,4.1082,4.1054,4.0977,4.0883,4.0807,4.0812,4.1299,4.2106,4.2976,4.3846,4.4717,0.0,0.0,2.3551,2.361,0.0,0.0,0.0,0.0,0.0,0.0,2.5492,2.5701,0.0,0.0,0.0,0.0,0.0,0.0,0.0,2.694,2.7006,2.6942,2.7006,2.7006,2.6942,2.6975,2.6975,2.6975,2.764,2.7673,2.7007,2.7135,2.7213,2.7244,2.7642,2.7886,2.8055,2.8282,2.8484,2.8637,2.8737,2.881,2.8834,2.8947,0.0,0.0,0.0,0.0,0.0,0.0,0.0,0.0,2.8406,2.8354,2.8469,2.9296,3.0042,3.0815,3.2025,0.0,0.0,0.0,0.0,0.0,0.0,0.0,0.0,0.0,0.0,0.0,0.0,0.0,0.0,0.0,0.0,0.0,0.0,0.0,0.0,0.0,0.0,0.0,0.0,0.0,0.0,0.0,0.0,0.0,0.0,4.0668,4.0776,4.0807,4.0859,4.0907,4.0907,4.0972,4.1007,4.0994,4.1066,4.1108,4.1108,4.1108,4.1108,4.1108,4.1108,4.1053,4.0994,4.0991,4.0916,4.0798,4.0807,4.1342,4.2202,4.3015,4.3904,4.4813,0.0,0.0,2.329,2.3494,0.0,0.0,0.0,0.0,0.0,0.0,0.0,0.0,0.0,0.0,0.0,0.0,0.0,0.0,0.0,2.6365,2.6469,2.6435,2.6521,2.6607,2.6674,2.6759,2.6775,2.6775,2.7095,2.7178,2.7007,2.7135,2.7307,2.7509,2.7701,2.7989,2.8327,2.838,2.8536,2.8761,2.8785,2.8858,2.897,2.8994,2.8952,0.0,0.0,0.0,0.0,0.0,0.0,0.0,2.8353,2.8657,2.8966,2.851,2.9296,3.0198,2.9738,3.0526,0.0,0.0,0.0,0.0,0.0,0.0,0.0,0.0,0.0,0.0,0.0,0.0,0.0,0.0,0.0,0.0,0.0,0.0,0.0,0.0,0.0,0.0,0.0,0.0,0.0,0.0,0.0,0.0,4.0251,4.0457,4.0642,4.0807,4.0859,4.0907,4.0907,4.096,4.1006,0.0,4.1067,4.1094,4.1108,4.1108,4.1108,4.1108,4.1108,4.1069,4.099,4.0945,4.0857,4.08,4.0804,4.1712,4.3034,4.3227,4.4253,4.5568,0.0,0.0,0.0,0.0,0.0,0.0,0.0,0.0,0.0,0.0,0.0,0.0,0.0,2.5675,0.0,0.0,2.601,2.6154,2.6099,2.6225,2.6314,2.6365,2.6349,2.64,2.6554,2.6606,2.6623,2.6657,2.6775,2.6876,2.7007,2.7135,2.7276,2.7417,2.763,2.7836,2.8063,2.8164,2.83,2.8458,2.851,2.8594,2.8761,2.8834,2.8858,2.8858,2.881,0.0,0.0,0.0,0.0,0.0,0.0,0.0,2.8696,2.8744,2.916,2.9704,3.0189,0.0,0.0,0.0,0.0,0.0,0.0,0.0,0.0,0.0,0.0,0.0,0.0,0.0,0.0,0.0,0.0,0.0,0.0,0.0,0.0,0.0,0.0,0.0,0.0,0.0,0.0,0.0,0.0,3.9958,4.0101,4.0361,4.0584,4.0742,4.0849,4.0907,4.0907,4.0971,4.0991,4.0994,4.1061,4.1109,4.1108,4.1108,4.1108,4.1108,4.1108,4.1068,4.0994,4.0952,4.09,4.0852,4.0798,4.1594,4.2763,4.3163,4.4117,4.5278,0.0,0.0,0.0,0.0,0.0,0.0,0.0,0.0,0.0,0.0,0.0,0.0,0.0,2.5486,2.5637,0.0,0.0,0.0,2.6099,2.617,2.6189,2.6243,2.626,2.6277,2.6415,2.645,2.6503,2.6572,2.6606,2.6742,2.6942,2.7103,2.7166,2.7166,2.7417,2.7569,2.7672,2.7836,2.7968,2.8071,2.8119,2.8309,2.8492,2.8619,2.8712,2.8761,2.8785,2.8712,2.8587,2.851,0.0,0.0,0.0,0.0,2.8355,2.9088,2.9218,2.9462,3.1172,0.0,3.1341,0.0,0.0,0.0,0.0,0.0,0.0,0.0,0.0,0.0,0.0,0.0,0.0,0.0,0.0,0.0,0.0,0.0,0.0,0.0,0.0,0.0,0.0,0.0,0.0,0.0,0.0,3.9895,3.9983,4.0274,4.0524,4.0694,4.0828,4.0907,4.0907,4.0971,4.0991,4.0994,4.1067,4.1094,4.1108,4.1108,4.1108,4.1108,4.1108,4.1066,4.1015,4.1006,4.0972,4.0903,4.0839,4.1332,4.2191,4.3015,4.386,4.4717,0.0,0.0,0.0,0.0,0.0,0.0,0.0,0.0,0.0,0.0,2.4751,2.4934,2.513,2.5301,2.5432,2.5454,2.56,2.5654,2.5691,0.0,0.0,2.5712,2.586,2.599,2.6063,2.6225,2.6382,2.652,2.6623,2.6691,2.6725,2.6925,2.704,2.704,2.7198,2.7324,2.7465,2.7582,2.773,2.7847,2.7971,2.8165,2.8414,2.8492,2.8587,2.8637,2.8687,2.8644,2.8587,2.8476,2.8424,0.0,0.0,0.0,2.8853,2.8344,2.9041,2.9951,0.0,0.0,3.2161,0.0,0.0,0.0,0.0,0.0,0.0,0.0,0.0,0.0,0.0,0.0,0.0,0.0,0.0,0.0,0.0,0.0,0.0,0.0,0.0,0.0,0.0,0.0,0.0,0.0,3.9596,3.9754,4.0002,4.0154,4.0389,4.0694,4.0828,4.0907,4.0907,4.0971,4.0991,4.0994,4.1066,4.1108,4.1108,4.1108,4.1108,4.1108,4.1108,4.1091,4.108,4.1015,4.0984,4.0976,4.0909,4.1373,4.2202,4.3083,4.3886,4.4717,0.0,0.0,0.0,0.0,0.0,0.0,0.0,0.0,0.0,0.0,0.0,2.495,2.5107,2.5185,2.5262,2.5317,2.5432,2.5524,2.5616,2.5616,2.56,2.5659,2.5754,2.5864,2.601,2.6063,2.6151,2.631,2.6312,2.6365,2.6504,2.6572,2.6725,2.6875,2.7038,2.7135,2.723,2.7417,2.7509,2.76,2.7672,2.8082,2.8563,2.8352,2.8523,2.8837,2.8558,2.8484,2.8458,2.8345,2.8318,2.8327,2.8182,0.0,0.0,0.0,2.8652,0.0,2.96,3.1025,0.0,0.0,0.0,0.0,0.0,0.0,0.0,0.0,0.0,0.0,0.0,0.0,0.0,0.0,0.0,0.0,0.0,0.0,0.0,0.0,0.0,0.0,0.0,0.0,0.0,0.0,3.9577,3.9703,3.9937,4.0119,4.0342,4.0629,4.0818,4.0907,4.0907,4.0926,4.0957,4.0994,4.107,4.1108,4.1108,4.1108,4.1108,4.1108,4.1108,4.1108,4.1091,4.1072,4.1054,4.1051,4.098,4.1175,4.1649,4.2965,4.3663,4.4111,0.0,0.0,0.0,0.0,0.0,0.0,0.0,0.0,0.0,0.0,0.0,2.4926,2.5068,0.0,0.0,0.0,2.5317,2.5432,2.5524,2.5578,2.5637,2.568,2.5701,2.5775,2.5937,2.5917,2.597,2.6132,2.6026,2.6046,2.6189,2.6225,2.6365,2.6657,2.6808,2.694,2.6989,2.7166,2.7261,2.7341,2.7549,2.806,2.8669,2.8516,2.8829,2.9213,2.8717,0.0,0.0,0.0,0.0,0.0,0.0,0.0,0.0,0.0,0.0,0.0,0.0,0.0,0.0,0.0,0.0,0.0,0.0,0.0,0.0,0.0,0.0,0.0,0.0,0.0,0.0,0.0,0.0,0.0,0.0,0.0,0.0,0.0,0.0,0.0,0.0,0.0,0.0,0.0,3.9489,3.9698,3.9889,4.0063,4.0312,4.0588,4.0784,4.0888,4.0907,4.0915,4.0964,4.1025,4.1074,4.1108,4.1108,4.1108,4.1108,4.1108,4.1108,4.1108,4.1091,4.1103,4.111,4.1093,4.103,4.1023,4.1206,4.2896,4.3471,4.3645,0.0,0.0,0.0,0.0,0.0,0.0,0.0,0.0,0.0,0.0,0.0,2.4661,2.4966,2.5068,2.5091,2.5107,2.524,2.5333,2.5432,2.5524,2.5616,2.5616,2.568,0.0,2.5738,2.5844,2.5897,2.5934,2.5897,2.5917,2.5917,2.599,2.6099,2.6239,2.6503,2.6657,2.6725,2.6725,2.6891,2.7154,2.7725,2.8234,2.8647,2.9294,0.0,0.0,0.0,0.0,0.0,0.0,0.0,0.0,0.0,0.0,2.7986,0.0,0.0,0.0,0.0,0.0,0.0,0.0,0.0,0.0,0.0,0.0,0.0,0.0,0.0,0.0,0.0,0.0,0.0,0.0,0.0,0.0,0.0,0.0,0.0,0.0,0.0,0.0,0.0,0.0,0.0,0.0,3.9126,3.9698,3.9889,4.004,4.0267,4.0588,4.0732,4.0846,4.0907,4.0953,4.1025,4.1091,4.1097,4.1108,4.1108,4.1108,4.1108,4.1108,4.1108,4.1108,4.1108,4.1091,4.1101,4.1092,4.1092,4.1066,4.1212,4.2961,4.3517,4.3645,0.0,0.0,0.0,0.0,0.0,0.0,0.0,0.0,0.0,0.0,0.0,0.0,0.0,2.5005,2.5045,2.5045,2.5123,2.524,2.5317,2.5371,2.541,2.547,2.5492,2.5551,2.5701,2.5696,2.5749,2.5791,2.6205,2.6189,2.5791,2.6281,2.6377,2.6079,2.6415,2.6554,2.6572,2.664,2.6691,2.686,2.7675,2.8339,2.8904,0.0,0.0,0.0,0.0,0.0,0.0,0.0,0.0,0.0,0.0,2.7986,2.7917,2.7754,2.8495,0.0,0.0,0.0,0.0,0.0,0.0,0.0,0.0,0.0,0.0,0.0,0.0,0.0,0.0,0.0,0.0,0.0,0.0,0.0,0.0,0.0,0.0,0.0,0.0,0.0,0.0,0.0,0.0,0.0,0.0,3.9048,3.9743,4.0024,4.0243,4.0477,4.073,4.0878,4.0907,4.0968,4.1013,4.105,4.1076,4.1097,4.1108,4.1108,4.1108,4.1108,4.1108,4.1108,4.1108,4.1108,4.1094,4.1099,4.1099,4.1094,4.1286,4.3021,4.3584,4.3714,0.0,0.0,0.0,0.0,0.0,2.237,2.2278,2.2799,2.3334,2.3523,0.0,0.0,0.0,0.0,2.4886,2.5005,2.5068,2.5146,2.524,2.5294,2.5333,2.5355,2.5355,2.5454,2.5589,2.5788,2.5826,2.568,2.6594,2.6691,2.6054,2.6558,2.6602,2.6278,2.6322,2.6364,2.6434,0.0,0.0,2.6724,0.0,0.0,2.8672,0.0,0.0,0.0,0.0,0.0,0.0,0.0,0.0,0.0,0.0,2.8035,2.7865,2.7979,2.8499,0.0,2.8603,0.0,0.0,0.0,0.0,0.0,0.0,0.0,0.0,0.0,0.0,0.0,0.0,0.0,0.0,0.0,0.0,0.0,0.0,0.0,0.0,0.0,0.0,0.0,0.0,0.0,0.0,0.0,0.0,0.0,3.9241,3.9566,3.997,4.0521,4.0776,4.0907,4.0907,4.0968,4.1006,4.0994,4.1072,4.1097,4.1108,4.1108,4.1108,4.1108,4.1108,4.1108,4.1108,4.1108,4.1108,4.1108,4.1108,4.111,4.1302,4.3058,4.3617,4.375,0.0,2.1888,2.1793,2.1793,2.1902,2.1996,2.1996,2.2495,2.2934,2.3083,0.0,0.0,0.0,0.0,0.0,2.4966,2.5068,2.5091,2.5091,2.5201,2.5294,2.5294,2.5294,2.5317,2.5394,2.6108,2.6179,2.5578,2.7025,2.7348,2.6668,2.6779,2.6802,2.6737,2.6229,2.6082,2.6295,0.0,2.6365,2.6793,0.0,2.8337,2.7975,0.0,0.0,0.0,2.9319,2.9595,0.0,0.0,0.0,0.0,0.0,2.8181,2.7829,2.8543,2.8167,0.0,0.0,0.0,0.0,0.0,0.0,0.0,0.0,0.0,0.0,0.0,0.0,0.0,0.0,0.0,0.0,0.0,0.0,0.0,0.0,0.0,0.0,0.0,0.0,0.0,0.0,0.0,0.0,0.0,3.661,3.7487,3.8411,3.8688,3.9432,4.075,4.0868,4.0907,4.0907,4.0953,4.1007,4.0994,4.107,4.1108,4.1108,4.1108,4.1108,4.1108,4.1108,4.1108,4.1108,4.1108,4.1108,4.1108,4.1108,4.111,4.1302,4.3058,4.3617,4.375,2.1568,2.1616,2.1616,2.152,2.1712,2.1793,2.1746,2.2123,2.254,0.0,0.0,0.0,2.4317,2.4508,2.463,2.471,2.4806,2.4886,2.4886,2.5005,2.5084,2.5146,2.5146,2.5185,2.5333,2.5525,2.5564,2.5371,2.6784,2.6864,2.5692,2.676,2.672,2.5799,2.5589,2.56,2.5824,2.599,0.0,2.6322,2.7852,2.8415,0.0,0.0,0.0,0.0,0.0,3.0311,0.0,0.0,2.9489,2.8847,0.0,0.0,2.7707,2.7818,2.7701,0.0,2.7604,0.0,0.0,0.0,0.0,0.0,2.8377,2.9385,0.0,0.0,0.0,0.0,0.0,0.0,0.0,0.0,0.0,0.0,0.0,0.0,0.0,0.0,0.0,0.0,0.0,0.0,0.0,0.0,3.6104,3.6596,3.745,3.8404,3.9538,4.0829,4.0898,4.0907,4.0907,4.0915,4.0957,4.0994,4.1011,4.1061,4.1108,4.1108,4.1108,4.1108,4.1108,4.1108,4.1108,4.1108,4.1108,4.1108,4.1108,4.111,4.1302,4.3058,4.365,4.3817,2.1229,2.1277,2.1326,2.1229,2.1375,2.1423,2.1375,2.1712,2.2077,0.0,0.0,0.0,2.4094,2.4426,2.4589,2.4589,2.4686,2.4726,2.4726,2.4846,2.4926,2.495,2.5029,2.5107,2.5201,2.5527,2.5543,2.5294,2.6702,2.6814,2.5726,2.6558,2.6535,2.5757,2.5445,2.5371,2.5502,0.0,0.0,0.0,2.7646,0.0,0.0,2.9755,3.0323,0.0,0.0,0.0,3.0386,3.0286,2.9666,0.0,0.0,0.0,0.0,0.0,0.0,0.0,0.0,0.0,0.0,0.0,0.0,0.0,2.8178,2.9034,3.0112,0.0,0.0,0.0,0.0,0.0,0.0,0.0,0.0,0.0,0.0,0.0,0.0,0.0,0.0,0.0,0.0,3.4561,3.4808,3.5315,3.5353,3.5781,3.6784,3.8263,3.9494,4.0374,4.0713,4.0907,4.0907,4.0926,4.096,4.1006,4.1039,4.1067,4.1097,4.1104,4.1108,4.1108,4.1108,4.1108,4.1108,4.1108,4.1108,4.1108,4.1108,4.111,4.1302,4.3058,4.3654,4.3858,0.0,2.0934,2.0934,2.0983,2.0997,2.0997,2.0997,2.1277,2.1616,0.0,2.2388,2.3024,2.3855,2.4261,2.4467,2.4549,2.4549,2.4517,2.444,2.4576,2.4672,2.4672,2.4776,2.4926,2.5068,2.5711,2.5783,2.5256,2.6606,2.6878,2.615,2.6214,2.6166,2.6046,2.54,2.5128,2.5182,0.0,0.0,2.5907,2.7509,2.78,0.0,0.0,2.9573,0.0,2.9492,3.0004,3.0634,3.0468,2.9856,0.0,0.0,0.0,0.0,0.0,2.7442,0.0,0.0,0.0,0.0,0.0,0.0,0.0,2.8851,2.9127,2.9692,0.0,0.0,0.0,0.0,0.0,0.0,0.0,0.0,0.0,0.0,0.0,0.0,0.0,0.0,0.0,3.4495,3.458,3.4602,3.4602,3.4626,3.5172,3.6427,3.8146,3.9277,3.9694,4.048,4.0907,4.0907,4.0971,4.0988,4.0996,4.1058,4.1086,4.1096,4.1097,4.1108,4.1108,4.1108,4.1108,4.1108,4.1108,4.1108,4.1108,4.1108,4.1108,4.1304,4.3058,4.3654,4.3845,2.056,2.0673,2.0772,2.0934,2.0997,2.0997,2.0997,2.1082,2.1229,2.1471,2.2109,2.2799,2.3494,2.3581,2.3711,2.4094,2.4109,2.3963,2.3573,2.374,2.3819,2.3819,2.3951,2.4296,2.4846,2.5108,2.5187,2.5045,2.5885,2.5932,2.5267,2.5821,2.5528,2.4525,2.4268,2.4242,2.435,0.0,0.0,2.6182,2.73,0.0,2.8666,2.9674,3.0061,3.0061,3.0228,3.0269,3.026,0.0,2.9694,2.9281,0.0,0.0,0.0,0.0,0.0,0.0,0.0,0.0,0.0,0.0,0.0,0.0,2.6851,2.6764,2.6957,0.0,0.0,0.0,0.0,0.0,0.0,0.0,0.0,0.0,0.0,0.0,0.0,0.0,0.0,0.0,3.4561,3.4583,3.4602,3.4602,3.4753,3.534,3.6427,3.7641,3.8733,3.9674,4.048,4.0907,4.0907,4.0917,4.0943,4.0996,4.1011,4.1046,4.1096,4.11,4.1094,4.1108,4.1108,4.1108,4.1108,4.1108,4.1108,4.1108,4.1108,4.1103,4.1308,4.3061,4.3668,4.3846,2.0321,2.0523,2.0686,2.0848,2.0848,2.0848,2.0848,2.0911,2.1059,2.1277,2.2002,2.2649,2.2934,2.3083,2.3216,2.3436,2.3566,2.3546,2.3481,2.3754,2.3955,2.3955,2.4091,2.4382,2.4782,2.4862,2.4926,2.5005,2.5313,2.5353,2.5005,2.4966,2.5005,2.5029,2.4223,2.4318,2.5029,0.0,2.5076,2.6211,2.7201,0.0,2.8822,2.968,3.0,3.0,3.0113,3.0087,2.9978,2.9856,2.96,0.0,0.0,2.8465,2.8215,0.0,2.7555,2.7674,0.0,0.0,0.0,2.7299,0.0,0.0,0.0,2.7247,2.7445,0.0,0.0,0.0,0.0,0.0,0.0,0.0,0.0,0.0,0.0,0.0,0.0,0.0,0.0,0.0,3.4583,3.4602,3.4626,3.4751,3.4908,3.5288,3.5968,3.7365,3.8429,3.9023,4.0247,4.0907,4.0907,4.0907,4.0917,4.0943,4.0988,4.1018,4.1052,4.1081,4.11,4.1094,4.1104,4.1108,4.1108,4.1108,4.1108,4.1108,4.1108,4.1101,4.1308,4.3063,4.3651,4.3856,2.0131,2.0398,2.0549,2.0599,2.0662,2.0662,2.0599,2.0725,2.0875,2.1082,2.1718,2.2221,2.2328,2.258,2.2836,2.2927,2.3165,2.3347,2.348,0.0,2.4135,2.4276,2.4343,2.4527,2.493,2.4986,2.5067,2.5155,2.5155,2.5092,2.5005,2.4342,2.4547,2.5377,2.4507,2.4665,0.0,0.0,0.0,2.6277,0.0,2.7939,2.8431,2.9253,2.9512,2.9572,2.9701,2.9766,2.9777,2.9735,0.0,2.9148,2.9026,2.8794,0.0,0.0,0.0,0.0,0.0,0.0,0.0,0.0,0.0,2.7454,0.0,0.0,0.0,0.0,0.0,0.0,0.0,0.0,0.0,0.0,0.0,0.0,0.0,0.0,0.0,0.0,0.0,0.0,0.0,3.4602,3.4689,3.487,3.5034,3.5228,3.5483,3.7235,3.8287,3.8402,4.0033,4.0907,4.0907,4.0907,4.0907,4.0907,4.0943,4.0988,4.0996,4.1058,4.1086,4.1096,4.1097,4.1104,4.1108,4.1108,4.1108,4.1108,4.1108,4.1101,4.1308,4.3063,4.3651,4.3856,1.999,2.0042,2.0144,2.0233,2.0398,2.0461,2.0283,2.0398,2.0549,2.0673,2.0858,2.1188,2.165,0.0,0.0,0.0,0.0,0.0,2.3007,0.0,2.3523,2.4166,2.3707,0.0,2.5381,2.5665,2.5774,2.5686,2.5686,2.5469,2.5005,2.4768,2.417,2.3291,2.4404,0.0,0.0,0.0,2.6167,0.0,2.7627,2.7723,0.0,2.8297,2.857,2.865,2.9291,2.9633,2.9756,0.0,2.9355,2.9383,0.0,2.9211,0.0,0.0,0.0,0.0,0.0,0.0,0.0,0.0,2.7299,0.0,0.0,0.0,0.0,0.0,0.0,0.0,0.0,0.0,0.0,0.0,0.0,0.0,0.0,0.0,0.0,0.0,0.0,0.0,0.0,3.4602,3.4689,3.487,3.5081,3.5278,3.5495,3.7327,3.8373,3.8402,4.0033,4.0907,4.0907,4.0907,4.0907,4.0907,4.0917,4.0935,4.0996,4.1003,4.1046,4.1096,4.1096,4.1094,4.1108,4.1108,4.1108,4.1108,4.1108,4.1101,4.1308,4.3063,4.3651,4.3856,1.9595,1.9978,2.0131,2.0182,2.0283,2.0296,2.0233,2.0283,2.0385,2.0573,2.066,2.0759,0.0,0.0,0.0,0.0,0.0,2.3381,0.0,0.0,2.3866,0.0,0.0,0.0,0.0,2.4529,2.4433,2.4538,2.4131,2.3842,2.3598,2.3537,2.3685,2.3959,2.4595,0.0,2.5664,0.0,0.0,0.0,0.0,0.0,0.0,2.8342,2.8815,2.8846,2.9148,2.9335,2.9377,0.0,2.9303,0.0,0.0,0.0,0.0,0.0,0.0,0.0,0.0,0.0,0.0,0.0,0.0,0.0,2.7353,0.0,2.6799,0.0,0.0,0.0,0.0,0.0,0.0,0.0,2.8353,0.0,0.0,0.0,0.0,0.0,0.0,0.0,0.0,0.0,0.0,0.0,3.5143,3.5315,3.5588,3.7385,3.8402,3.8402,4.0033,4.0907,4.0907,4.0907,4.0907,4.0907,4.0907,4.0917,4.0935,4.098,4.1011,4.1046,4.1081,4.11,4.109,4.1104,4.1108,4.1091,4.1101,4.1401,4.1992,4.321,4.395,4.4538,1.8856,1.9497,1.9902,2.0055,0.0,2.0131,2.0131,0.0,0.0,0.0,0.0,0.0,2.0422,2.1134,0.0,0.0,0.0,2.3447,0.0,0.0,2.4465,0.0,0.0,0.0,0.0,0.0,2.3952,2.4098,2.3624,2.3319,2.3148,2.311,2.3585,2.442,0.0,2.5613,2.6612,0.0,0.0,2.7149,2.7114,2.7237,2.7509,2.8446,2.8871,2.8998,2.9029,2.9075,2.9044,2.8976,2.9175,0.0,2.9201,0.0,0.0,0.0,0.0,0.0,2.7827,0.0,0.0,0.0,0.0,0.0,0.0,0.0,0.0,0.0,0.0,0.0,0.0,0.0,0.0,0.0,0.0,2.9461,0.0,0.0,0.0,0.0,0.0,0.0,0.0,0.0,0.0,0.0,0.0,3.5341,3.5708,3.7199,3.8149,3.8382,3.98,4.0674,4.0907,4.0907,4.0907,4.0907,4.0907,4.0907,4.0907,4.0943,4.098,4.0996,4.1052,4.1081,4.1096,4.1094,4.1104,4.1091,4.1091,4.1777,4.2812,4.3391,4.4148,4.5011,1.7678,1.8326,0.0,0.0,0.0,0.0,0.0,0.0,0.0,0.0,0.0,0.0,0.0,0.0,0.0,0.0,0.0,2.3856,2.3714,0.0,2.5203,0.0,0.0,2.5183,0.0,0.0,0.0,2.5361,2.5412,2.5124,2.4527,2.4461,2.4135,2.3694,2.5076,2.5728,2.5921,2.7096,2.7673,2.7901,2.8342,2.8622,2.8654,0.0,2.8294,2.8842,2.8873,0.0,0.0,2.861,2.8806,0.0,0.0,0.0,0.0,0.0,0.0,0.0,0.0,0.0,0.0,2.8252,0.0,0.0,0.0,0.0,2.7299,0.0,0.0,0.0,0.0,0.0,2.644,2.6584,2.7692,0.0,0.0,0.0,0.0,0.0,0.0,0.0,0.0,0.0,0.0,0.0,0.0,0.0,3.5785,3.6656,3.7528,3.8363,3.9276,4.0111,4.0888,4.0907,4.0907,4.0907,4.0907,4.0907,4.0907,4.0907,4.0935,4.0996,4.0996,4.1039,4.1091,4.1096,4.109,4.1094,4.1094,4.2142,4.3642,4.3619,4.4153,4.5014,1.6857,0.0,0.0,0.0,0.0,0.0,0.0,1.9483,0.0,0.0,0.0,0.0,0.0,0.0,2.2204,0.0,0.0,2.3774,2.4329,2.4585,0.0,0.0,0.0,2.512,0.0,0.0,0.0,0.0,0.0,2.3154,2.3095,2.3425,2.3517,2.3467,0.0,2.5808,0.0,0.0,0.0,0.0,0.0,2.8325,2.7906,0.0,0.0,2.8794,2.8826,2.8811,0.0,2.8731,2.8978,2.9303,2.9035,2.9134,2.9303,2.8773,2.8518,0.0,0.0,0.0,2.8581,2.834,0.0,0.0,0.0,0.0,0.0,0.0,0.0,0.0,0.0,0.0,2.7173,2.7303,2.8005,2.8603,0.0,0.0,0.0,0.0,0.0,0.0,0.0,0.0,0.0,0.0,0.0,0.0,0.0,3.6617,3.7508,3.8363,3.9256,4.0092,4.0888,4.0907,4.0907,4.0907,4.0907,4.0907,4.0907,4.0907,4.0917,4.0935,4.098,4.1006,4.105,4.1086,4.1109,4.1153,4.1738,4.2667,4.3698,4.3612,4.4514,4.5806,1.5938,0.0,0.0,0.0,0.0,0.0,0.0,0.0,0.0,0.0,2.0573,0.0,2.1443,0.0,2.238,0.0,2.3073,2.3628,2.4176,2.4473,0.0,2.4912,2.5171,0.0,0.0,0.0,0.0,0.0,0.0,2.2787,2.2985,2.3335,2.3534,2.3702,0.0,2.5586,2.6512,0.0,2.7736,0.0,0.0,2.823,0.0,0.0,2.8497,2.8326,0.0,2.8747,2.8747,2.8794,2.9014,2.9183,2.8889,2.8912,2.9,2.8634,2.8403,2.8375,2.8772,2.8984,0.0,2.8805,2.8951,0.0,2.8233,0.0,0.0,0.0,0.0,0.0,0.0,0.0,2.7674,2.807,2.8389,2.8652,0.0,2.9353,0.0,0.0,0.0,0.0,0.0,0.0,0.0,0.0,0.0,0.0,0.0,0.0,3.7178,3.8363,3.8946,3.9761,4.0888,4.0907,4.0907,4.0907,4.0907,4.0907,4.0907,4.0907,4.0907,4.0907,4.0963,4.0976,4.0993,4.105,4.1076,4.1182,4.205,4.2926,4.3737,4.3966,4.4968,4.6196,1.5051,1.5492,0.0,0.0,1.7762,0.0,0.0,0.0,1.9967,0.0,2.1137,2.1543,2.1568,2.2033,2.2347,2.2347,2.2968,0.0,2.3403,2.4234,0.0,0.0,2.4886,2.5019,2.5251,0.0,0.0,0.0,0.0,0.0,2.4181,2.4166,2.4208,2.4317,2.4302,0.0,2.6497,2.6409,2.7257,2.8573,2.8444,2.8381,2.835,2.8396,2.798,2.7488,2.8293,2.8573,2.8636,2.8747,2.8794,2.8794,2.8794,2.8794,2.8794,2.8873,2.8858,2.892,2.9409,2.9361,2.9206,2.9666,2.9666,0.0,0.0,0.0,2.9523,0.0,0.0,0.0,0.0,0.0,0.0,2.8828,2.8712,2.8748,2.9394,0.0,0.0,0.0,0.0,0.0,0.0,0.0,0.0,0.0,0.0,0.0,0.0,0.0,3.6595,3.8343,3.8402,3.9198,4.0888,4.0907,4.0907,4.0907,4.0907,4.0907,4.0907,4.0907,4.0907,4.0907,4.0907,4.0935,4.0996,4.0993,4.107,4.1257,4.2119,4.3027,4.3911,4.4674,4.5494,4.6196,1.5017,1.5786,1.6464,0.0,1.7533,1.8312,0.0,0.0,0.0,0.0,2.1599,2.2259,2.2673,2.2836,2.2865,2.2865,2.3062,0.0,0.0,0.0,0.0,2.4305,2.5094,2.5173,2.4353,2.4961,0.0,2.3987,0.0,0.0,2.4024,2.394,2.3982,2.4067,0.0,0.0,2.6304,2.638,2.7211,2.8444,2.8396,2.8104,0.0,0.0,2.798,2.7488,2.8213,2.8444,2.846,2.8493,2.8589,2.8636,2.8541,2.8652,2.8747,2.8589,2.8589,2.8716,2.9136,2.9278,2.9399,2.9676,2.9812,2.9785,0.0,0.0,0.0,0.0,0.0,0.0,0.0,0.0,0.0,0.0,2.8549,0.0,0.0,0.0,0.0,2.9683,0.0,0.0,0.0,0.0,0.0,0.0,0.0,0.0,0.0,0.0,0.0,3.8343,3.8402,3.9198,4.0888,4.0907,4.0907,4.0907,4.0907,4.0907,4.0907,4.0907,4.0907,4.0907,4.0907,4.0935,4.0996,4.1003,4.1422,4.2154,4.2971,4.4218,4.559,4.5793,4.6001,4.6196,1.4788,0.0,0.0,1.6537,0.0,0.0,1.8773,0.0,0.0,2.135,2.2114,0.0,2.2992,2.3078,2.3078,2.3078,2.3078,0.0,0.0,0.0,0.0,2.4008,2.465,2.4871,2.4517,2.505,0.0,2.4378,0.0,0.0,2.3925,2.3839,2.3882,2.3982,0.0,2.4704,0.0,2.6428,2.7211,2.7996,2.8288,0.0,0.0,2.8273,2.8165,2.7888,2.8273,2.8411,2.8411,2.8411,2.8444,2.8493,2.8396,2.8508,2.8604,2.8493,2.8493,2.8589,2.8826,2.912,2.9444,2.9515,3.0009,3.0434,3.0233,3.0347,3.0627,0.0,0.0,0.0,0.0,0.0,0.0,0.0,0.0,0.0,0.0,0.0,0.0,0.0,0.0,0.0,0.0,0.0,0.0,0.0,0.0,0.0,0.0,0.0,0.0,3.7735,3.8152,3.8996,4.0315,4.0714,4.0908,4.0908,4.0898,4.0907,4.0907,4.0907,4.0907,4.0907,4.0907,4.114,4.1535,4.1552,4.2103,4.3017,4.3869,4.5039,4.6202,4.6206,4.6196,4.6196,0.0,0.0,0.0,0.0,0.0,0.0,0.0,1.997,0.0,2.1913,0.0,2.2909,2.2909,2.3017,2.3078,2.3078,0.0,2.3198,2.339,2.3509,2.3688,2.3891,2.4067,2.4434,2.5133,2.5049,0.0,0.0,0.0,0.0,2.3782,2.3782,2.3839,2.394,0.0,0.0,0.0,2.6642,2.7333,2.758,2.8165,2.8411,2.8411,2.8411,2.8411,2.8411,2.8411,2.8411,2.8411,2.8411,2.8411,2.8411,2.8411,2.8411,2.8396,2.8541,2.8525,2.8493,2.8573,2.9044,2.9496,2.9496,3.0302,3.1123,3.1162,3.1504,3.18,3.18,3.1409,3.1255,0.0,0.0,0.0,0.0,0.0,0.0,0.0,0.0,0.0,0.0,0.0,0.0,0.0,0.0,0.0,0.0,0.0,0.0,0.0,0.0,0.0,3.6977,3.785,3.8713,3.9596,4.046,4.0897,4.0907,4.0908,4.0907,4.0907,4.0907,4.0966,4.1063,4.1063,4.1568,4.2374,4.243,4.2984,4.3851,4.4792,4.5586,4.6202,4.6195,4.6195,4.6196,0.0,0.0,0.0,0.0,0.0,2.0165,2.0667,2.1666,2.2489,2.2687,2.2907,2.3078,2.3078,2.3078,2.3078,2.3078,2.3078,0.0,0.0,0.0,0.0,2.4067,2.4112,2.439,2.4991,2.5425,2.5331,0.0,0.0,0.0,2.3653,2.3653,2.3653,0.0,0.0,0.0,2.6046,2.6841,0.0,2.8242,2.835,2.8411,2.8411,2.8411,2.8411,2.8411,2.8411,2.8411,2.8411,2.8411,2.8411,2.8411,2.8411,2.8411,2.8396,2.846,2.87,2.8904,2.8668,2.9257,2.9995,3.0123,3.0625,3.1201,3.1579,3.1746,3.18,3.18,3.1861,3.1725,3.122,0.0,0.0,0.0,0.0,0.0,0.0,0.0,0.0,0.0,0.0,0.0,0.0,0.0,0.0,0.0,0.0,0.0,0.0,0.0,0.0,0.0,3.7841,0.0,0.0,0.0,4.0848,4.0907,4.0907,4.0908,4.0907,4.0907,4.1296,4.1976,4.1976,4.2461,4.3277,4.3287,4.3828,4.4754,4.5636,4.6073,4.62,4.6206,4.6203,4.6196,0.0,0.0,0.0,0.0,0.0,0.0,0.0,2.2387,0.0,2.2909,2.2969,2.3017,2.3017,2.3078,2.3078,2.3078,2.3078,2.3198,2.345,2.3569,2.3688,2.3995,2.4067,0.0,2.5005,2.5536,2.5445,2.4679,0.0,0.0,2.3595,2.3566,0.0,2.361,0.0,2.4803,0.0,0.0,0.0,2.7919,2.8273,2.8411,2.8411,2.8411,2.8411,2.8411,2.8411,2.8411,2.8411,2.8411,2.8411,2.8411,2.8411,2.8411,2.8411,2.8411,2.8573,2.8732,2.8858,2.9332,2.9821,3.0208,3.0707,3.1162,3.1372,3.1634,3.18,3.18,3.1965,3.2004,3.1742,3.1323,0.0,0.0,0.0,0.0,0.0,0.0,0.0,0.0,0.0,0.0,0.0,0.0,0.0,0.0,0.0,0.0,0.0,0.0,3.5565,0.0,0.0,0.0,3.8864,0.0,4.0823,4.0865,4.0886,4.0888,4.0927,4.1364,4.1801,4.2228,4.2675,4.3374,4.421,4.4667,4.5112,4.5577,4.6019,4.6207,4.6208,4.6202,4.6201,4.6196,0.0,1.749,0.0,0.0,1.9923,0.0,2.178,2.2476,2.2884,2.2969,2.2969,2.2969,2.2969,2.3017,2.3078,2.3078,2.3078,2.3198,2.3463,2.3509,2.3688,2.3949,2.4067,2.439,2.5005,2.5425,2.5357,0.0,0.0,0.0,0.0,0.0,0.0,0.0,0.0,0.0,0.0,0.0,2.7363,2.7657,2.8196,2.8411,2.8411,2.8411,2.8411,2.8411,2.8411,2.8411,2.8411,2.8411,2.8411,2.8411,2.8411,2.8411,2.8411,2.8411,2.8493,2.8653,2.9104,2.9451,2.9848,3.0335,3.0868,3.1257,3.1257,3.1542,3.18,3.18,3.1965,3.2179,3.2405,3.2113,0.0,0.0,0.0,0.0,0.0,0.0,0.0,0.0,0.0,0.0,0.0,0.0,0.0,0.0,0.0,0.0,0.0,0.0,0.0,0.0,0.0,3.8143,3.8143,0.0,4.0788,4.08,4.0856,4.0974,4.1198,4.1888,4.2403,4.2792,4.3471,4.4268,4.5103,4.5794,4.6093,4.6138,4.615,4.6209,4.6211,4.6207,4.6199,4.6196,0.0,0.0,0.0,0.0,0.0,0.0,2.1093,2.1777,2.2433,2.3005,2.3078,2.3078,2.3078,2.3078,2.3078,2.3078,2.3078,2.3258,2.3569,2.3569,2.3747,2.4054,2.4112,2.439,2.5005,2.5061,2.4998,0.0,0.0,0.0,0.0,0.0,0.0,0.0,0.0,0.0,0.0,2.7131,2.7639,2.8319,2.8381,2.8411,2.8411,2.8411,2.8411,2.8411,2.8411,2.8411,2.8411,2.8411,2.8411,2.8411,2.8411,2.8411,2.8411,2.8411,2.87,2.909,2.9316,3.0005,3.0747,3.0965,3.1372,3.1746,3.1746,3.1763,3.18,3.18,3.1965,3.2214,3.2506,3.2535,3.2631,0.0,0.0,0.0,0.0,0.0,0.0,0.0,0.0,0.0,0.0,3.3481,0.0,0.0,0.0,0.0,0.0,0.0,0.0,3.5405,3.7055,3.7921,3.7921,3.9831,4.0796,4.08,4.0815,4.1255,4.2071,4.216,4.3063,4.4559,4.4637,4.5142,4.588,4.5988,4.6084,4.6196,4.6133,4.6173,4.6288,4.6228,4.6192,4.6201,0.0,0.0,0.0,0.0,0.0,0.0,0.0,2.2299,2.2811,2.3065,2.3078,2.3078,2.3078,2.3078,2.3078,2.3078,2.3078,2.3138,2.3318,2.3509,2.3688,2.3806,2.3995,2.4229,2.4447,2.4778,2.4818,0.0,0.0,0.0,0.0,0.0,0.0,0.0,0.0,2.6626,2.7208,2.7716,2.8102,2.8411,2.8411,2.8411,2.8411,2.8411,2.8411,2.8411,2.8411,2.8411,2.8411,2.8411,2.8411,2.8396,2.8493,2.8444,2.846,2.8604,2.8732,2.8967,2.9733,3.0192,3.0666,3.1334,3.1671,3.18,3.18,3.18,3.18,3.18,3.1965,3.2179,3.2439,3.2557,3.2687,0.0,0.0,0.0,0.0,0.0,0.0,0.0,0.0,0.0,0.0,0.0,0.0,0.0,0.0,0.0,0.0,0.0,0.0,3.5994,0.0,3.8157,3.8681,4.0088,4.0803,4.0815,4.1323,4.1784,4.2186,4.3227,4.4374,4.5511,4.5511,4.5705,4.5997,4.5997,4.6027,4.6093,4.6144,4.6162,4.6195,4.6249,4.6221,4.6206,1.8239,0.0,1.9014,0.0,2.046,2.1327,2.1992,2.2641,2.307,2.309,2.3276,2.3326,2.309,2.3138,2.3198,2.3198,2.3198,2.3258,2.333,2.3569,2.3688,2.3747,2.3995,0.0,2.4112,2.4505,2.452,2.4021,2.4274,0.0,0.0,0.0,0.0,0.0,2.6854,2.7284,2.7561,2.8148,2.8411,2.8411,2.8411,2.8411,2.8411,2.8411,2.8411,2.8411,2.8411,2.8411,2.8411,2.8444,2.8444,2.8493,2.8573,2.8541,2.8556,2.8747,2.8747,2.8858,2.9837,3.0244,3.0665,3.1674,3.2094,3.2286,3.2435,3.2493,3.2461,3.2291,3.2385,3.2458,3.2406,3.2473,3.2623,3.2852,0.0,0.0,0.0,0.0,0.0,0.0,0.0,3.3852,3.3297,0.0,0.0,0.0,0.0,0.0,0.0,0.0,0.0,0.0,0.0,0.0,3.9103,4.0174,4.0849,4.1158,4.1802,4.2361,4.2889,4.4408,4.5431,4.5997,4.5997,4.5997,4.5997,4.5997,4.6007,4.6037,4.6154,4.617,4.6147,4.6256,4.6268,4.6202,1.8596,1.9617,2.0451,2.015,2.0666,2.1302,2.199,2.2633,2.2992,2.308,2.375,2.3889,2.3201,2.3271,2.3403,2.3403,2.3509,2.37,2.3891,2.3891,2.3949,0.0,0.0,2.4112,2.4112,2.4112,2.4112,2.4112,0.0,0.0,2.4896,0.0,2.6086,2.7005,2.702,2.7496,2.8396,2.8411,2.8411,2.8411,2.8411,2.8411,2.8411,2.8411,2.8411,2.8411,2.8411,2.8411,2.8396,2.8525,2.8573,2.8573,2.8573,2.8684,2.881,2.8794,2.8794,2.892,2.9454,3.0148,3.0953,3.2051,3.2797,3.3405,3.3962,3.4103,3.4033,3.3488,3.3368,3.3176,3.2529,3.2406,3.2525,3.2852,0.0,0.0,0.0,0.0,0.0,0.0,3.4049,3.4293,3.4274,0.0,0.0,0.0,0.0,0.0,0.0,0.0,0.0,3.6082,3.6956,0.0,3.8895,3.9983,4.1003,4.199,4.2054,4.2969,4.4596,4.5561,4.5994,4.5997,4.5997,4.5997,4.5997,4.5997,4.6027,4.6122,4.6162,4.6203,4.6211,4.6273,4.6265,4.6204,1.8482,1.9121,1.9735,1.987,2.0736,2.143,2.1688,2.2683,2.3465,2.3619,2.4342,2.4785,2.4594,2.3956,2.3509,0.0,2.3569,2.3628,0.0,2.3819,2.3891,2.3949,2.4067,2.4112,2.4112,2.4112,2.4112,2.4112,0.0,0.0,0.0,2.6202,2.6922,2.7573,2.7817,2.8084,2.8284,2.8348,2.8411,2.8411,2.8411,2.8411,2.8411,2.8411,2.8411,2.8411,2.8411,2.8444,2.8541,2.8589,2.87,2.8779,2.8779,2.8811,2.8842,2.8967,2.8936,2.9077,3.0122,3.0593,3.1021,3.215,3.2882,3.3339,3.3522,3.3905,3.4185,3.4112,3.4117,3.3946,3.3283,3.3161,3.3055,3.276,3.2802,0.0,0.0,0.0,0.0,0.0,3.4148,3.4293,0.0,3.4495,0.0,0.0,0.0,0.0,0.0,0.0,0.0,0.0,3.7177,0.0,3.9581,4.0204,4.0943,4.1812,4.2549,4.3815,4.5486,4.5832,4.6003,4.5994,4.5997,4.5997,4.5997,4.5997,4.6007,4.6027,4.6122,4.6162,4.6196,4.6231,4.6254,4.6269,1.9052,1.9612,2.0076,2.0355,2.1214,2.1885,2.1885,2.3061,2.3941,2.3869,2.4828,2.5473,2.5396,2.4803,0.0,2.4009,2.4056,2.4038,2.3819,2.3878,2.4008,2.4008,2.4067,2.4112,2.4112,2.4112,0.0,2.4112,2.45,2.5154,2.6097,2.6882,2.7482,2.7905,2.8412,2.8618,2.8682,2.9008,2.9166,2.9166,2.9166,2.9166,2.9135,2.8889,2.8781,2.875,2.8537,2.8541,2.8621,2.87,2.8779,2.8904,2.8967,2.8951,2.892,2.9045,2.9029,2.9217,3.0272,3.0749,3.1259,3.239,3.3271,3.3994,3.4397,3.4846,3.5074,3.4913,3.4958,3.4684,3.3687,3.3512,3.3284,3.2696,3.2705,3.2943,3.3332,0.0,0.0,0.0,0.0,0.0,0.0,3.4517,3.4539,0.0,0.0,0.0,0.0,0.0,0.0,3.7019,3.7502,3.8445,3.9873,4.0444,4.1221,4.2197,4.3583,4.4821,4.5906,4.5937,4.598,4.6003,4.6005,4.5997,4.5997,4.5997,4.5997,4.6007,4.6075,4.613,4.6162,4.6196,4.6234,4.6265,2.0093,2.0726,2.122,0.0,2.2021,0.0,2.2514,2.3685,2.4386,2.408,2.5335,2.6077,2.5754,2.5816,2.5644,2.4922,0.0,0.0,0.0,2.423,2.423,2.423,2.423,2.4217,2.4178,2.4178,2.421,2.4229,2.53,2.6136,2.6794,2.7431,2.7831,2.8171,2.8794,2.922,2.9469,3.0151,3.0428,3.0428,3.0428,3.0428,3.0299,2.9735,2.9489,2.9396,2.8896,2.8713,2.8745,2.892,2.8983,2.8983,2.9091,2.9075,2.9075,2.9075,2.9075,2.9295,3.0054,3.0717,3.148,3.2724,3.3923,3.5098,3.6259,3.6602,3.6533,3.5898,3.584,3.5443,3.3914,3.3617,3.3389,3.2767,3.2641,3.2816,3.3361,0.0,0.0,0.0,0.0,0.0,3.4495,3.4561,3.4517,0.0,0.0,0.0,0.0,0.0,3.5324,3.7023,3.7858,3.8832,3.9946,4.0704,4.1777,4.3121,4.4916,4.5814,4.5893,4.5893,4.5929,4.5991,4.6005,4.5997,4.5997,4.5997,4.5997,4.6007,4.6075,4.6093,4.6102,4.6162,4.6206,4.6192,0.0,0.0,2.1032,2.1167,2.1597,2.2189,2.2961,2.3856,2.4684,2.548,2.6422,2.7009,2.7078,2.7065,2.6883,2.6308,2.5876,2.5563,2.5432,2.5419,2.5419,2.5419,2.5419,2.521,2.4779,2.5202,2.5426,2.5412,2.5687,2.6403,2.7647,2.8204,2.8867,2.9559,2.9779,2.9959,3.0026,3.0299,3.0428,3.0428,3.0428,3.0428,3.036,3.0243,3.0181,3.0166,2.9997,3.0138,3.0195,2.973,2.9736,2.9785,2.9249,2.9075,2.9075,2.9075,2.9075,2.9343,3.0638,3.1097,3.1507,3.2879,3.4121,3.522,3.6259,3.6626,3.6736,3.6561,3.6628,3.6408,3.546,3.4811,3.4233,3.3616,3.3146,3.3037,3.3552,3.3752,0.0,0.0,3.4495,3.4495,3.4561,3.4539,3.4495,0.0,0.0,0.0,0.0,3.5969,3.6727,3.7829,3.8085,3.8946,4.0503,4.0915,4.2044,4.3932,4.504,4.5658,4.5814,4.588,4.5917,4.5929,4.5975,4.5997,4.5997,4.5997,4.5997,4.5997,4.6017,4.6047,4.6093,4.613,4.6169,4.6195,2.0925,2.1417,2.1882,2.1946,2.2509,2.318,2.3672,2.4469,2.5264,2.5975,2.6837,2.7335,2.7456,2.7523,2.7406,2.7092,2.6543,2.6099,2.5837,2.5824,2.5824,2.5824,2.5824,2.568,2.5367,2.5633,2.6104,2.668,2.6974,2.7642,2.8675,2.9064,2.9524,3.0046,3.0456,3.07,3.0768,3.1129,3.132,3.132,3.132,3.132,3.1289,3.0982,3.0926,3.0933,3.0675,3.0705,3.0829,3.0535,3.0523,3.0591,3.0212,3.0085,3.0022,2.9706,2.9611,2.9848,3.0923,3.146,3.2101,3.3593,3.4431,3.5191,3.6259,3.6626,3.6748,3.6788,3.6908,3.6742,3.5952,3.5478,3.4865,3.3812,3.3369,3.3291,3.3578,3.3707,0.0,3.4495,3.4539,3.4539,3.4517,3.4832,3.5011,3.496,3.5291,0.0,3.6563,3.7054,3.7527,3.8051,3.8857,3.975,4.0701,4.1742,4.2984,4.4476,4.5169,4.556,4.5658,4.5827,4.5893,4.5898,4.5964,4.6005,4.5997,4.5997,4.5997,4.5997,4.5997,4.6017,4.6047,4.6047,4.6093,4.6162,2.1807,2.2478,2.3001,2.3065,2.3768,2.448,2.4624,2.5322,2.5963,2.6252,2.6905,2.7403,2.7456,2.7523,2.7523,2.7523,2.7079,2.6595,2.6112,2.6149,2.6149,2.6149,2.6149,2.6096,2.6005,2.5926,2.6465,2.7736,2.8154,2.8793,2.9605,2.9753,2.9976,3.038,3.1036,3.1443,3.1582,3.2151,3.2398,3.2398,3.2398,3.2398,3.2336,3.1751,3.1605,3.165,3.1218,3.1154,3.1291,3.1297,3.1315,3.1349,3.1255,3.1223,3.1097,3.0512,3.0417,3.0607,3.1097,3.1858,3.2942,3.4445,3.4864,3.5237,3.6276,3.6643,3.6766,3.6829,3.6908,3.6777,3.611,3.5899,3.539,3.4091,3.3793,3.3754,3.3884,0.0,3.4127,3.4805,3.4914,3.4892,3.4824,3.5464,3.5848,3.5789,3.6528,3.7247,3.7856,3.8024,3.8162,3.8364,3.9805,4.0772,4.1095,4.285,4.4094,4.4819,4.5245,4.5472,4.5507,4.5771,4.5899,4.5886,4.596,4.5994,4.5997,4.5997,4.5997,4.5997,4.5997,4.5997,4.5997,4.5997,4.6047,4.6093,2.1807,2.2478,2.3065,2.3169,2.3818,2.4696,2.5685,2.5975,2.6333,2.7175,2.739,2.7469,2.7523,2.7523,2.7523,2.7523,2.7445,2.7419,2.7459,2.7669,2.7748,2.7748,2.759,2.7352,2.6977,2.6374,2.6648,2.7794,2.728,2.7973,2.9795,2.9795,3.0544,3.183,3.1992,3.2133,3.2244,3.2351,3.2398,3.2398,3.2398,3.2398,3.2382,3.2275,3.2244,3.2283,3.23,3.2446,3.2529,3.206,3.1974,3.1997,3.1413,3.1223,3.1191,3.1097,3.1476,3.1839,3.1349,3.2492,3.4005,3.4657,3.5266,3.5907,3.6502,3.6806,3.6948,3.6987,3.6987,3.6935,3.6829,3.6268,3.5779,3.57,3.5118,3.4936,3.5579,0.0,3.5883,3.6616,3.6611,3.6587,3.6681,3.67,3.6702,3.6696,3.7392,3.7843,3.7894,3.8544,3.925,4.0002,4.042,4.1341,4.29,4.3866,4.4516,4.48,4.5118,4.5323,4.5507,4.5771,4.5899,4.5886,4.596,4.5994,4.5997,4.5997,4.5997,4.5997,4.5997,4.5997,4.5997,4.5997,4.6007,4.6017,2.1959,2.2628,2.3361,2.3902,2.4755,2.5615,2.662,2.6824,2.704,2.7456,2.7523,2.7523,2.7656,2.7656,2.7723,2.7802,2.7921,2.7973,2.8039,2.7855,2.7802,2.7802,2.7669,2.7525,2.7393,2.7373,2.7656,2.8201,2.8201,2.8769,2.9791,3.0265,3.0878,3.1709,3.2104,3.2342,3.2398,3.2398,3.2398,3.2398,3.2398,3.2398,3.2398,3.2398,3.2523,3.2648,3.2718,3.2935,3.3049,3.2809,3.2767,3.2771,3.244,3.2345,3.2266,3.1887,3.2013,3.2282,3.2329,3.3214,3.4184,3.469,3.5311,3.595,3.6544,3.6806,3.6891,3.6987,3.6987,3.6987,3.6987,3.6689,3.6341,3.5995,3.5719,0.0,3.5957,3.6051,3.6325,3.6967,3.7009,3.6986,3.6986,3.7324,3.7536,3.7511,3.8178,3.8571,3.8544,3.9342,4.0178,4.1014,4.1586,4.253,4.3877,4.4299,4.4595,4.48,4.5074,4.5323,4.5507,4.5737,4.5854,4.5886,4.5929,4.5983,4.5997,4.5997,4.5997,4.5997,4.5997,4.5997,4.5997,4.5997,4.5997,4.6007,2.2035,2.2777,2.3582,2.4348,2.5405,2.6333,2.6985,2.7323,2.7523,2.7523,2.7523,2.759,2.7776,2.7776,2.7855,2.8079,2.8183,2.8235,2.8235,2.7855,2.7669,2.7723,2.7736,2.7723,2.7723,2.8157,2.8481,2.8481,2.8967,2.9345,2.9637,3.0329,3.0748,3.1058,3.1807,3.2176,3.2216,3.2342,3.2398,3.2398,3.2398,3.2398,3.2398,3.2453,3.2594,3.2843,3.2897,3.3112,3.3256,3.3309,3.3309,3.3309,3.3309,3.3309,3.3198,3.2661,3.2503,3.2629,3.3166,3.3781,3.4415,3.4769,3.5402,3.6079,3.6585,3.6788,3.6869,3.6987,3.6987,3.6987,3.6987,3.6987,3.6794,3.618,0.0,3.6346,3.6417,3.6577,3.6887,3.7493,3.759,3.759,3.7486,3.8003,3.8331,3.8279,3.8775,3.9194,3.938,4.003,4.0876,4.189,4.2808,4.3652,4.4411,4.4468,4.4595,4.48,4.5074,4.5323,4.5526,4.5708,4.5841,4.5905,4.5905,4.5941,4.5997,4.5997,4.5997,4.5997,4.5997,4.5997,4.5997,4.5997,4.5997,4.6007,2.2035,2.2777,2.3434,2.3829,2.511,2.6195,2.6414,2.704,2.7523,2.7523,2.7523,2.759,2.7776,2.7776,2.7855,2.8079,2.8079,2.8079,2.8079,2.8079,2.821,2.8522,2.8522,2.8444,2.8235,2.8287,2.8287,2.8287,2.8249,2.8522,2.9162,2.931,2.9732,3.0372,3.119,3.1537,3.1595,3.216,3.2398,3.2398,3.2398,3.2398,3.2398,3.2523,3.2594,3.2648,3.2989,3.3096,3.315,3.3256,3.3309,3.3309,3.3309,3.3309,3.3293,3.3245,3.323,3.3245,3.3293,3.4102,3.4925,3.4988,3.5864,3.6731,3.6788,3.6908,3.6987,3.6987,3.6987,3.6987,3.6987,3.6987,3.697,3.69,0.0,0.0,3.7917,3.8031,3.8334,3.9133,3.9231,3.9231,3.9205,3.9171,3.9117,3.9117,3.9091,3.9454,4.0253,4.0364,4.1175,4.2847,4.3743,4.4317,4.4487,4.4515,4.4595,4.48,4.5074,4.5323,4.5526,4.5708,4.5841,4.5905,4.5905,4.5941,4.5997,4.5997,4.5997,4.5997,4.5997,4.5997,4.5997,4.5997,4.5997,4.5997,2.2402,2.2703,2.3128,2.3829,2.4469,2.5193,2.6277,2.6633,2.6973,2.7456,2.759,2.7789,2.7934,2.8039,2.817,2.8392,2.8406,2.8406,2.8406,2.8406,2.8406,2.8276,2.8276,2.8262,2.8197,2.8197,2.8197,2.8197,2.8145,2.8262,2.8624,2.9058,2.9484,2.9842,3.0999,3.148,3.1537,3.216,3.2398,3.2398,3.2398,3.2398,3.2398,3.2453,3.2594,3.2773,3.2951,3.3112,3.3256,3.3309,3.3309,3.3372,3.3783,3.3909,3.4004,3.4462,3.4589,3.4643,3.4791,3.4868,3.4864,3.4864,3.5837,3.6725,3.6725,3.6869,3.6987,3.6987,3.6987,3.6987,3.6987,3.6987,3.6987,3.6987,0.0,3.7411,3.808,3.8314,3.8646,3.932,3.9391,3.9597,4.0047,4.003,4.0207,4.0663,4.0671,4.0791,4.1126,4.1667,4.2537,4.3762,4.4175,4.4401,4.4515,4.4621,4.4814,4.5052,4.5284,4.549,4.5692,4.5771,4.5841,4.5905,4.5905,4.5941,4.5997,4.5997,4.5997,4.5997,4.5997,4.5997,4.5997,4.5997,4.5997,4.5997,2.2628,2.2703,2.2916,2.3621,2.3975,2.448,2.5709,2.607,2.6552,2.7323,2.759,2.7789,2.8131,2.8235,2.8365,2.8587,2.8587,2.8587,2.8587,2.8587,2.8536,2.8276,2.8276,2.8276,2.8276,2.8276,2.8276,2.8276,2.8276,2.8327,2.843,2.8881,2.9121,2.9282,3.0375,3.0984,3.1248,3.1879,3.2231,3.2398,3.2398,3.2453,3.2453,3.2523,3.2843,3.3263,3.3302,3.3606,3.3957,3.3957,3.3957,3.4036,3.4494,3.4636,3.4731,3.5236,3.5394,3.5435,3.5625,3.5565,3.5544,3.5704,3.6642,3.7539,3.7539,3.7411,3.7338,3.7338,3.7145,3.6987,3.6987,3.6987,3.6987,3.6987,3.7105,3.7411,3.8065,3.8314,3.8738,3.962,3.9712,4.0029,4.0794,4.0887,4.1082,4.1593,4.1649,4.176,4.1973,4.2813,4.3629,4.4325,4.4373,4.444,4.4515,4.4688,4.4919,4.5201,4.5399,4.561,4.58,4.5814,4.5854,4.5886,4.5917,4.5953,4.5997,4.5997,4.5997,4.5997,4.5997,4.5997,4.5997,4.5997,4.5997,4.5997,2.2628,2.2703,2.2777,2.3001,2.3632,2.4264,2.4636,2.5358,2.6208,2.7201,2.7268,2.759,2.8222,2.8287,2.8365,2.8587,2.8587,2.8587,2.8587,2.8587,2.8587,2.8587,2.8587,2.8587,2.8587,2.8587,2.8587,2.8587,2.8587,2.8587,2.8587,2.86,2.86,2.8665,2.9233,2.9903,3.0598,3.1263,3.1894,3.2413,3.2413,3.2484,3.2664,3.2858,3.3427,3.4156,3.425,3.4778,3.5394,3.5394,3.5394,3.5394,3.5394,3.5394,3.541,3.541,3.541,3.541,3.541,3.6206,3.7153,3.7643,3.8543,3.9305,3.9305,3.869,3.8111,3.8111,3.7532,3.7005,3.7005,3.7005,3.7005,3.7005,3.7005,3.7279,3.8018,3.8201,3.8752,4.0232,4.0458,4.0831,4.1613,4.1706,4.1706,4.1706,4.1735,4.206,4.2861,4.3718,4.4255,4.4383,4.4383,4.444,4.4515,4.4688,4.4938,4.5201,4.5399,4.561,4.58,4.586,4.5899,4.5886,4.596,4.5994,4.5997,4.5997,4.5997,4.5997,4.5997,4.5997,4.5997,4.5997,4.5997,4.5997,2.2852,2.2927,2.2927,2.3001,2.3213,2.3559,2.4192,2.4707,2.5487,2.6756,2.7175,2.7656,2.8222,2.8444,2.8509,2.8587,2.8587,2.8587,2.8587,2.8587,2.8587,2.8587,2.8587,2.8587,2.8587,2.8587,2.8587,2.8587,2.9044,2.9219,2.9233,3.0171,3.0634,3.0711,3.1827,3.2416,3.2675,3.3304,3.3729,3.3902,3.3959,3.4017,3.4074,3.4244,3.4554,3.4911,3.4911,3.5149,3.5394,3.5394,3.5394,3.5473,3.5963,3.6453,3.6848,3.6848,3.6848,3.7007,3.7663,3.8282,3.8503,3.7486,3.8162,3.9093,3.9093,3.9003,3.8954,3.8954,3.8778,3.862,3.862,3.862,3.862,3.862,3.862,3.885,3.9607,3.973,4.0112,4.1123,4.1266,4.1582,4.2382,4.2456,4.2728,4.3401,4.3498,4.3621,4.3863,4.4165,4.4373,4.4383,4.4458,4.4487,4.4515,4.4887,4.5118,4.5201,4.556,4.5737,4.58,4.586,4.5899,4.5886,4.596,4.5994,4.5997,4.5997,4.5997,4.5997,4.5997,4.5997,4.5997,4.5997,4.5997,4.5997,2.3001,2.3001,2.3001,2.3001,2.3001,2.3287,2.3998,2.4504,2.5276,2.6676,2.731,2.7855,2.8379,2.8522,2.8587,2.8587,2.8804,2.894,2.894,2.917,2.9306,2.9306,2.9306,2.9197,2.894,2.894,2.9062,2.9306,2.997,3.0263,3.0341,3.1406,3.1907,3.1922,3.2753,3.3255,3.3516,3.3955,3.4268,3.4577,3.4694,3.4809,3.4925,3.4982,3.5269,3.5691,3.5691,3.5922,3.6216,3.6216,3.6216,3.6295,3.6706,3.7133,3.748,3.748,3.7626,3.7927,3.8502,3.9176,3.9445,3.8522,3.9144,4.0045,4.0045,3.9904,3.9779,3.9779,3.9533,3.9305,3.9305,3.9305,3.9305,3.9305,3.9305,3.954,4.0294,4.0383,4.0842,4.1969,4.2114,4.2459,4.3357,4.3431,4.3685,4.4218,4.4285,4.4314,4.4344,4.4383,4.4411,4.444,4.456,4.4621,4.4621,4.5096,4.5283,4.5201,4.561,4.58,4.58,4.5874,4.5893,4.5898,4.5972,4.6005,4.5997,4.5997,4.5997,4.5997,4.5997,4.5997,4.5997,4.5997,4.5997,4.5997,2.3001,2.3001,2.3001,2.3075,2.3075,2.3298,2.4043,2.4671,2.5499,2.6756,2.7443,2.8,2.8603,2.8668,2.8695,2.875,2.9252,2.9564,2.9564,3.0093,3.0405,3.0405,3.0405,3.0174,2.9645,2.9591,2.9835,3.0405,3.1124,3.1495,3.1575,3.2356,3.2689,3.2767,3.2811,3.3232,3.3803,3.3803,3.4242,3.4938,3.4922,3.5112,3.5357,3.5414,3.5865,3.6516,3.6516,3.6927,3.748,3.748,3.748,3.748,3.748,3.748,3.7539,3.7583,3.7943,3.8334,3.8446,3.9246,4.0103,4.0235,4.0943,4.1604,4.1604,4.1078,4.0586,4.0586,4.0024,3.9515,3.9515,3.9515,3.9515,3.9557,3.9557,3.9833,4.0583,4.069,4.1241,4.2809,4.301,4.3368,4.4279,4.4383,4.4383,4.4383,4.4344,4.4344,4.443,4.4411,4.4458,4.4515,4.4707,4.48,4.48,4.5265,4.5399,4.5243,4.561,4.58,4.5814,4.588,4.5905,4.5898,4.5975,4.5997,4.5997,4.5997,4.5997,4.5997,4.5997,4.5997,4.5997,4.5997,4.5997,4.5997,2.3001,2.3001,2.3075,2.3446,2.3446,2.3604,2.4127,2.4945,2.5697,2.6445,2.7284,2.816,2.9158,2.9279,2.9482,2.9971,3.0133,3.0201,3.0201,3.0337,3.0405,3.0405,3.0405,3.0568,3.0893,3.0446,3.0269,3.0405,3.1029,3.1664,3.2248,3.3446,3.428,3.4881,3.5415,3.5768,3.603,3.603,3.6229,3.6487,3.6635,3.6679,3.6754,3.6963,3.7117,3.7243,3.7243,3.7338,3.748,3.748,3.748,3.748,3.748,3.748,3.7583,3.7985,3.8181,3.8502,3.9492,4.0036,4.0449,4.1007,4.1363,4.156,4.1471,4.1393,4.1358,4.1358,4.1218,4.1113,4.1113,4.1113,4.1208,4.1511,4.1552,4.1841,4.2647,4.2752,4.3015,4.3677,4.3855,4.4009,4.4226,4.4344,4.4383,4.4383,4.443,4.4458,4.4487,4.4487,4.4487,4.4515,4.4707,4.48,4.48,4.5265,4.5472,4.5436,4.5673,4.58,4.5814,4.588,4.5905,4.5898,4.5975,4.5997,4.5997,4.5997,4.5997,4.5997,4.5997,4.5997,4.5997,4.5997,4.5997,4.5997,2.3224,2.3298,2.3446,2.3824,2.3897,2.4123,2.473,2.5744,2.6669,2.7354,2.8389,2.9295,2.9889,2.993,3.0052,3.0378,3.0663,3.0839,3.0839,3.1097,3.126,3.126,3.126,3.1523,3.222,3.193,3.1764,3.1764,3.273,3.3441,3.3859,3.4931,3.5629,3.5984,3.6384,3.66,3.6723,3.68,3.6923,3.7105,3.7194,3.7254,3.7329,3.7464,3.748,3.748,3.748,3.748,3.748,3.748,3.748,3.748,3.748,3.7685,3.7943,3.8238,3.8707,3.9335,4.0019,4.0497,4.0866,4.1318,4.1471,4.1515,4.1515,4.156,4.1604,4.1604,4.1604,4.1604,4.1604,4.1604,4.1719,4.2115,4.2198,4.2501,4.3334,4.3456,4.3642,4.4128,4.4237,4.4314,4.4344,4.4401,4.4458,4.4458,4.4487,4.4515,4.4515,4.4515,4.4551,4.4629,4.4868,4.5033,4.5123,4.547,4.5642,4.5642,4.5752,4.58,4.5814,4.588,4.5905,4.5898,4.5975,4.5997,4.5997,4.5997,4.5997,4.5997,4.5997,4.5997,4.5997,4.5997,4.5997,4.5997,2.3776,2.385,2.3999,2.4453,2.4599,2.4811,2.5601,2.6675,2.7687,2.8515,2.9531,3.0294,3.0554,3.0649,3.0717,3.0717,3.1165,3.1436,3.1436,3.1897,3.2182,3.2182,3.2182,3.2503,3.3227,3.3283,3.3422,3.3422,3.4581,3.5255,3.54,3.6022,3.6414,3.6554,3.6662,3.6723,3.6785,3.6984,3.7105,3.7254,3.7254,3.7329,3.748,3.748,3.748,3.748,3.748,3.748,3.748,3.748,3.748,3.748,3.748,3.7886,3.8334,3.839,3.9299,4.0186,4.0302,4.0754,4.1255,4.138,4.1426,4.1471,4.156,4.1604,4.1604,4.1604,4.1604,4.1604,4.1604,4.1604,4.1744,4.2257,4.232,4.26,4.349,4.3623,4.3804,4.4325,4.4383,4.4411,4.4487,4.4515,4.4515,4.4515,4.4515,4.4515,4.4551,4.4532,4.4648,4.4849,4.5118,4.5323,4.549,4.5708,4.58,4.58,4.58,4.58,4.5814,4.5867,4.5905,4.5898,4.5975,4.5997,4.5997,4.5997,4.5997,4.5997,4.5997,4.5997,4.5997,4.5997,4.5997,4.5997,2.4803,2.4881,2.5102,2.5867,2.6019,2.6193,2.6665,2.725,2.7851,2.8494,2.9222,2.9997,3.104,3.1626,3.1938,3.1938,3.2006,3.206,3.206,3.2128,3.2182,3.2182,3.2182,3.2503,3.3227,3.3837,3.4177,3.4177,3.438,3.478,3.54,3.5529,3.5928,3.6662,3.6723,3.6831,3.7118,3.7134,3.727,3.7464,3.7464,3.748,3.748,3.748,3.748,3.748,3.748,3.748,3.748,3.748,3.748,3.748,3.748,3.7886,3.839,3.892,3.9542,4.017,4.0823,4.1088,4.1255,4.138,4.1471,4.156,4.1604,4.1604,4.1604,4.1604,4.1604,4.1604,4.1604,4.1604,4.1831,4.258,4.2734,4.3032,4.3974,4.4104,4.4165,4.4285,4.4354,4.4411,4.4487,4.4515,4.4515,4.4515,4.4515,4.4587,4.4745,4.4745,4.4891,4.5159,4.5343,4.5472,4.549,4.5708,4.58,4.58,4.58,4.58,4.58,4.5874,4.5899,4.5898,4.5972,4.5994,4.5997,4.5997,4.5997,4.5997,4.5997,4.5997,4.5997,4.5997,4.5997,4.5997,2.5615,2.577,2.5923,2.6534,2.6621,2.6792,2.7256,2.8101,2.8946,2.9474,3.0408,3.1191,3.1762,3.2222,3.2372,3.2255,3.2588,3.2731,3.2503,3.2717,3.2717,3.2516,3.2717,3.3185,3.3973,3.438,3.4993,3.5785,3.5593,3.5721,3.6133,3.6133,3.6399,3.6862,3.6968,3.7074,3.7194,3.7329,3.7405,3.748,3.748,3.748,3.748,3.748,3.748,3.748,3.748,3.748,3.748,3.748,3.748,3.7524,3.7828,3.8311,3.8903,3.9577,4.0203,4.0754,4.1152,4.1335,4.1453,4.1515,4.156,4.1604,4.1604,4.1604,4.1604,4.1604,4.1604,4.1604,4.1604,4.1604,4.1856,4.2657,4.281,4.3141,4.4073,4.4184,4.4244,4.4344,4.443,4.4487,4.4515,4.4515,4.4515,4.4515,4.4515,4.4587,4.4795,4.48,4.4988,4.5362,4.5454,4.5541,4.5658,4.5752,4.58,4.58,4.58,4.58,4.58,4.586,4.5899,4.5886,4.596,4.5994,4.5997,4.5997,4.5997,4.5997,4.5997,4.5997,4.5997,4.5997,4.5997,4.5997]},{"header":{"parameterUnit":"m.s-1","parameterCategory":1,"la1":30.6,"la2":28.766,"lo1":-90.7593,"lo2":-88.6598,"dy":0.0162,"dx":0.0183,"nx":116,"ny":114,"refTime":"2024-03-02T18:00:00:Z","depth":0,"parameterNumber":3,"parameterNumberName":"V-component_of_WINDS"},"data":[0.0,0.0,0.0,0.0,0.0,0.0,0.0,0.0,0.0,0.0,0.0,0.0,0.0,0.0,0.0,0.0,0.0,0.0,0.0,0.0,0.0,0.0,0.0,0.0,0.0,0.0,0.0,0.0,0.0,0.0,0.0,0.0,0.0,0.0,0.0,0.0,0.0,0.0,0.0,0.0,0.0,0.0,0.0,0.0,0.0,0.0,0.0,0.0,0.0,0.0,0.0,0.0,0.0,0.0,0.0,0.0,0.0,0.0,0.0,0.0,0.0,0.0,0.0,0.0,0.0,0.0,0.0,0.0,0.0,0.0,0.0,0.0,0.0,0.0,0.0,0.0,0.0,0.0,0.0,0.0,0.0,0.0,0.0,0.0,0.0,0.0,0.0,0.0,0.0,0.0,0.0,0.0,0.0,0.0,0.0,0.0,0.0,0.0,0.0,0.0,0.0,0.0,0.0,0.0,0.0,0.0,0.0,0.0,0.0,0.0,0.0,0.0,0.0,0.0,0.0,0.0,0.0,0.0,0.0,0.0,0.0,0.0,0.0,0.0,0.0,0.0,0.0,0.0,0.0,0.0,0.0,0.0,0.0,0.0,0.0,0.0,0.0,0.0,0.0,0.0,0.0,0.0,0.0,0.0,0.0,0.0,0.0,0.0,0.0,0.0,0.0,0.0,0.0,0.0,0.0,0.0,0.0,0.0,0.0,0.0,0.0,0.0,0.0,0.0,0.0,0.0,0.0,0.0,0.0,0.0,0.0,0.0,0.0,0.0,0.0,0.0,0.0,0.0,0.0,0.0,0.0,0.0,0.0,0.0,0.0,0.0,0.0,0.0,0.0,0.0,0.0,0.0,0.0,0.0,0.0,0.0,0.0,0.0,0.0,0.0,0.0,0.0,0.0,0.0,0.0,0.0,0.0,0.0,0.0,0.0,0.0,0.0,0.0,0.0,0.0,0.0,0.0,0.0,0.0,0.0,0.0,0.0,0.0,0.0,0.0,0.0,0.0,0.0,0.0,0.0,0.0,0.0,0.0,0.0,0.0,0.0,0.0,0.0,0.0,0.0,0.0,0.0,0.0,0.0,0.0,0.0,0.0,0.0,0.0,0.0,0.0,0.0,0.0,0.0,0.0,0.0,0.0,0.0,0.0,0.0,0.0,0.0,0.0,0.0,0.0,0.0,0.0,0.0,0.0,0.0,0.0,0.0,0.0,0.0,0.0,0.0,0.0,0.0,0.0,0.0,0.0,0.0,0.0,0.0,0.0,0.0,0.0,0.0,0.0,0.0,0.0,0.0,0.0,0.0,0.0,0.0,0.0,0.0,0.0,0.0,0.0,0.0,0.0,0.0,0.0,0.0,0.0,0.0,0.0,0.0,0.0,0.0,0.0,0.0,0.0,0.0,0.0,0.0,0.0,0.0,0.0,0.0,0.0,0.0,0.0,0.0,0.0,0.0,0.0,0.0,0.0,0.0,0.0,0.0,0.0,0.0,0.0,0.0,0.0,0.0,0.0,0.0,0.0,0.0,0.0,0.0,0.0,0.0,0.0,0.0,0.0,0.0,0.0,0.0,0.0,0.0,0.0,0.0,0.0,0.0,0.0,0.0,0.0,0.0,0.0,0.0,0.0,0.0,0.0,0.0,0.0,0.0,0.0,0.0,0.0,0.0,0.0,0.0,0.0,0.0,0.0,0.0,0.0,0.0,0.0,0.0,0.0,0.0,0.0,0.0,0.0,0.0,0.0,0.0,0.0,0.0,0.0,0.0,0.0,0.0,0.0,0.0,0.0,0.0,0.0,0.0,0.0,0.0,0.0,0.0,0.0,0.0,0.0,0.0,0.0,0.0,0.0,0.0,0.0,0.0,0.0,0.0,0.0,0.0,0.0,0.0,0.0,0.0,0.0,0.0,0.0,0.0,0.0,0.0,0.0,0.0,0.0,0.0,0.0,0.0,0.0,0.0,0.0,0.0,0.0,0.0,0.0,0.0,0.0,0.0,0.0,0.0,0.0,0.0,0.0,0.0,0.0,0.0,0.0,0.0,0.0,0.0,0.0,0.0,0.0,0.0,0.0,0.0,0.0,0.0,0.0,0.0,0.0,0.0,0.0,0.0,0.0,0.0,0.0,0.0,0.0,0.0,0.0,0.0,0.0,0.0,0.0,0.0,0.0,0.0,0.0,0.0,0.0,0.0,0.0,0.0,0.0,0.0,0.0,0.0,0.0,0.0,0.0,0.0,0.0,0.0,0.0,0.0,0.0,0.0,0.0,0.0,0.0,0.0,0.0,0.0,0.0,0.0,0.0,0.0,0.0,0.0,0.0,0.0,0.0,0.0,0.0,0.0,0.0,0.0,0.0,0.0,0.0,0.0,0.0,0.0,0.0,0.0,0.0,0.0,0.0,0.0,0.0,0.0,0.0,0.0,0.0,0.0,0.0,0.0,0.0,0.0,0.0,0.0,0.0,0.0,0.0,0.0,0.0,0.0,0.0,0.0,0.0,0.0,0.0,0.0,0.0,0.0,0.0,0.0,0.0,0.0,0.0,0.0,0.0,0.0,0.0,0.0,0.0,0.0,0.0,0.0,0.0,0.0,0.0,0.0,0.0,0.0,0.0,0.0,0.0,0.0,0.0,0.0,0.0,0.0,0.0,0.0,0.0,0.0,0.0,0.0,0.0,0.0,0.0,0.0,0.0,0.0,0.0,0.0,0.0,0.0,0.0,0.0,0.0,0.0,0.0,0.0,0.0,0.0,0.0,0.0,0.0,0.0,0.0,0.0,0.0,0.0,0.0,0.0,0.0,0.0,0.0,0.0,0.0,0.0,0.0,0.0,0.0,0.0,0.0,0.0,0.0,0.0,0.0,0.0,0.0,0.0,0.0,0.0,0.0,0.0,0.0,0.0,0.0,0.0,0.0,0.0,0.0,0.0,0.0,0.0,0.0,0.0,0.0,0.0,0.0,0.0,0.0,0.0,0.0,0.0,0.0,0.0,0.0,0.0,0.0,0.0,0.0,0.0,0.0,0.0,0.0,0.0,0.0,0.0,0.0,0.0,0.0,0.0,0.0,0.0,0.0,0.0,0.0,0.0,0.0,0.0,0.0,0.0,0.0,0.0,0.0,0.0,0.0,0.0,0.0,0.0,0.0,0.0,0.0,0.0,0.0,0.0,0.0,0.0,0.0,0.0,0.0,0.0,0.0,0.0,0.0,0.0,0.0,0.0,0.0,0.0,0.0,0.0,0.0,0.0,0.0,0.0,0.0,0.0,0.0,0.0,0.0,0.0,0.0,0.0,0.0,0.0,0.0,0.0,0.0,0.0,0.0,0.0,0.0,0.0,0.0,0.0,0.0,0.0,0.0,0.0,0.0,0.0,0.0,0.0,0.0,0.0,0.0,0.0,0.0,0.0,0.0,0.0,0.0,0.0,0.0,0.0,0.0,0.0,0.0,0.0,0.0,0.0,0.0,0.0,0.0,0.0,0.0,0.0,0.0,0.0,0.0,0.0,0.0,0.0,0.0,0.0,0.0,0.0,0.0,0.0,0.0,0.0,0.0,0.0,0.0,0.0,0.0,0.0,0.0,0.0,0.0,0.0,0.0,0.0,0.0,0.0,0.0,0.0,0.0,0.0,0.0,0.0,0.0,0.0,0.0,0.0,0.0,0.0,0.0,0.0,0.0,0.0,0.0,0.0,0.0,0.0,0.0,0.0,0.0,0.0,0.0,0.0,0.0,0.0,0.0,0.0,0.0,0.0,0.0,0.0,0.0,0.0,0.0,0.0,0.0,0.0,0.0,0.0,0.0,0.0,0.0,0.0,0.0,0.0,0.0,0.0,0.0,0.0,0.0,0.0,0.0,0.0,0.0,0.0,0.0,0.0,0.0,0.0,0.0,0.0,0.0,0.0,0.0,0.0,0.0,0.0,0.0,0.0,0.0,0.0,0.0,0.0,0.0,0.0,0.0,0.0,0.0,0.0,0.0,0.0,0.0,0.0,0.0,0.0,0.0,0.0,0.0,0.0,0.0,0.0,0.0,0.0,0.0,0.0,0.0,0.0,0.0,0.0,0.0,0.0,0.0,0.0,0.0,0.0,0.0,0.0,0.0,0.0,0.0,0.0,0.0,0.0,0.0,0.0,0.0,0.0,0.0,0.0,0.0,0.0,0.0,0.0,0.0,0.0,0.0,0.0,0.0,0.0,0.0,0.0,0.0,0.0,0.0,0.0,0.0,0.0,0.0,0.0,0.0,0.0,0.0,0.0,0.0,0.0,0.0,0.0,0.0,0.0,0.0,0.0,0.0,0.0,0.0,0.0,0.0,0.0,0.0,0.0,0.0,0.0,0.0,0.0,0.0,0.0,0.0,0.0,0.0,0.0,0.0,0.0,0.0,0.0,0.0,0.0,0.0,0.0,0.0,0.0,0.0,0.0,0.0,0.0,0.0,0.0,0.0,0.0,0.0,0.0,0.0,0.0,0.0,0.0,0.0,0.0,0.0,0.0,0.0,0.0,0.0,0.0,0.0,0.0,0.0,0.0,0.0,0.0,0.0,0.0,0.0,0.0,0.0,0.0,0.0,0.0,0.0,0.0,0.0,0.0,0.0,0.0,0.0,0.0,0.0,0.0,0.0,0.0,0.0,0.0,0.0,0.0,0.0,0.0,0.0,0.0,0.0,0.0,0.0,0.0,0.0,0.0,0.0,0.0,0.0,0.0,0.0,0.0,0.0,0.0,0.0,0.0,0.0,0.0,0.0,0.0,0.0,0.0,0.0,0.0,0.0,0.0,0.0,0.0,0.0,0.0,0.0,0.0,0.0,0.0,0.0,0.0,0.0,0.0,0.0,0.0,0.0,0.0,0.0,0.0,0.0,0.0,0.0,0.0,0.0,0.0,0.0,0.0,0.0,0.0,0.0,0.0,0.0,0.0,0.0,0.0,0.0,0.0,0.0,0.0,0.0,0.0,0.0,0.0,0.0,0.0,0.0,0.0,0.0,0.0,0.0,0.0,0.0,0.0,0.0,0.0,0.0,0.0,0.0,0.0,0.0,0.0,0.0,0.0,0.0,0.0,0.0,0.0,0.0,0.0,0.0,0.0,0.0,0.0,0.0,0.0,0.0,0.0,0.0,0.0,0.0,0.0,0.0,0.0,0.0,0.0,0.0,0.0,0.0,0.0,0.0,0.0,0.0,0.0,0.0,0.0,0.0,0.0,0.0,0.0,0.0,0.0,0.0,0.0,0.0,0.0,0.0,0.0,0.0,0.0,0.0,0.0,0.0,0.0,0.0,0.0,0.0,0.0,0.0,0.0,0.0,0.0,0.0,0.0,0.0,0.0,0.0,0.0,0.0,0.0,0.0,0.0,0.0,0.0,0.0,0.0,0.0,0.0,0.0,0.0,0.0,0.0,0.0,0.0,0.0,0.0,0.0,0.0,0.0,0.0,0.0,0.0,0.0,0.0,0.0,0.0,0.0,0.0,0.0,0.0,0.0,0.0,0.0,0.0,0.0,0.0,0.0,0.0,0.0,0.0,0.0,0.0,0.0,0.0,0.0,0.0,0.0,0.0,0.0,0.0,0.0,0.0,0.0,0.0,0.0,0.0,0.0,0.0,0.0,0.0,0.0,0.0,0.0,0.0,0.0,0.0,0.0,0.0,0.0,0.0,0.0,0.0,0.0,0.0,0.0,0.0,0.0,0.0,0.0,0.0,0.0,0.0,0.0,0.0,0.0,0.0,0.0,0.0,0.0,0.0,0.0,0.0,0.0,0.0,0.0,0.0,0.0,0.0,0.0,0.0,0.0,0.0,0.0,0.0,0.0,0.0,0.0,0.0,0.0,0.0,0.0,0.0,0.0,0.0,0.0,0.0,0.0,0.0,0.0,0.0,0.0,0.0,0.0,0.0,0.0,0.0,0.0,0.0,0.0,0.0,0.0,0.0,0.0,0.0,0.0,0.0,0.0,0.0,0.0,0.0,0.0,0.0,0.0,0.0,0.0,0.0,0.0,0.0,0.0,0.0,0.0,0.0,0.0,0.0,0.0,0.0,0.0,0.0,0.0,0.0,0.0,0.0,0.0,0.0,0.0,0.0,0.0,0.0,0.0,0.0,0.0,0.0,0.0,0.0,-0.5403,0.0,0.0,0.0,0.0,0.0,0.0,0.0,0.0,0.0,0.0,0.0,0.0,0.0,0.0,0.0,0.0,0.0,0.0,0.0,0.0,0.0,0.0,0.0,0.0,0.0,0.0,0.0,0.0,0.0,0.0,0.0,0.0,0.0,0.0,0.0,0.43,0.43,0.4364,0.4431,0.4551,0.468,0.4746,0.4752,0.398,0.2512,0.0,0.0,0.0,0.0,0.0,0.0,0.0,0.0,0.0,0.0,0.0,0.0,0.0,0.0,0.0,0.0,0.0,0.0,0.0,0.0,0.0,0.0,0.0,0.0,0.0,0.0,0.0,0.0,0.0,0.0,0.0,0.0,0.0,0.0,0.0,0.0,0.0,0.0,0.0,0.0,0.0,0.0,0.0,0.0,0.0,0.0,0.0,0.0,0.0,0.0,0.0,0.0,0.0,0.0,0.0,0.0,0.0,0.0,0.0,0.0,0.0,0.0,0.0,0.0,0.0,0.0,0.0,0.0,0.0,0.0,0.0,-0.5659,0.0,0.0,0.0,0.0,0.0,0.0,0.0,0.0,0.0,0.0,0.0,0.0,0.0,0.0,0.0,0.0,0.0,0.0,0.0,0.0,0.0,0.0,0.0,0.7279,0.7228,0.7199,0.7073,0.6679,0.0,0.0,0.0,0.0,0.0,0.4483,0.427,0.4356,0.4442,0.466,0.4861,0.5074,0.5371,0.5504,0.44,0.2424,0.1168,0.0,0.0,0.0,0.0,0.0,0.0,0.0,0.0,0.0,0.0,0.0,0.0,0.0,0.0,0.0,0.0,0.0,0.0,0.0,0.0,0.0,0.0,0.0,0.0,0.0,0.0,0.0,0.0,0.0,0.0,0.0,0.0,0.0,0.0,0.0,0.0,0.0,0.0,0.0,0.0,0.0,0.0,0.0,0.0,0.0,0.0,0.0,0.0,0.0,0.0,0.0,0.0,0.0,0.0,0.0,0.0,0.0,0.0,0.0,0.0,0.0,0.0,0.0,-0.3645,-0.3776,-0.3897,-0.4701,-0.5108,-0.5228,-0.5421,-0.5644,-0.601,-0.5973,0.0,0.0,0.0,0.0,0.0,0.0,0.0,0.0,0.0,0.0,0.0,0.0,0.0,0.0,0.0,0.0,0.0,0.0,0.0,0.0,0.0,0.7201,0.7208,0.7186,0.7204,0.6806,0.5958,0.5888,0.5436,0.4473,0.4569,0.4443,0.4145,0.4441,0.4616,0.4798,0.521,0.5555,0.5806,0.5382,0.4933,0.4558,0.3706,0.2658,0.1481,0.0,0.0,0.0,0.0,0.0,0.0,0.0,0.0,0.0,0.0,0.0,0.0,0.0,0.0,0.0,0.0,0.0,0.0,0.0,0.0,0.0,0.0,0.0,0.0,0.0,0.0,0.0,0.0,0.0,0.0,0.0,0.0,0.0,0.0,0.0,0.0,0.0,0.0,0.0,0.0,0.0,0.1111,0.1084,0.0,0.0,0.0,0.0,0.0,0.0,0.0,0.0,0.0,0.0,0.0,0.0,0.0,-0.3082,-0.3215,-0.3818,-0.4204,-0.4306,-0.5002,-0.5419,-0.5673,-0.5767,-0.5934,-0.615,-0.6133,0.0,-0.6027,-0.6356,0.0,0.0,0.0,0.0,0.0,0.0,0.0,0.0,0.0,0.0,0.0,0.0,0.0,0.0,0.0,0.0,0.0,0.0,0.0,0.0,0.0,0.7711,0.7739,0.7892,0.7787,0.7335,0.6679,0.6613,0.6183,0.5267,0.5325,0.5196,0.4807,0.4995,0.5135,0.5351,0.5781,0.604,0.6099,0.588,0.5653,0.5315,0.4822,0.3693,0.2165,0.1934,0.0,0.0,0.0,0.0,0.0,0.0,0.0,0.0,0.0,0.0,0.0,0.0,0.0,0.0,0.0,0.0,0.0,0.0,0.0,0.0,0.0,0.0,0.0,0.0,0.0,0.0,0.0,0.0,0.0,0.0,0.0,0.0,0.0,0.0,0.0,0.0,0.0,0.0,0.0,0.1383,0.1372,0.1652,0.1358,0.1076,0.0,0.0,0.0,0.0,0.0,0.0,0.0,0.0,0.0,-0.3558,-0.3754,-0.402,-0.442,-0.4755,-0.4922,-0.4984,-0.5408,-0.5698,-0.5905,-0.606,-0.6187,-0.6338,-0.6412,-0.6447,-0.6377,-0.6514,-0.6585,-0.6511,0.0,0.0,0.0,0.0,-0.7095,-0.7179,0.0,0.0,0.0,0.0,0.0,0.0,0.0,0.0,0.0,0.0,0.0,0.0,0.8027,0.8102,0.8237,0.8345,0.8177,0.7792,0.7269,0.7204,0.685,0.5956,0.5932,0.58,0.5432,0.5442,0.5614,0.5875,0.6173,0.6331,0.6338,0.6338,0.6028,0.5559,0.5479,0.4443,0.2789,0.2683,0.1866,0.0503,0.0,0.0,0.0,0.0,0.0,0.0,0.0,0.0,0.0,0.0,0.0,0.0,0.0,0.0,0.0,0.0,0.0,0.0,0.0,0.0,0.0,0.0,0.0,0.0,0.0,0.0,0.0,0.0,0.0,0.0,0.0,0.0,0.0,0.0,0.0,0.0,0.0,0.1646,0.1571,0.2149,0.1566,0.1143,0.0,0.0,0.0,0.0,0.0,0.0,-0.2153,-0.323,-0.3899,-0.4161,-0.4356,-0.4755,-0.5292,-0.5362,-0.5428,-0.5428,-0.5477,-0.5627,-0.5806,-0.6138,-0.63,-0.6412,-0.6563,-0.6637,-0.6703,-0.6662,-0.6689,-0.6753,-0.6996,-0.7163,-0.7163,-0.7163,-0.7231,-0.7471,0.0,0.0,0.0,0.0,0.0,0.0,0.0,0.0,0.0,0.0,0.0,0.8739,0.7844,0.8127,0.8299,0.8027,0.7987,0.7792,0.7269,0.7204,0.6854,0.6034,0.6055,0.5871,0.5392,0.5621,0.5856,0.6097,0.6247,0.6331,0.6338,0.6338,0.6028,0.5637,0.5559,0.487,0.3638,0.3021,0.2401,0.1685,0.0359,0.0,0.0,0.0,0.0,0.0,0.0,0.0,0.0,0.0,0.0,0.0,0.0,0.0,0.0,0.0,0.0,0.0,0.0,0.0,0.0,0.0,0.0,0.0,0.0,0.0,0.0,0.0,0.0,0.0,0.0,0.0,0.0,0.0,0.0,0.0,0.0,0.0,0.0,0.2165,0.1548,0.0,0.0,0.0,0.0,0.1079,0.0674,-0.0471,-0.235,-0.3634,-0.4375,-0.4558,-0.4888,-0.5087,-0.5087,-0.5292,-0.5428,-0.5428,-0.5435,-0.5525,-0.5803,-0.6029,-0.6275,-0.6563,-0.6563,-0.6714,-0.6861,-0.6853,-0.7011,-0.7169,-0.7387,-0.7456,-0.7456,-0.7456,-0.7613,-0.7778,0.0,0.0,0.0,0.0,0.0,0.0,0.0,0.0,0.9354,0.8778,0.9362,0.9611,0.904,0.9191,0.9284,0.9175,0.863,0.8182,0.7847,0.7787,0.7493,0.6961,0.6833,0.6641,0.6246,0.6356,0.6359,0.6456,0.6471,0.6482,0.649,0.6338,0.6028,0.5559,0.5321,0.4828,0.4099,0.39,0.3057,0.1837,0.1241,0.035,0.0,0.0,0.0,0.0,0.0,0.0,0.0,0.0,0.0,0.0,0.0,0.0,0.0,0.0,0.0,0.0,0.0,0.0,0.0,0.0,0.0,0.0,0.0,0.0,0.0,0.0,0.0,0.0,0.0,0.0,0.0,0.0,0.0,0.0,0.0,0.0,0.0,0.276,0.2017,0.0,0.1951,0.148,0.1077,0.1079,0.0404,-0.0739,-0.2417,-0.3222,-0.3892,-0.4558,-0.4827,-0.4957,-0.5087,-0.5156,-0.5292,-0.5428,-0.5428,-0.5586,-0.6022,-0.6165,-0.6485,-0.6791,-0.6949,-0.7026,-0.7099,-0.7099,-0.7103,-0.7257,-0.7407,-0.7484,-0.7484,-0.7642,-0.7799,-0.803,0.0,0.0,0.0,0.0,0.0,0.0,0.0,0.0,0.9606,0.9284,0.985,1.0108,0.959,0.9752,0.9756,0.9378,0.8829,0.8441,0.8236,0.8118,0.7936,0.7596,0.7269,0.7003,0.6675,0.6605,0.6579,0.6599,0.6561,0.6506,0.6563,0.6412,0.6028,0.5559,0.5321,0.4929,0.4384,0.4384,0.3569,0.2292,0.1861,0.0928,-0.0272,0.0,0.0,0.0,0.0,0.0,0.0,0.0,0.0,0.0,0.0,0.0,0.0,0.0,0.0,0.0,0.0,0.0,0.0,0.0,0.0,0.0,0.0,0.0,0.0,0.0,0.0,0.0,0.0,0.0,0.0,0.0,0.0,0.0,0.0,0.0,0.269,0.3161,0.2354,0.1884,0.2154,0.1749,0.1346,0.1145,0.0538,-0.047,-0.1947,-0.2616,-0.3351,-0.4292,-0.4561,-0.4827,-0.5024,-0.5087,-0.5223,-0.5428,-0.5413,-0.5707,-0.6101,-0.6367,-0.6682,-0.7022,-0.718,-0.7257,-0.7257,-0.7257,-0.7261,-0.7415,-0.7484,-0.7484,-0.7561,-0.7723,-0.7953,-0.8102,0.0,0.0,0.0,0.0,0.0,0.0,1.0387,1.0177,1.0023,1.0115,1.0284,1.0196,0.9455,0.9787,0.9646,0.8641,0.8511,0.8447,0.8236,0.8256,0.8086,0.7736,0.7209,0.6881,0.6675,0.6482,0.6459,0.6599,0.6376,0.6397,0.6641,0.6412,0.6025,0.5637,0.5559,0.5168,0.4384,0.4384,0.3919,0.3056,0.2063,0.147,0.0911,0.0,0.0,0.0,0.0,0.0,0.0,0.0,0.0,0.0,0.0,0.0,0.0,0.0,0.0,0.0,0.0,0.0,0.0,0.0,0.0,0.0,0.0,0.0,0.0,0.0,0.0,0.0,0.0,0.0,0.0,0.0,0.0,0.0,0.3228,0.2956,0.2889,0.3159,0.2624,0.2221,0.2221,0.2221,0.1884,0.121,0.1143,0.047,-0.1008,-0.1947,-0.2885,-0.3756,-0.4292,-0.4628,-0.4764,-0.4957,-0.5226,-0.5369,-0.5518,-0.5807,-0.6108,-0.6482,-0.6795,-0.7184,-0.7184,-0.7334,-0.7484,-0.7257,-0.7415,-0.7804,-0.7565,-0.7484,-0.7561,-0.7723,-0.7953,-0.8178,0.0,0.0,0.0,0.0,0.0,0.0,1.0844,1.057,1.0447,1.0578,1.1107,1.1337,1.0996,1.0842,1.0388,0.9646,0.8888,0.8447,0.8447,0.8304,0.8048,0.7596,0.7396,0.7134,0.6741,0.6482,0.6595,0.6885,0.6666,0.6621,0.6788,0.6641,0.6254,0.5786,0.5476,0.5087,0.4621,0.4311,0.3765,0.3061,0.2492,0.1753,0.0963,0.0,0.0,0.0,0.0,0.0,0.0,0.0,0.0,0.0,0.0,0.0,0.0,0.0,0.0,0.0,0.0,0.0,0.0,0.0,0.0,0.0,0.0,0.0,0.0,0.0,0.0,0.0,0.0,0.0,0.0,0.0,0.0,0.3694,0.3625,0.3558,0.3558,0.3625,0.3157,0.2757,0.2757,0.2421,0.2087,0.1884,0.1614,0.1008,-0.0,-0.1007,-0.2013,-0.3215,-0.3754,-0.4225,-0.4628,-0.4827,-0.5011,-0.5316,-0.55,-0.5937,-0.6489,-0.6533,-0.6866,-0.7407,-0.7407,-0.7484,-0.7484,-0.7569,-0.7727,-0.7804,-0.7723,-0.7723,-0.7723,-0.8102,-0.8327,-0.8551,0.0,0.0,0.0,0.0,0.0,0.0,1.0987,1.0871,1.088,1.0895,1.1563,1.1846,1.1503,1.1243,1.0843,1.0085,0.9268,0.8829,0.8829,0.863,0.8473,0.8372,0.7957,0.7751,0.7773,0.7251,0.7382,0.8064,0.7843,0.7634,0.7399,0.7173,0.6633,0.586,0.5553,0.5168,0.4698,0.4387,0.3765,0.3062,0.2826,0.2241,0.1437,0.1304,0.1215,0.1187,0.1096,0.1034,0.0974,0.0709,0.0,0.0,0.0,0.0,0.0,0.0,0.0,0.0,0.0,0.0,0.0,0.0,0.0,0.0,0.0,0.0,0.0,0.0,0.0,0.0,0.0,0.0,0.0,0.0,0.4029,0.3946,0.4036,0.3892,0.3825,0.3825,0.3426,0.3159,0.3023,0.2757,0.249,0.2221,0.2084,0.1612,0.0537,-0.0336,-0.1409,-0.2681,-0.342,-0.4048,-0.4639,-0.4842,-0.5046,-0.5252,-0.56,-0.5937,-0.6332,-0.6622,-0.6931,-0.7407,-0.7484,-0.7484,-0.7484,-0.7642,-0.7799,0.0,0.0,0.0,0.0,0.0,-0.8479,-0.8703,0.0,0.0,0.0,0.0,0.0,0.0,1.1074,1.1291,1.142,1.1238,1.1728,1.197,1.1461,1.1373,1.0982,1.0148,0.9646,0.9338,0.9338,0.921,0.9244,0.9591,0.875,0.8553,0.9164,0.8456,0.8618,0.9623,0.9394,0.8995,0.8232,0.8084,0.7322,0.6093,0.5867,0.5401,0.4776,0.454,0.3919,0.3219,0.3219,0.2789,0.2202,0.1973,0.1945,0.198,0.1539,0.1339,0.136,0.1399,0.0,0.0,0.0,0.0,0.0,0.0,0.0,0.0,0.0,0.0,0.0,0.0,0.0,0.0,0.0,0.0,0.0,0.0,0.0,0.0,0.0,0.0,0.0,0.0,0.4426,0.4322,0.4422,0.4123,0.3904,0.3894,0.3696,0.3429,0.3159,0.3159,0.2958,0.2423,0.2554,0.2216,0.1075,0.0,0.0,0.0,0.0,-0.4044,-0.4633,-0.4908,-0.5115,-0.518,-0.5741,-0.5962,-0.6061,-0.6645,-0.7022,-0.7184,-0.7407,-0.7484,-0.7484,-0.7561,-0.7791,-0.8102,-0.8102,-0.803,-0.7953,-0.8106,-0.8403,-0.878,0.0,0.0,0.0,0.0,0.0,0.0,1.2117,1.2206,1.2143,1.18,1.2161,1.2289,1.1988,1.1553,1.1115,1.0667,1.0098,0.9709,0.9709,0.9786,0.9746,0.9526,0.9747,0.9657,0.9237,0.9297,0.9406,0.9623,0.955,0.9374,0.9069,0.8993,0.8389,0.7173,0.6788,0.6093,0.5165,0.4618,0.4231,0.3923,0.3765,0.3363,0.2884,0.2884,0.3107,0.3401,0.3322,0.3254,0.3179,0.2572,0.2334,0.2258,0.1539,0.1377,0.0,0.0,0.0,0.0,0.0,0.0,0.0,0.0,0.0,0.0,0.0,0.0,0.0,0.0,0.0,0.0,0.0,0.0,0.0,0.4839,0.4839,0.4902,0.5086,0.4984,0.4674,0.4241,0.403,0.3894,0.3828,0.3563,0.3364,0.323,0.2889,0.2619,0.235,0.0891,-0.0277,-0.0901,-0.2481,-0.3596,-0.4116,-0.469,-0.4968,-0.509,0.0,0.0,-0.6294,-0.67,-0.7022,-0.7184,-0.7407,-0.7484,-0.7484,-0.7646,-0.7876,-0.8102,-0.825,-0.8403,-0.8475,-0.8403,-0.8479,-0.8703,0.0,0.0,0.0,0.0,0.0,0.0,1.2544,1.2613,1.2613,1.2307,1.2695,1.2911,1.2552,1.212,1.1677,1.1498,1.0737,1.0288,1.0161,1.0295,1.0487,1.0748,1.0634,1.0708,1.0917,1.0575,1.0635,1.1126,1.0979,1.0672,1.004,0.9965,0.9064,0.7633,0.7246,0.6398,0.5243,0.4776,0.4389,0.4079,0.3843,0.3686,0.3452,0.3452,0.3608,0.3763,0.3763,0.3763,0.3756,0.3324,0.3235,0.3149,0.2806,0.2545,0.2286,0.0,0.0,0.0,0.0,0.0,0.0,0.0,0.0,0.0,0.0,0.0,0.0,0.0,0.0,0.3218,0.4073,0.0,0.4522,0.4964,0.5038,0.5088,0.5312,0.5241,0.5075,0.4739,0.44,0.4164,0.4164,0.3878,0.3705,0.3705,0.3401,0.3008,0.2378,0.1204,0.0,-0.114,-0.2312,-0.3297,-0.4082,-0.4522,-0.4803,-0.5075,-0.5527,-0.5873,-0.5951,-0.6483,-0.6791,-0.6872,-0.7099,-0.7253,-0.7411,-0.7646,-0.788,-0.7953,-0.8178,-0.8403,-0.8551,-0.8403,-0.8551,-0.8703,0.0,0.0,0.0,0.0,0.0,0.0,0.0,1.2806,1.2881,1.2522,1.299,1.3216,1.292,1.249,1.2182,1.1934,1.131,1.08,1.0611,1.08,1.1192,1.1956,1.1366,1.158,1.2565,1.1768,1.1761,1.2526,1.2378,1.1848,1.1013,1.0864,0.9739,0.8008,0.7621,0.6626,0.5321,0.4932,0.4545,0.4235,0.3997,0.3919,0.3919,0.3843,0.3841,0.3763,0.3763,0.3763,0.3763,0.3763,0.3763,0.3841,0.4001,0.3712,0.3327,0.4196,0.306,0.0,0.0,0.0,0.0,0.0,0.0,0.0,0.0,0.0,0.2059,0.2806,0.3032,0.3348,0.4173,0.4412,0.4636,0.5089,0.5165,0.528,0.5469,0.5431,0.5372,0.5256,0.4783,0.4504,0.4436,0.4176,0.4017,0.4017,0.3882,0.3419,0.2401,0.1461,0.0293,-0.1246,-0.2136,-0.2986,-0.3884,-0.4185,-0.4533,-0.4859,-0.5398,-0.5631,-0.5637,-0.6254,-0.6563,-0.6641,-0.6788,-0.7022,-0.7261,-0.7569,-0.7723,-0.7799,-0.7953,-0.8178,-0.8327,-0.8403,-0.8551,-0.878,0.0,0.0,0.0,0.0,0.0,0.0,0.0,0.0,1.2808,1.2177,1.2458,1.2621,1.2428,1.2243,1.1934,1.1428,1.1185,1.1059,1.1059,1.1185,1.1446,1.1833,1.1973,1.2074,1.2141,1.2335,1.2418,1.2305,1.2305,1.215,1.1855,1.1626,1.0576,0.8846,0.8456,0.7238,0.5559,0.5162,0.4851,0.4623,0.4384,0.4307,0.4307,0.4155,0.3921,0.3763,0.3763,0.3763,0.3763,0.3763,0.3763,0.3841,0.4001,0.4146,0.4253,0.4367,0.3427,0.2666,0.4125,0.2899,0.1344,0.1886,0.1823,0.1697,0.0,0.0,0.2501,0.2945,0.3115,0.335,0.421,0.4368,0.4678,0.5458,0.5535,0.5687,0.6133,0.6016,0.5922,0.5905,0.5485,0.5114,0.4905,0.4698,0.456,0.4342,0.414,0.3932,0.3647,0.2156,0.0903,0.0,-0.1615,-0.2649,-0.2969,-0.3593,-0.4064,-0.4462,-0.4698,-0.509,-0.5637,-0.6103,-0.6412,-0.6641,-0.6788,-0.7022,-0.7184,-0.7261,-0.7334,-0.7561,-0.7723,-0.7953,-0.8178,-0.8327,-0.8551,-0.8703,0.0,0.0,0.0,0.0,0.0,0.0,0.0,0.0,0.0,1.2939,1.2995,1.3094,1.3025,1.2674,1.2243,1.1615,1.156,1.1498,1.1373,1.1435,1.1636,1.1891,1.221,1.2391,1.2424,1.2666,1.2673,1.2452,1.2378,1.2224,1.2003,1.1781,1.0956,0.9685,0.8765,0.7621,0.6325,0.5392,0.4851,0.4698,0.4462,0.4384,0.4384,0.4309,0.4231,0.4066,0.3552,0.3379,0.0,0.3379,0.3379,0.3465,0.4057,0.4112,0.4038,0.4198,0.3713,0.3272,0.4056,0.3528,0.282,0.0,0.2587,0.2219,0.2496,0.2178,0.2016,0.2899,0.2904,0.3059,0.4226,0.4462,0.4776,0.0,0.5712,0.5867,0.6261,0.6207,0.6239,0.6311,0.618,0.5848,0.5321,0.5082,0.4902,0.4825,0.4595,0.4105,0.3345,0.2458,0.1236,-0.0619,-0.1562,-0.2277,-0.2826,-0.3217,-0.3763,-0.4384,-0.4621,-0.5012,-0.5637,-0.5944,-0.6177,-0.6412,-0.6641,-0.6868,-0.7022,-0.718,-0.7334,-0.7484,-0.7565,-0.7718,-0.7953,-0.825,-0.8551,-0.8703,0.0,0.0,0.0,0.0,0.0,0.0,0.0,0.0,0.0,0.0,1.3329,1.3338,1.3338,1.2981,1.249,1.1934,1.1809,1.1685,1.1622,1.1622,1.1706,1.1826,1.2064,1.2269,1.2445,1.2458,1.2425,1.2353,1.2136,1.2032,1.1885,1.1665,1.1119,1.0143,0.8993,0.7927,0.6861,0.5625,0.501,0.4779,0.4621,0.4543,0.4543,0.454,0.4443,0.433,0.3577,0.3253,0.3174,0.3078,0.3071,0.3154,0.3895,0.3871,0.3649,0.3921,0.3889,0.3759,0.3829,0.3983,0.0,0.3914,0.335,0.2978,0.3366,0.2743,0.2431,0.3528,0.337,0.337,0.446,0.4698,0.4935,0.5482,0.5786,0.6018,0.6261,0.6338,0.6338,0.6563,0.6563,0.6398,0.5879,0.5579,0.5333,0.5179,0.4961,0.4465,0.3526,0.2743,0.1254,-0.1021,-0.1493,-0.1964,-0.2512,-0.2747,-0.3215,-0.4073,-0.4309,-0.4779,-0.5401,-0.5709,-0.6022,-0.6338,-0.649,-0.6641,-0.6865,-0.7022,-0.7253,-0.7407,-0.7484,-0.7642,-0.7804,-0.8102,-0.8403,-0.8627,0.0,0.0,0.0,0.0,0.0,0.0,0.0,0.0,0.0,0.0,0.0,0.0,0.0,1.2613,1.2428,1.212,1.1809,1.1622,1.1622,1.1622,1.158,1.15,1.1521,1.1609,1.171,1.1518,1.1525,1.1731,1.1525,1.1457,1.1598,1.1384,1.0937,1.0143,0.9155,0.8012,0.6861,0.5944,0.5326,0.5018,0.5018,0.5018,0.4937,0.4779,0.4632,0.4458,0.3854,0.3551,0.3387,0.3088,0.2843,0.2771,0.3212,0.3358,0.3413,0.3679,0.4,0.4206,0.4209,0.0,0.4525,0.4227,0.3997,0.3832,0.4304,0.4307,0.4462,0.5085,0.4774,0.454,0.5165,0.4932,0.4935,0.5482,0.5786,0.6018,0.6261,0.6338,0.6338,0.6563,0.6563,0.656,0.0,0.6402,0.6018,0.5315,0.5318,0.5171,0.4951,0.3052,0.1174,-0.055,-0.1257,-0.1729,-0.1887,-0.2119,-0.2511,-0.3141,-0.3608,-0.4153,-0.4776,-0.5553,-0.6022,-0.6338,-0.6338,-0.6412,-0.6637,-0.6788,-0.7022,-0.7257,-0.7407,-0.7642,-0.7804,-0.7804,-0.8102,-0.8403,0.0,0.0,0.0,0.0,0.0,0.0,0.0,0.0,0.0,0.0,0.0,0.0,0.0,0.0,0.0,0.0,1.2127,1.1872,1.1747,1.1622,1.1541,1.1397,1.1603,1.1629,1.1402,1.1533,1.156,1.1498,1.1423,1.1339,1.1299,1.1281,1.1128,1.0712,0.9756,0.8993,0.8385,0.6853,0.6012,0.5783,0.5249,0.5018,0.5018,0.4937,0.4706,0.429,0.0,0.3352,0.2943,0.2636,0.2487,0.2565,0.3405,0.3383,0.326,0.3648,0.3985,0.4294,0.474,0.0,0.5298,0.4846,0.4663,0.4535,0.446,0.4224,0.4224,0.5085,0.5013,0.5028,0.5937,0.5865,0.5872,0.6324,0.6266,0.618,0.6261,0.6338,0.6338,0.6563,0.6563,0.0,0.0,0.0,0.0,0.5556,0.5398,0.5171,0.4792,0.266,0.1096,0.0079,-0.11,-0.1729,-0.1887,-0.2119,-0.2511,-0.3141,-0.3999,-0.4543,-0.4929,-0.5628,-0.6022,-0.6338,-0.6338,-0.6412,-0.6641,-0.6637,-0.6872,-0.7184,-0.7257,-0.7411,-0.7642,-0.7723,-0.7876,-0.803,0.0,0.0,0.0,0.0,0.0,0.0,0.0,0.0,0.0,0.0,0.0,0.0,0.0,0.0,0.0,0.0,0.0,1.1934,1.1809,1.1685,1.1498,1.1303,1.144,1.1417,1.1152,1.1286,1.1249,1.1182,1.1116,1.1035,1.0931,1.0981,1.0962,1.0941,1.0002,0.9295,0.8765,0.731,0.6318,0.5702,0.512,0.4953,0.4947,0.4904,0.4659,0.0,0.3896,0.3455,0.3103,0.2623,0.2433,0.26,0.3497,0.3712,0.3684,0.3855,0.4315,0.4845,0.5232,0.5617,0.5904,0.5529,0.5473,0.5398,0.5165,0.4849,0.4924,0.5702,0.5588,0.5635,0.6607,0.6392,0.6318,0.713,0.6984,0.6714,0.6718,0.6795,0.6795,0.6714,0.6714,0.6714,0.0,0.0,0.0,0.5712,0.5556,0.5249,0.4787,0.2974,0.1487,0.0549,-0.0549,-0.1335,-0.1887,-0.2042,-0.2433,-0.3141,-0.3999,-0.4543,-0.4929,-0.5553,-0.5944,-0.618,-0.6261,-0.6338,-0.6486,-0.6563,-0.6718,-0.7026,-0.7103,-0.7176,-0.733,-0.7492,-0.7573,-0.7646,0.0,0.0,0.0,0.0,0.0,0.0,0.0,0.0,0.0,0.0,0.0,0.0,0.0,0.0,0.0,0.0,0.0,0.0,1.1802,1.1685,1.1498,1.1303,1.1185,1.1122,1.1059,1.0751,1.0688,1.0807,1.0681,1.0637,1.0705,1.0454,1.061,1.0898,0.9885,0.8985,0.8053,0.7218,0.615,0.5065,0.4871,0.4825,0.4811,0.4697,0.4577,0.4399,0.4055,0.3849,0.3692,0.296,0.2742,0.2804,0.3502,0.4204,0.4701,0.4375,0.5006,0.5728,0.5591,0.5921,0.6338,0.6338,0.6338,0.6338,0.6338,0.6338,0.6412,0.6788,0.6572,0.653,0.0,0.0,0.6385,0.779,0.7651,0.7391,0.7407,0.7633,0.7476,0.0,0.0,0.0,0.0,0.0,0.0,0.5938,0.0,0.5404,0.5015,0.3837,0.2427,0.0862,0.0313,-0.0627,-0.1887,-0.1887,-0.2278,-0.2982,-0.3528,-0.4075,-0.4621,-0.5323,-0.5712,-0.5941,-0.618,-0.6261,-0.6261,-0.6486,-0.6563,-0.6641,-0.6788,-0.6861,-0.6942,-0.7103,-0.718,-0.7257,0.0,0.0,0.0,0.0,0.0,0.0,0.0,0.0,0.0,0.0,0.0,0.0,0.0,0.0,0.0,0.0,0.0,0.0,1.1685,1.1622,1.1498,1.1303,1.1247,1.1115,1.087,1.0807,1.0744,1.0618,1.0624,1.0531,1.0418,1.0305,1.0135,0.9991,0.9416,0.8893,0.8303,0.707,0.627,0.5762,0.5,0.47,0.4697,0.4737,0.4435,0.4055,0.3916,0.3644,0.337,0.3235,0.3525,0.403,0.4319,0.477,0.5168,0.5377,0.5593,0.5826,0.6017,0.623,0.6338,0.6338,0.6338,0.6338,0.6338,0.6338,0.6412,0.6788,0.7005,0.7415,0.0,0.0,0.0,0.8057,0.7124,0.0,0.6567,0.6644,0.0,0.6637,0.0,0.6714,0.6714,0.6714,0.0,0.0,0.5712,0.5401,0.5007,0.3908,0.2737,0.1411,0.0627,-0.047,-0.1887,-0.1727,-0.1491,-0.1256,-0.2507,-0.321,-0.3522,-0.4774,-0.5553,-0.5941,-0.5941,-0.6018,-0.6022,-0.6257,-0.6412,-0.6412,-0.6563,-0.6788,-0.6942,-0.6942,-0.7099,-0.7261,0.0,0.0,0.0,0.0,0.0,0.0,0.0,0.0,0.0,0.0,0.0,0.0,0.0,0.0,0.0,0.0,0.0,0.0,0.0,1.1622,1.156,1.1428,1.1365,1.1178,1.0933,1.087,1.0744,1.0624,1.0624,1.0498,1.0308,1.0147,0.9951,0.9661,0.9184,0.8543,0.7863,0.6932,0.6151,0.0,0.0,0.4646,0.4637,0.4518,0.4317,0.4056,0.4056,0.401,0.4047,0.0,0.0,0.5017,0.5094,0.5433,0.5783,0.5874,0.0,0.6073,0.6237,0.6338,0.6338,0.6338,0.6338,0.6244,0.6176,0.6235,0.6366,0.6667,0.7093,0.0,0.0,0.0,0.0,0.0,0.0,0.0,0.6637,0.6868,0.6868,0.0,0.6563,0.0,0.6563,0.6563,0.6486,0.0,0.5792,0.5479,0.5162,0.43,0.3207,0.1801,0.1096,-0.0078,-0.1887,-0.1883,-0.1725,-0.1413,-0.243,-0.3134,-0.3446,-0.454,-0.5243,-0.5628,0.0,-0.5786,-0.5789,-0.5948,-0.6025,-0.6103,-0.6254,-0.6405,-0.6637,-0.671,-0.6868,-0.6949,0.0,0.0,0.0,0.0,0.0,0.0,0.0,0.0,0.0,0.0,0.0,0.0,0.0,0.0,0.0,0.0,0.0,0.0,0.0,0.0,1.1622,1.1622,1.1435,1.1247,1.1122,1.0933,1.0744,1.0624,1.0624,1.0498,1.0238,1.0047,0.9786,0.9536,0.8992,0.8157,0.7153,0.68,0.6026,0.5027,0.4911,0.4723,0.4505,0.0,0.4367,0.43,0.43,0.4651,0.5066,0.5225,0.5549,0.5829,0.5754,0.5997,0.6234,0.6098,0.6156,0.6338,0.6338,0.6338,0.6412,0.6412,0.6412,0.6297,0.6139,0.625,0.6426,0.6633,0.0,0.7628,0.8503,0.7744,0.7364,0.8607,0.0,0.7084,0.7011,0.7318,0.7322,0.6714,0.6637,0.6641,0.6641,0.6563,0.6486,0.6261,0.5792,0.5479,0.5321,0.4774,0.3677,0.1877,0.1253,0.0078,-0.165,-0.1884,-0.2038,-0.2118,-0.2668,-0.3215,-0.3684,-0.4387,-0.4932,-0.5321,-0.5479,0.0,-0.5559,-0.5559,-0.5712,-0.5864,-0.586,-0.6099,-0.6338,-0.6486,-0.6563,-0.6641,0.0,0.0,0.0,0.0,0.0,0.0,0.0,0.0,0.0,0.0,1.4556,1.4506,0.0,0.0,0.0,0.0,0.0,0.0,0.0,0.0,0.0,1.1622,1.156,1.1435,1.1247,1.1122,1.0933,1.0744,1.0618,1.0428,1.0047,0.9926,0.9438,0.8701,0.8163,0.7527,0.691,0.6435,0.6033,0.5702,0.5536,0.5192,0.4727,0.4706,0.0,0.0,0.4495,0.4792,0.5148,0.5409,0.5615,0.5902,0.614,0.6237,0.6254,0.623,0.6391,0.6563,0.6563,0.6637,0.6788,0.6788,0.6788,0.6747,0.6514,0.6552,0.0,0.0,0.7146,0.7739,0.8769,0.848,0.0,0.82,0.0,0.0,0.0,0.0,0.6402,0.0,0.0,0.0,0.0,0.0,0.0,0.0,0.0,0.5401,0.5559,0.501,0.3759,0.1723,-0.0157,-0.0864,-0.0314,-0.055,-0.0471,-0.0235,-0.1488,-0.2426,-0.3052,-0.4309,-0.509,-0.5321,-0.5321,0.0,-0.5398,-0.5559,-0.5637,-0.5637,-0.5864,-0.6099,-0.6338,-0.6338,-0.649,-0.6641,0.0,0.0,0.0,0.0,0.0,0.0,0.0,1.497,1.4911,1.4616,1.4565,1.4506,1.4616,1.413,1.383,0.0,0.0,0.0,0.0,0.0,0.0,0.0,1.1622,1.1498,1.1303,1.1185,1.0996,1.0807,0.0,1.0434,1.0174,0.9989,0.9536,0.8894,0.8172,0.7587,0.7199,0.6544,0.6148,0.6017,0.5881,0.5554,0.5096,0.5096,0.0,0.0,0.0,0.4913,0.5243,0.5383,0.5669,0.5997,0.6234,0.6338,0.6338,0.6338,0.6338,0.6412,0.6412,0.6486,0.6641,0.6714,0.6714,0.6725,0.6555,0.0,0.0,0.0,0.7207,0.7769,0.8499,0.0,0.0,0.0,0.0,0.0,0.0,0.0,0.0,0.0,0.0,0.0,0.0,0.0,0.0,0.0,0.0,0.5404,0.5326,0.399,0.2738,0.1646,0.0078,-0.0706,-0.0471,-0.0157,-0.0235,-0.0706,-0.1645,-0.2506,-0.3368,-0.4307,-0.4857,-0.5168,-0.5168,0.0,-0.5168,-0.5249,-0.5326,-0.5479,-0.5634,-0.5867,-0.6099,-0.6261,-0.6338,-0.649,0.0,0.0,0.0,0.0,0.0,0.0,0.0,1.497,1.4862,1.4565,1.4515,1.4565,1.4666,1.4249,1.3959,0.0,0.0,0.0,0.0,0.0,0.0,0.0,0.0,0.0,0.0,0.0,0.0,0.0,1.0688,0.0,0.0,0.0,0.0,0.0,0.8565,0.8047,0.7657,0.7003,0.6609,0.0,0.0,0.6017,0.0,0.0,0.0,0.0,0.0,0.5029,0.5264,0.5365,0.5596,0.5962,0.6191,0.6263,0.6287,0.6364,0.6364,0.6374,0.6405,0.649,0.6567,0.6718,0.6718,0.6707,0.6527,0.6734,0.0,0.0,0.7199,0.779,0.8198,0.0,0.0,0.0,0.0,0.0,0.0,0.0,0.0,0.0,0.0,0.0,0.0,0.0,0.0,0.0,0.0,0.0,0.4859,0.3129,0.1956,0.1568,0.0627,-0.0157,-0.0707,0.0,-0.0235,-0.1411,-0.1803,-0.2665,-0.3841,-0.4229,-0.4621,-0.5018,-0.5042,0.0,0.0,-0.5083,-0.5167,-0.5404,-0.5565,-0.5801,-0.6035,-0.6198,-0.6356,-0.6434,0.0,0.0,0.0,0.0,0.0,0.0,0.0,1.497,1.4862,1.4565,1.4515,1.4515,1.4506,1.4446,1.4455,0.0,0.0,0.0,0.0,0.0,0.0,0.0,0.0,0.0,0.0,0.0,0.0,0.0,0.0,0.0,0.0,0.0,0.0,0.0,0.0,0.0,0.8382,0.7987,0.0,0.0,0.0,0.0,0.0,0.0,0.0,0.0,0.0,0.0,0.5196,0.0,0.0,0.5856,0.609,0.6089,0.6125,0.6503,0.0,0.0,0.6824,0.6945,0.7107,0.7103,0.7184,0.7091,0.6961,0.0,0.0,0.6892,0.7199,0.7654,0.8198,0.8716,0.8863,0.8308,0.8287,0.7865,0.0,0.0,0.0,0.0,0.0,0.0,0.0,0.0,0.0,0.0,0.0,0.0,0.4462,0.3522,0.2506,0.1332,0.0784,0.0314,-0.0079,0.0314,0.0157,-0.0707,-0.1176,-0.2194,-0.3841,-0.4229,-0.4621,-0.5023,-0.5127,0.0,0.0,-0.529,-0.5504,-0.5673,-0.5673,-0.5921,-0.6252,-0.6252,-0.6414,-0.6661,0.0,0.0,0.0,0.0,0.0,0.0,1.5147,1.5029,1.4862,1.4565,1.4515,1.4515,1.4515,1.4515,1.4515,1.4515,0.0,0.0,0.0,0.0,0.0,0.0,0.0,0.0,0.0,0.0,0.0,1.1122,0.0,0.0,0.0,0.0,0.0,0.0,0.0,0.0,0.0,0.8441,0.0,0.0,0.0,0.0,0.0,0.0,0.0,0.0,0.0,0.0,0.0,0.0,0.0,0.0,0.6495,0.681,0.0,0.0,0.699,0.6734,0.7423,0.7322,0.7022,0.718,0.7184,0.7167,0.7101,0.0,0.7276,0.7087,0.7461,0.7877,0.8098,0.8448,0.875,0.8564,0.8414,0.0,0.0,0.0,0.0,0.0,0.0,0.0,0.0,0.0,0.0,0.0,0.0,0.0,0.4384,0.36,0.2818,0.2193,0.1881,0.1411,0.0784,0.1412,0.1099,-0.0079,-0.0941,-0.1973,-0.3362,-0.4159,-0.4756,-0.523,-0.5276,0.0,0.0,-0.5349,-0.5455,-0.5538,-0.5624,-0.5791,-0.596,-0.6207,-0.6373,-0.6453,0.0,0.0,0.0,0.0,0.0,1.5536,1.5313,1.5147,1.4921,1.4616,1.4506,1.4515,1.4515,1.4515,1.4515,1.4515,1.4515,0.0,0.0,0.0,0.0,0.0,0.0,0.0,0.0,0.0,1.124,1.1122,1.087,0.0,0.0,0.0,0.0,0.0,0.0,0.0,0.0,0.0,0.0,0.0,0.0,0.0,0.0,0.0,0.0,0.0,0.0,0.0,0.0,0.0,0.0,0.0,0.6973,0.7286,0.7749,0.0,0.7706,0.74,0.8316,0.8156,0.7702,0.7557,0.752,0.7472,0.0,0.0,0.7342,0.7206,0.7596,0.7922,0.8047,0.8382,0.8641,0.8835,0.8766,0.8701,0.8726,0.0,0.0,0.0,0.0,0.0,0.0,0.0,0.0,0.0,0.0,0.0,0.4384,0.3759,0.3212,0.2741,0.2666,0.2196,0.1332,0.196,0.1653,0.0318,-0.0634,-0.1683,-0.2785,-0.3932,-0.4712,-0.5204,-0.5323,0.0,0.0,-0.5461,-0.5477,-0.5477,-0.565,-0.582,-0.5902,-0.6241,-0.6411,-0.658,0.0,0.0,0.0,0.0,0.0,0.0,1.5468,1.5254,1.5088,1.4715,1.4556,1.4515,1.4515,1.4515,1.4515,1.4515,1.4515,0.0,0.0,0.0,0.0,0.0,0.0,0.0,0.0,0.0,1.124,1.1122,1.087,1.0744,1.0624,1.0371,0.0,0.0,0.0,0.0,0.0,0.0,0.0,0.0,0.0,0.0,0.0,0.0,0.0,0.0,0.0,0.0,0.0,0.0,0.0,0.0,0.0,0.74,0.7885,0.8656,0.8785,0.8806,0.9399,0.9599,0.9367,0.8609,0.8384,0.8111,0.0,0.0,0.717,0.7179,0.7466,0.7792,0.8107,0.8506,0.8835,0.8952,0.9371,0.9399,0.8498,0.0,0.0,0.0,0.0,0.0,0.0,0.0,0.0,0.0,0.0,0.0,0.4384,0.4233,0.3608,0.2511,0.2904,0.2511,0.1332,0.1724,0.1429,0.0407,-0.0325,-0.1231,-0.2263,-0.3437,-0.4279,0.0,0.0,0.0,0.0,-0.5681,-0.573,-0.573,-0.573,-0.5991,-0.6425,-0.6425,-0.6691,-0.7136,0.0,0.0,0.0,0.0,0.0,0.0,0.0,1.5536,1.5254,1.4961,1.4725,1.4616,1.4506,1.4515,1.4515,1.4515,1.4515,0.0,0.0,0.0,0.0,0.0,0.0,0.0,0.0,1.156,1.1435,1.1247,1.1059,1.0933,1.0744,1.0561,1.0434,1.0301,0.0,0.0,0.0,0.0,0.0,0.0,0.0,0.0,0.0,0.0,0.0,0.0,0.0,0.0,0.0,0.0,0.0,0.0,0.0,0.0,0.0,0.9624,0.889,0.8058,0.9051,0.863,0.7907,0.7843,0.7798,0.7704,0.7442,0.0,0.745,0.7513,0.7727,0.7982,0.8172,0.8506,0.8891,0.9119,0.9487,0.967,0.0,0.0,0.0,0.0,0.0,0.0,0.0,0.0,0.0,0.0,0.0,0.0,0.4384,0.4233,0.3843,0.3372,0.3528,0.3319,0.2648,0.2491,0.2115,0.1581,0.0,-0.1092,-0.1802,-0.3091,-0.4155,0.0,0.0,0.0,0.0,-0.5719,-0.5733,-0.5733,-0.5733,-0.5819,-0.5997,-0.6254,-0.652,-0.6697,0.0,0.0,0.0,0.0,0.0,0.0,0.0,1.5758,1.5468,1.5196,1.4961,1.4725,1.4616,1.4506,1.4506,1.4556,1.4506,0.0,0.0,0.0,0.0,0.0,0.0,0.0,1.1622,1.1622,1.1498,1.1303,1.1247,1.1059,1.0807,1.0681,1.0561,1.0428,1.0428,1.0244,0.0,0.0,0.0,0.0,0.0,0.0,0.8952,0.0,0.0,0.0,0.0,0.0,0.0,0.0,0.0,0.0,0.0,0.0,0.0,0.0,0.8981,0.825,0.9317,0.8985,0.8212,0.8009,0.8023,0.8007,0.0,0.0,0.7559,0.769,0.7857,0.8052,0.8242,0.8571,0.8885,0.9096,0.9556,0.0,0.0,0.0,0.0,0.0,0.0,0.0,0.0,0.0,0.0,0.0,0.0,0.0,0.4384,0.427,0.4055,0.3814,0.3655,0.344,0.3003,0.2623,0.2165,0.1787,0.034,-0.0602,-0.1229,-0.2546,-0.3715,0.0,0.0,0.0,0.0,-0.5733,-0.5733,-0.5733,-0.5733,-0.5733,-0.5908,-0.6169,-0.6343,-0.6428,0.0,0.0,0.0,0.0,0.0,0.0,0.0,1.5989,1.5816,1.5468,1.5196,1.497,1.4715,1.4616,1.4556,1.4656,0.0,0.0,0.0,0.0,0.0,0.0,0.0,0.0,1.1622,1.1622,1.1498,1.1303,1.1303,1.1115,1.087,1.0807,1.0744,1.0624,1.0624,1.0498,1.0308,0.9926,0.9676,0.9548,0.9484,0.9285,0.0,0.0,0.0,0.0,0.0,0.0,0.0,0.0,0.0,0.0,0.0,0.0,0.0,0.0,0.0,0.0,0.0,1.0185,0.9771,0.8863,0.8917,0.8762,0.7541,0.0,0.0,0.7727,0.7857,0.8117,0.8447,0.8646,0.884,0.8981,0.0,0.0,0.0,0.0,0.0,0.0,0.0,0.0,0.0,0.0,0.0,0.0,0.0,0.0,0.4474,0.4261,0.4155,0.391,0.3504,0.3019,0.2696,0.2252,0.1875,0.148,0.0696,-0.0,-0.0628,-0.1881,-0.3044,0.0,0.0,0.0,0.0,-0.5733,-0.5733,-0.5733,-0.5733,-0.5819,-0.6083,-0.6083,-0.6257,-0.6432,0.0,0.0,0.0,0.0,0.0,0.0,0.0,0.0,0.0,0.0,1.5468,1.5196,1.497,1.4784,1.4606,0.0,0.0,0.0,0.0,0.0,0.0,0.0,0.0,0.0,1.1622,1.1622,1.156,1.156,1.1365,1.124,1.1178,1.0926,1.0807,1.0744,1.0624,1.0498,1.0308,0.9926,0.9804,0.974,0.9548,0.9484,0.0,0.0,0.0,0.0,0.877,0.8646,0.0,0.0,0.0,0.0,0.0,0.0,0.0,0.0,0.953,0.9303,0.9805,0.0,0.8591,0.8393,0.8296,0.8194,0.0,0.7761,0.0,0.0,0.0,0.0,0.0,0.0,0.0,0.0,0.0,0.0,0.0,0.0,0.0,0.0,0.0,0.0,0.0,0.0,0.0,0.0,0.0,0.4831,0.4748,0.4526,0.4331,0.4248,0.3727,0.342,0.3251,0.2753,0.2355,0.1959,0.089,0.0268,0.009,-0.0717,-0.197,0.0,0.0,0.0,-0.5733,-0.5733,-0.5733,-0.5733,-0.5733,-0.5733,-0.5822,-0.5997,-0.6171,-0.6169,0.0,0.0,0.0,0.0,0.0,0.0,0.0,0.0,0.0,0.0,0.0,1.5536,1.5196,1.502,0.0,0.0,0.0,0.0,0.0,0.0,0.0,0.0,0.0,1.1747,1.1685,1.1622,1.1622,1.1622,1.1498,1.1373,1.1303,1.1115,1.0926,1.08,1.0681,1.0498,1.0301,1.0117,0.9989,0.9862,0.9676,0.0,0.0,0.0,0.0,0.0,0.9022,0.8958,0.0,0.9139,0.9338,0.96,0.0,0.0,0.0,0.0,0.9983,0.9786,1.0104,0.946,0.8689,0.849,0.8495,0.8371,0.8052,0.7922,0.0,0.0,0.0,0.0,0.0,0.0,0.0,0.0,0.0,0.0,0.0,0.0,0.0,0.0,0.0,0.0,0.0,0.0,0.0,0.0,0.0,0.5028,0.4782,0.4634,0.4518,0.435,0.4008,0.3771,0.3474,0.2808,0.2396,0.2154,0.1256,0.0718,0.0359,-0.0,-0.0985,0.0,0.0,0.0,-0.4919,-0.5463,-0.5733,-0.5733,-0.5733,-0.5733,-0.5733,-0.5819,-0.5908,-0.5908,0.0,0.0,0.0,0.0,0.0,0.0,0.0,0.0,0.0,0.0,0.0,0.0,0.0,0.0,0.0,0.0,0.0,0.0,0.0,0.0,0.0,0.0,1.205,1.1864,1.1802,1.1685,1.1622,1.1622,1.1622,1.1498,1.1365,1.1303,1.1115,1.0807,1.0728,1.0538,1.0371,1.0308,1.0174,1.0047,0.9862,0.0,0.0,0.0,0.0,0.0,0.0,0.0,0.0,0.9524,0.9658,0.9862,1.0047,0.0,0.0,0.0,0.0,0.0,1.0681,1.02,0.9508,0.9145,0.9134,0.9075,0.8495,0.8242,0.0,0.0,0.0,0.0,0.0,0.0,0.0,0.0,0.0,0.0,0.0,0.0,0.0,0.0,0.0,0.0,0.0,0.0,0.0,0.0,0.0,0.5228,0.4811,0.4827,0.4711,0.4365,0.4349,0.4086,0.3665,0.2756,0.2243,0.2154,0.1615,0.1076,0.0538,0.0538,-0.0179,-0.1432,0.0,0.0,-0.4109,-0.5191,-0.5644,-0.5733,-0.5733,-0.5733,-0.5733,-0.5733,-0.5733,-0.5733,0.0,0.0,0.0,0.0,0.0,0.0,0.0,0.0,0.0,0.0,0.0,0.0,0.0,0.0,0.0,0.0,0.0,0.0,0.0,0.0,0.0,1.292,1.249,1.2112,1.1809,1.1802,1.1677,1.1622,1.1622,1.156,1.156,1.1365,1.1115,1.0814,1.088,1.0788,1.0561,1.0371,1.0308,1.0238,1.0053,0.0,0.0,0.0,0.0,0.0,0.0,0.0,0.0,0.9849,0.9919,1.0047,1.0555,0.0,0.0,0.0,0.0,0.0,1.1178,1.1177,1.0992,1.0232,1.0098,1.0085,0.9958,0.9518,0.0,0.0,0.0,0.0,0.0,0.0,0.0,0.0,0.0,0.0,0.0,0.0,0.0,0.0,0.0,0.0,0.0,0.0,0.0,0.0,0.0,0.5435,0.5352,0.5107,0.4898,0.4898,0.4469,0.4291,0.419,0.3221,0.2599,0.2154,0.1615,0.1345,0.1256,0.1256,0.0269,-0.1431,0.0,-0.2861,-0.483,-0.501,-0.5371,-0.5733,-0.5733,-0.5733,-0.5733,-0.5733,-0.5733,-0.5733,0.0,0.0,0.0,0.0,0.0,0.0,0.0,0.0,0.0,0.0,0.0,0.0,0.0,0.0,0.0,0.0,0.0,0.0,0.0,0.0,1.3094,1.2989,1.2797,1.249,1.2058,1.1864,1.1747,1.1685,1.1685,1.1685,1.1622,1.1373,1.1303,1.131,1.1015,1.0937,1.0933,1.0624,1.0434,1.0428,0.0,0.0,0.0,0.0,0.0,0.0,0.0,0.0,0.0,0.0,1.0301,1.0491,1.0744,0.0,0.0,0.0,0.0,0.0,1.1553,1.1725,1.1914,1.1752,1.1163,1.0618,1.0678,1.0086,0.9589,0.0,0.0,0.0,0.0,0.0,0.0,0.0,0.0,0.0,0.0,0.0,0.0,0.0,0.0,0.0,0.0,0.0,0.0,0.0,0.0,0.0,0.547,0.5161,0.4921,0.4835,0.4478,0.43,0.43,0.3585,0.3048,0.2601,0.1793,0.1436,0.1436,0.1436,0.0896,0.009,0.0,-0.2057,-0.3129,-0.4472,-0.5099,-0.5371,-0.5644,-0.5733,-0.5733,-0.5733,-0.5733,-0.5741,0.0,0.0,0.0,0.0,0.0,0.0,0.0,0.0,0.0,0.0,0.0,0.0,0.0,0.0,0.0,0.0,0.0,0.0,0.0,1.3761,1.3398,1.3224,1.3103,1.2858,1.2428,1.2236,1.2104,1.2104,1.2104,1.2026,1.1866,1.175,1.1806,1.1921,1.1473,1.1248,1.1303,1.0933,1.0688,1.0561,0.0,0.0,0.0,0.0,0.0,0.0,0.0,0.0,0.0,0.0,0.0,0.0,0.0,0.0,0.0,1.1365,1.156,1.1747,1.1864,1.2173,1.257,1.3059,1.2343,1.154,1.1669,1.1142,1.0542,0.0,0.0,0.0,0.0,0.0,0.0,0.0,0.0,0.0,0.0,0.0,0.0,0.0,0.0,0.0,0.0,0.0,0.0,0.0,0.0,0.0,0.5463,0.5191,0.4921,0.4748,0.4478,0.421,0.4121,0.3674,0.3227,0.2867,0.1973,0.1525,0.1436,0.1436,0.1345,0.1076,-0.0537,-0.1432,-0.179,-0.3935,-0.4919,-0.501,-0.5552,-0.5733,-0.5733,-0.5733,-0.5749,-0.5784,0.0,0.0,0.0,0.0,0.0,0.0,0.0,0.0,0.0,0.0,0.0,0.0,0.0,0.0,0.0,0.0,0.0,0.0,0.0,1.424,1.395,1.395,1.3511,1.3094,1.2744,1.3033,1.3078,1.2887,1.2887,1.2827,1.2724,1.2844,1.2689,1.2265,1.2451,1.2086,1.1303,1.124,1.0996,1.0624,1.0561,0.0,0.0,0.0,0.0,0.0,0.0,0.0,0.0,0.0,0.0,0.0,0.0,0.0,1.1365,1.1677,1.1934,1.2058,1.2243,1.2602,1.3124,1.3876,1.3656,1.3316,1.3645,1.3318,0.0,1.1988,0.0,0.0,0.0,0.0,0.0,0.0,0.0,0.0,0.0,0.0,0.0,0.0,0.0,0.0,0.0,0.0,0.0,0.0,0.0,0.0,0.5733,0.528,0.501,0.501,0.4565,0.4121,0.3676,0.3227,0.2957,0.2867,0.2422,0.1885,0.1436,0.1436,0.1076,0.0448,-0.0359,-0.1344,-0.2508,-0.3849,-0.4565,-0.501,-0.5552,-0.5733,-0.5733,-0.5733,-0.5801,-0.589,0.0,0.0,0.0,0.0,0.0,0.0,0.0,0.0,0.0,0.0,0.0,0.0,0.0,0.0,0.0,0.0,0.0,0.0,0.0,1.4189,1.401,1.401,1.3821,1.37,1.3528,1.339,1.326,1.3199,1.307,1.296,1.2921,1.2987,1.3042,1.3046,1.2742,1.236,1.1864,1.149,1.1059,1.0624,1.0624,1.0624,0.0,0.0,0.0,0.0,0.0,0.0,0.0,0.0,1.087,1.0996,1.124,1.1428,1.1622,1.174,1.212,1.2436,1.2498,1.2994,1.3677,1.418,1.4537,0.0,0.0,1.4003,1.3592,1.3117,1.2374,0.0,0.0,0.0,0.0,0.0,0.0,0.0,0.0,0.0,0.0,0.0,0.0,0.0,0.0,0.0,0.0,0.0,0.0,0.0,0.5552,0.5191,0.4921,0.4837,0.4478,0.421,0.4032,0.3585,0.3227,0.2867,0.2062,0.1615,0.1436,0.1436,0.1256,0.0987,0.0269,-0.0269,-0.0806,-0.2508,-0.3491,-0.4024,-0.5193,-0.5733,-0.5741,-0.5812,-0.5866,-0.5926,0.0,0.0,0.0,0.0,0.0,0.0,0.0,0.0,0.0,0.0,0.0,0.0,0.0,0.0,0.0,0.0,0.0,0.0,1.4616,1.4318,1.4139,1.4139,1.4139,1.4139,1.4139,1.3821,1.3761,1.3874,1.367,1.3476,1.3367,1.3367,1.3498,1.3621,1.3075,1.2605,1.2243,1.1677,1.1059,1.0624,1.0624,1.0624,0.0,0.0,0.0,0.0,0.0,0.0,0.0,0.0,1.0996,1.1185,1.1428,1.1615,1.1802,1.1934,1.2196,1.2469,1.2531,1.3074,1.3813,1.4239,0.0,0.0,1.5221,1.4887,1.453,1.3885,1.3045,0.0,0.0,0.0,0.0,0.0,0.0,0.0,0.0,0.0,0.0,0.0,0.0,0.0,0.0,0.0,0.0,0.0,0.0,0.0,0.0,0.5191,0.4921,0.4837,0.4478,0.421,0.4121,0.3585,0.3138,0.2689,0.1793,0.1436,0.1436,0.1436,0.1436,0.1345,0.0718,0.0359,0.0269,-0.1702,-0.3042,-0.3844,-0.5013,-0.5552,-0.5746,-0.586,-0.5926,-0.5991,0.0,0.0,0.0,0.0,0.0,0.0,0.0,0.0,0.0,0.0,0.0,0.0,0.0,0.0,0.0,0.0,0.0,0.0,1.4715,1.4556,1.4515,1.4515,1.4515,1.4515,1.4515,1.4515,1.4708,1.5093,1.4895,1.462,1.4202,1.4202,1.413,1.3987,1.3682,1.3025,1.2243,1.1809,1.1247,1.0624,1.0624,1.0624,1.0624,0.0,0.0,0.0,0.0,0.0,0.0,0.0,1.1185,1.1365,1.1677,1.1802,1.1864,1.2182,1.2287,1.2216,1.2345,1.2788,1.3397,0.0,0.0,0.0,1.6165,1.6272,1.5842,1.433,0.0,1.2832,0.0,0.0,0.0,0.0,0.0,0.0,0.0,0.0,0.0,0.0,0.0,0.0,0.0,0.0,0.0,0.0,0.0,0.0,0.0,0.528,0.501,0.501,0.4565,0.4121,0.3587,0.3136,0.2689,0.2243,0.1615,0.1436,0.1436,0.1436,0.1436,0.1345,0.0718,0.0448,0.0269,-0.1702,-0.3491,-0.501,-0.501,-0.528,-0.5749,-0.5863,-0.5983,-0.6105,0.0,0.0,0.0,0.0,0.0,0.0,0.0,0.0,0.0,0.0,0.0,0.0,0.0,0.0,0.0,0.0,0.0,0.0,1.5059,1.4775,1.4666,1.4666,1.4666,1.4666,1.4666,1.4893,1.4906,1.4689,1.4617,1.4547,1.443,1.443,1.4187,1.3865,1.3623,1.2903,1.1926,1.1934,1.1435,1.0624,1.0877,1.0814,1.0624,0.0,0.0,0.0,0.0,0.0,0.0,0.0,0.0,0.0,1.1677,1.1872,1.2058,1.2436,1.2631,1.2827,1.2959,1.3244,0.0,1.4471,0.0,0.0,0.0,1.6621,0.0,0.0,0.0,0.0,0.0,0.0,0.0,0.0,0.0,0.0,0.0,0.0,0.0,0.0,0.0,0.0,0.0,0.0,0.0,0.0,0.0,0.0,0.0,0.5542,0.4921,0.4837,0.4478,0.421,0.4121,0.3315,0.2868,0.2689,0.1793,0.1436,0.1436,0.1436,0.1436,0.1346,0.1166,0.1076,0.0896,-0.1341,-0.3307,-0.501,-0.5371,-0.5602,-0.5869,-0.5988,-0.6111,-0.623,0.0,0.0,0.0,0.0,0.0,0.0,0.0,0.0,0.0,0.0,1.72,1.6807,0.0,0.0,0.0,0.0,0.0,0.0,0.0,1.4893,1.4715,1.4843,1.4715,1.4715,1.4843,1.5037,1.5046,1.4684,1.4842,1.4842,1.4684,1.4556,1.4369,1.4061,1.3631,1.2964,1.2166,1.212,1.1685,1.0996,1.1059,1.0996,1.0751,0.0,0.0,0.0,0.0,0.0,0.0,0.0,0.0,0.0,1.1802,1.2058,1.2336,1.2406,1.2727,1.2981,1.2672,1.3259,0.0,1.4078,1.4266,1.4733,1.557,0.0,0.0,0.0,0.0,0.0,0.0,0.0,0.0,0.0,0.0,0.0,0.0,0.0,0.0,0.0,0.0,0.0,0.0,0.0,0.0,0.0,0.0,0.0,0.0,0.5719,0.4921,0.4837,0.4478,0.43,0.43,0.3405,0.2867,0.2867,0.1883,0.1436,0.1436,0.1436,0.1436,0.1436,0.1436,0.0986,0.0179,-0.1252,-0.3038,-0.501,-0.5282,-0.5621,-0.5918,-0.604,-0.6162,-0.6285,0.0,0.0,1.985,1.9811,0.0,0.0,0.0,0.0,0.0,0.0,1.7357,1.7011,0.0,0.0,0.0,0.0,0.0,0.0,0.0,1.501,1.4893,1.5088,1.4893,1.4893,1.5088,1.5029,1.5029,1.5029,1.54,1.534,1.497,1.4656,1.4469,1.441,1.3631,1.3078,1.2712,1.2297,1.1872,1.1498,1.1247,1.1059,1.0996,1.0751,0.0,0.0,0.0,0.0,0.0,0.0,0.0,0.0,1.2058,1.2328,1.2601,1.236,1.2752,1.308,1.2054,0.0,0.0,0.0,0.0,0.0,0.0,0.0,0.0,0.0,0.0,0.0,0.0,0.0,0.0,0.0,0.0,0.0,0.0,0.0,0.0,0.0,0.0,0.0,0.0,0.0,0.0,0.0,0.0,0.0,0.0,0.5897,0.5097,0.501,0.4565,0.43,0.43,0.3405,0.2957,0.2867,0.1973,0.1436,0.1436,0.1436,0.1436,0.1436,0.1436,0.0358,-0.1342,-0.1431,-0.2861,-0.4919,-0.501,-0.5443,-0.5931,-0.6045,-0.617,-0.6298,0.0,0.0,2.0246,1.9978,0.0,0.0,0.0,0.0,0.0,0.0,0.0,0.0,0.0,0.0,0.0,0.0,0.0,0.0,0.0,1.5999,1.5826,1.5884,1.57,1.5594,1.5556,1.5371,1.5303,1.5303,1.5174,1.5065,1.497,1.4656,1.4291,1.3941,1.3511,1.2903,1.2243,1.212,1.1747,1.1185,1.1122,1.0933,1.0688,1.0624,1.0681,0.0,0.0,0.0,0.0,0.0,0.0,0.0,1.2182,1.2609,1.2972,1.2843,1.3428,1.4082,1.3867,1.4072,0.0,0.0,0.0,0.0,0.0,0.0,0.0,0.0,0.0,0.0,0.0,0.0,0.0,0.0,0.0,0.0,0.0,0.0,0.0,0.0,0.0,0.0,0.0,0.0,0.0,0.0,0.0,0.0,0.8281,0.6861,0.5802,0.501,0.4565,0.43,0.43,0.3764,0.3227,0.0,0.2332,0.1794,0.1436,0.1436,0.1436,0.1436,0.1436,0.0627,-0.0715,-0.1609,-0.2857,-0.4198,-0.5191,-0.5769,-0.6048,-0.6075,-0.6219,-0.6404,0.0,0.0,0.0,0.0,0.0,0.0,0.0,0.0,0.0,0.0,0.0,0.0,0.0,1.7155,0.0,0.0,1.657,1.6343,1.6467,1.6228,1.6046,1.5999,1.5989,1.5941,1.5798,1.5672,1.5604,1.5546,1.5381,1.5205,1.497,1.4656,1.435,1.4121,1.37,1.3277,1.2789,1.2613,1.2305,1.1934,1.1809,1.1553,1.1185,1.0996,1.0933,1.0933,1.1059,0.0,0.0,0.0,0.0,0.0,0.0,0.0,1.3002,1.2798,1.3443,1.4168,1.3917,0.0,0.0,0.0,0.0,0.0,0.0,0.0,0.0,0.0,0.0,0.0,0.0,0.0,0.0,0.0,0.0,0.0,0.0,0.0,0.0,0.0,0.0,0.0,0.0,0.0,0.0,0.0,0.0,0.9593,0.889,0.7298,0.6065,0.5364,0.4654,0.43,0.43,0.3855,0.3406,0.2867,0.2422,0.1885,0.1436,0.1436,0.1436,0.1436,0.1436,0.0717,-0.0447,-0.143,-0.2502,-0.3664,-0.4919,-0.5476,-0.5725,-0.597,-0.62,-0.6363,0.0,0.0,0.0,0.0,0.0,0.0,0.0,0.0,0.0,0.0,0.0,0.0,0.0,1.7434,1.7211,0.0,0.0,0.0,1.6467,1.6353,1.6285,1.6161,1.6171,1.6181,1.6029,1.5972,1.5846,1.573,1.5672,1.5439,1.5088,1.4715,1.4597,1.4597,1.4121,1.3821,1.3571,1.3277,1.3042,1.2867,1.2666,1.2236,1.1802,1.149,1.131,1.1185,1.1122,1.131,1.1622,1.1809,0.0,0.0,0.0,0.0,1.2997,1.2648,1.3316,1.4132,1.3635,0.0,1.5797,0.0,0.0,0.0,0.0,0.0,0.0,0.0,0.0,0.0,0.0,0.0,0.0,0.0,0.0,0.0,0.0,0.0,0.0,0.0,0.0,0.0,0.0,0.0,0.0,0.0,0.0,0.9854,0.9231,0.7555,0.6328,0.5719,0.4832,0.43,0.43,0.3855,0.3406,0.2867,0.2332,0.1794,0.1436,0.1436,0.1436,0.1436,0.1436,0.0806,-0.0179,-0.0895,-0.1878,-0.304,-0.4202,-0.4892,-0.5274,-0.5758,-0.6067,-0.6285,0.0,0.0,0.0,0.0,0.0,0.0,0.0,0.0,0.0,0.0,1.8398,1.8116,1.7843,1.7634,1.7479,1.7412,1.7267,1.7222,1.7166,0.0,0.0,1.7099,1.6874,1.6637,1.6524,1.6228,1.6009,1.5856,1.5604,1.541,1.5352,1.5079,1.4911,1.4911,1.4538,1.43,1.407,1.3752,1.345,1.3208,1.2895,1.2466,1.1988,1.1802,1.1622,1.1498,1.1373,1.1428,1.1622,1.1941,1.2065,0.0,0.0,0.0,1.3454,1.3067,1.3697,1.4689,0.0,0.0,1.5773,0.0,0.0,0.0,0.0,0.0,0.0,0.0,0.0,0.0,0.0,0.0,0.0,0.0,0.0,0.0,0.0,0.0,0.0,0.0,0.0,0.0,0.0,0.0,0.0,0.0,1.1354,1.0559,0.9235,0.8169,0.7031,0.5719,0.4832,0.43,0.43,0.3855,0.3406,0.2867,0.1973,0.1436,0.1436,0.1436,0.1436,0.1436,0.1436,0.1345,0.1076,-0.0089,-0.0984,-0.1789,-0.295,-0.4166,-0.5182,-0.5385,-0.5875,-0.6285,0.0,0.0,0.0,0.0,0.0,0.0,0.0,0.0,0.0,0.0,0.0,1.8127,1.7909,1.7799,1.7689,1.7645,1.7479,1.7379,1.7278,1.7278,1.7267,1.7145,1.6965,1.6797,1.657,1.6524,1.642,1.6202,1.6124,1.5999,1.5768,1.5652,1.543,1.5128,1.4834,1.4656,1.4478,1.4121,1.3941,1.3761,1.3571,1.3395,1.3244,1.2623,1.2476,1.2539,1.2049,1.1872,1.1934,1.2251,1.2313,1.2243,1.2621,0.0,0.0,0.0,1.3743,0.0,1.5,1.5469,0.0,0.0,0.0,0.0,0.0,0.0,0.0,0.0,0.0,0.0,0.0,0.0,0.0,0.0,0.0,0.0,0.0,0.0,0.0,0.0,0.0,0.0,0.0,0.0,0.0,0.0,1.1348,1.0824,0.968,0.8436,0.7295,0.6163,0.4921,0.43,0.43,0.4121,0.3583,0.2867,0.1883,0.1436,0.1436,0.1436,0.1436,0.1436,0.1436,0.1436,0.1345,0.0448,-0.009,-0.0537,-0.17,-0.2789,-0.3735,-0.4137,-0.4975,-0.5807,0.0,0.0,0.0,0.0,0.0,0.0,0.0,0.0,0.0,0.0,0.0,1.8193,1.7963,0.0,0.0,0.0,1.7645,1.7479,1.7379,1.7334,1.7211,1.7078,1.7011,1.6899,1.6684,1.6751,1.6705,1.6488,1.6581,1.6513,1.6285,1.6228,1.5999,1.5468,1.5245,1.501,1.4883,1.4597,1.4419,1.4309,1.4418,1.4452,1.4372,1.3755,1.3597,1.37,1.2861,0.0,0.0,0.0,0.0,0.0,0.0,0.0,0.0,0.0,0.0,0.0,0.0,0.0,0.0,0.0,0.0,0.0,0.0,0.0,0.0,0.0,0.0,0.0,0.0,0.0,0.0,0.0,0.0,0.0,0.0,0.0,0.0,0.0,0.0,0.0,0.0,0.0,0.0,0.0,1.123,1.0916,1.0038,0.879,0.7562,0.6428,0.5188,0.4478,0.43,0.403,0.3494,0.2689,0.1793,0.1436,0.1436,0.1436,0.1436,0.1436,0.1436,0.1436,0.1345,0.0897,0.0538,0.0269,-0.0627,-0.1612,-0.2611,-0.3094,-0.4186,-0.5456,0.0,0.0,0.0,0.0,0.0,0.0,0.0,0.0,0.0,0.0,0.0,1.8583,1.8139,1.7963,1.7897,1.7909,1.7755,1.7656,1.7479,1.7379,1.7278,1.7278,1.7078,0.0,1.6955,1.6864,1.6818,1.6761,1.6818,1.6751,1.6751,1.6637,1.6467,1.6316,1.5846,1.5546,1.5352,1.5352,1.5059,1.4743,1.5448,1.525,1.4675,1.5168,0.0,0.0,0.0,0.0,0.0,0.0,0.0,0.0,0.0,0.0,1.305,0.0,0.0,0.0,0.0,0.0,0.0,0.0,0.0,0.0,0.0,0.0,0.0,0.0,0.0,0.0,0.0,0.0,0.0,0.0,0.0,0.0,0.0,0.0,0.0,0.0,0.0,0.0,0.0,0.0,0.0,0.0,1.1219,1.0916,1.0038,0.9244,0.8101,0.6428,0.5725,0.5015,0.43,0.3403,0.2689,0.2243,0.1705,0.1436,0.1436,0.1436,0.1436,0.1436,0.1436,0.1436,0.1436,0.1345,0.0987,0.0359,0.0359,-0.0806,-0.2521,-0.2722,-0.3903,-0.5456,0.0,0.0,0.0,0.0,0.0,0.0,0.0,0.0,0.0,0.0,0.0,0.0,0.0,1.8084,1.803,1.803,1.792,1.7755,1.7645,1.7601,1.7545,1.7423,1.7357,1.7234,1.7011,1.7088,1.7043,1.6909,1.7345,1.7334,1.6909,1.7231,1.7048,1.6534,1.6029,1.5798,1.573,1.5614,1.5488,1.5352,1.5657,1.5871,1.5939,0.0,0.0,0.0,0.0,0.0,0.0,0.0,0.0,0.0,0.0,1.305,1.3241,1.3536,1.4285,0.0,0.0,0.0,0.0,0.0,0.0,0.0,0.0,0.0,0.0,0.0,0.0,0.0,0.0,0.0,0.0,0.0,0.0,0.0,0.0,0.0,0.0,0.0,0.0,0.0,0.0,0.0,0.0,0.0,0.0,1.0921,1.0371,0.8965,0.7822,0.6864,0.5453,0.4567,0.43,0.3674,0.3138,0.2601,0.2153,0.1705,0.1436,0.1436,0.1436,0.1436,0.1436,0.1436,0.1436,0.1436,0.1256,0.1076,0.1076,0.009,-0.1352,-0.1502,-0.2761,-0.4498,0.0,0.0,0.0,0.0,0.0,2.1229,2.1326,2.0709,2.0105,1.9914,0.0,0.0,0.0,0.0,1.8247,1.8084,1.7963,1.7854,1.7755,1.7711,1.7656,1.759,1.759,1.7412,1.7179,1.7476,1.742,1.7078,1.7854,1.7919,1.7326,1.7662,1.7524,1.6984,1.6368,1.6077,1.5961,0.0,0.0,1.5663,0.0,0.0,1.6471,0.0,0.0,0.0,0.0,0.0,0.0,0.0,0.0,0.0,0.0,1.3447,1.3441,1.3874,1.4364,0.0,1.489,0.0,0.0,0.0,0.0,0.0,0.0,0.0,0.0,0.0,0.0,0.0,0.0,0.0,0.0,0.0,0.0,0.0,0.0,0.0,0.0,0.0,0.0,0.0,0.0,0.0,0.0,0.0,0.0,0.0,1.0514,0.8953,0.7588,0.6599,0.5097,0.43,0.43,0.3674,0.3227,0.2867,0.2242,0.1705,0.1436,0.1436,0.1436,0.1436,0.1436,0.1436,0.1436,0.1436,0.1436,0.1436,0.1436,0.0538,-0.0721,-0.0846,-0.219,-0.3924,0.0,2.1698,2.1793,2.1793,2.1712,2.1616,2.1616,2.1068,2.056,2.0422,0.0,0.0,0.0,0.0,0.0,1.8139,1.7963,1.7897,1.7897,1.781,1.7711,1.7711,1.7711,1.7645,1.7534,1.7944,1.7909,1.7334,1.8228,1.8447,1.7988,1.7893,1.7824,1.7781,1.6952,1.6457,1.6114,0.0,1.5999,1.5547,0.0,1.6775,1.6233,0.0,0.0,0.0,1.6757,1.6744,0.0,0.0,0.0,0.0,0.0,1.4127,1.3649,1.4231,1.4197,0.0,0.0,0.0,0.0,0.0,0.0,0.0,0.0,0.0,0.0,0.0,0.0,0.0,0.0,0.0,0.0,0.0,0.0,0.0,0.0,0.0,0.0,0.0,0.0,0.0,0.0,0.0,0.0,0.0,1.0498,1.0484,1.0292,0.911,0.7486,0.5455,0.4656,0.43,0.43,0.3403,0.2957,0.2867,0.1883,0.1436,0.1436,0.1436,0.1436,0.1436,0.1436,0.1436,0.1436,0.1436,0.1436,0.1436,0.1436,0.0538,-0.0721,-0.0846,-0.219,-0.3924,2.2044,2.1996,2.1996,2.2091,2.1902,2.1793,2.1841,2.1458,2.1019,0.0,0.0,0.0,1.8999,1.8721,1.856,1.8452,1.8356,1.8247,1.8247,1.8084,1.7975,1.7854,1.7854,1.7799,1.7656,1.779,1.7734,1.7601,1.8581,1.8636,1.7823,1.8478,1.8364,1.7566,1.7423,1.7267,1.6931,1.6637,0.0,1.6368,1.7236,1.7327,0.0,0.0,0.0,0.0,0.0,1.75,0.0,0.0,1.5845,1.454,0.0,0.0,1.3588,1.4022,1.4038,0.0,1.4523,0.0,0.0,0.0,0.0,0.0,1.4772,1.4731,0.0,0.0,0.0,0.0,0.0,0.0,0.0,0.0,0.0,0.0,0.0,0.0,0.0,0.0,0.0,0.0,0.0,0.0,0.0,0.0,1.0353,1.0407,1.0474,0.8778,0.6794,0.4652,0.4389,0.43,0.43,0.403,0.3583,0.2867,0.2598,0.2062,0.1436,0.1436,0.1436,0.1436,0.1436,0.1436,0.1436,0.1436,0.1436,0.1436,0.1436,0.0538,-0.0721,-0.0846,-0.1906,-0.3352,2.237,2.2324,2.2278,2.237,2.2231,2.2184,2.2231,2.1902,2.1506,0.0,0.0,0.0,1.9251,1.8827,1.8614,1.8614,1.8518,1.8464,1.8464,1.8302,1.8193,1.8127,1.8018,1.7909,1.781,1.7958,1.7969,1.7711,1.8697,1.8776,1.8014,1.8596,1.8494,1.7868,1.7734,1.7601,1.7445,0.0,0.0,0.0,1.7528,0.0,0.0,1.8056,1.84,0.0,0.0,0.0,1.7721,1.7929,1.6699,0.0,0.0,0.0,0.0,0.0,0.0,0.0,0.0,0.0,0.0,0.0,0.0,0.0,1.4983,1.5034,1.4849,0.0,0.0,0.0,0.0,0.0,0.0,0.0,0.0,0.0,0.0,0.0,0.0,0.0,0.0,0.0,0.0,0.9992,0.9981,1.0126,1.0137,0.9839,0.9171,0.7959,0.6344,0.4333,0.4279,0.43,0.43,0.4121,0.3764,0.3227,0.278,0.2332,0.1705,0.1525,0.1436,0.1436,0.1436,0.1436,0.1436,0.1436,0.1436,0.1436,0.1436,0.0538,-0.0721,-0.0846,-0.1811,-0.3067,0.0,2.2646,2.2646,2.2601,2.2615,2.2615,2.2615,2.2324,2.1996,0.0,2.1153,2.0459,1.9577,1.904,1.8774,1.8667,1.8667,1.8643,1.8584,1.8436,1.834,1.834,1.8167,1.8027,1.7963,1.834,1.8306,1.7767,1.863,1.882,1.8396,1.8441,1.8407,1.8238,1.7868,1.7677,1.7633,0.0,0.0,1.7229,1.7779,1.7796,0.0,0.0,1.839,0.0,1.8518,1.8658,1.8865,1.8946,1.7851,0.0,0.0,0.0,0.0,0.0,1.4285,0.0,0.0,0.0,0.0,0.0,0.0,0.0,1.534,1.5487,1.5292,0.0,0.0,0.0,0.0,0.0,0.0,0.0,0.0,0.0,0.0,0.0,0.0,0.0,0.0,0.0,1.0218,0.9997,0.9922,0.9922,0.9765,0.8933,0.7081,0.6812,0.5958,0.426,0.4255,0.43,0.43,0.3855,0.3676,0.3587,0.2781,0.2333,0.2154,0.1705,0.1436,0.1436,0.1436,0.1436,0.1436,0.1436,0.1436,0.1436,0.1436,0.0628,-0.0631,-0.0846,-0.1811,-0.297,2.2934,2.2859,2.2768,2.2646,2.2615,2.2615,2.2615,2.2509,2.237,2.2137,2.1444,2.0709,1.9978,1.9875,1.972,1.9251,1.9263,1.8976,1.8334,1.8052,1.7949,1.7949,1.7804,1.7896,1.8302,1.8242,1.8132,1.803,1.8634,1.8669,1.8189,1.8589,1.8293,1.7413,1.747,1.7372,1.7289,0.0,0.0,1.8418,1.8588,0.0,1.8794,1.9178,1.9336,1.9336,1.9073,1.9191,1.9278,0.0,1.793,1.7594,0.0,0.0,0.0,0.0,0.0,0.0,0.0,0.0,0.0,0.0,0.0,0.0,1.4277,1.4231,1.4033,0.0,0.0,0.0,0.0,0.0,0.0,0.0,0.0,0.0,0.0,0.0,0.0,0.0,0.0,0.0,0.9992,0.9916,0.9922,0.9922,0.915,0.8159,0.7081,0.6299,0.5357,0.4257,0.4255,0.43,0.43,0.421,0.3942,0.3587,0.3408,0.296,0.2154,0.2064,0.1794,0.1436,0.1436,0.1436,0.1436,0.1436,0.1436,0.1436,0.1436,0.0897,0.009,-0.0658,-0.143,-0.2298,2.3172,2.2994,2.2873,2.2752,2.2752,2.2752,2.2752,2.2721,2.2583,2.2324,2.1527,2.0845,2.056,2.0422,2.0271,2.0016,1.9862,1.9583,1.9015,1.8642,1.8382,1.8382,1.8236,1.8207,1.8422,1.8313,1.8193,1.8084,1.8391,1.8336,1.8084,1.8139,1.8084,1.8018,1.7599,1.7668,1.8018,0.0,1.8219,1.8783,1.887,0.0,1.9441,1.9738,1.9857,1.9857,1.9649,1.9726,1.9748,1.9112,1.8676,0.0,0.0,1.7358,1.7205,0.0,1.5749,1.5817,0.0,0.0,0.0,1.4515,0.0,0.0,0.0,1.4488,1.4363,0.0,0.0,0.0,0.0,0.0,0.0,0.0,0.0,0.0,0.0,0.0,0.0,0.0,0.0,0.0,0.9916,0.9922,0.9765,0.9311,0.8542,0.7581,0.6342,0.5668,0.4974,0.4102,0.423,0.43,0.43,0.43,0.421,0.3942,0.3676,0.3318,0.2871,0.2423,0.2064,0.1794,0.1525,0.1436,0.1436,0.1436,0.1436,0.1436,0.1436,0.0987,0.027,-0.0564,-0.1334,-0.2107,2.3363,2.3157,2.3023,2.2978,2.2947,2.2947,2.2978,2.2917,2.2781,2.2509,2.1813,2.1272,2.1188,2.1149,2.1017,2.0917,2.0858,2.0565,1.9965,0.0,1.9198,1.9052,1.8679,1.8566,1.8616,1.8573,1.8464,1.8276,1.8276,1.823,1.8084,1.7767,1.7917,1.8437,1.7806,1.7921,0.0,0.0,0.0,1.9091,0.0,1.9382,1.9632,1.9918,2.0094,2.004,2.0128,2.0172,2.0085,1.9868,0.0,1.902,1.867,1.8344,0.0,0.0,0.0,0.0,0.0,0.0,0.0,0.0,0.0,1.4598,0.0,0.0,0.0,0.0,0.0,0.0,0.0,0.0,0.0,0.0,0.0,0.0,0.0,0.0,0.0,0.0,0.0,0.0,0.0,0.9922,0.9539,0.8775,0.8008,0.7007,0.5699,0.5067,0.4532,0.4036,0.4208,0.43,0.43,0.43,0.43,0.43,0.3942,0.3676,0.3587,0.2781,0.2333,0.2154,0.1705,0.1525,0.1436,0.1436,0.1436,0.1436,0.1436,0.0987,0.027,-0.0564,-0.1334,-0.2107,2.3509,2.3466,2.3378,2.3275,2.3157,2.3127,2.3231,2.3157,2.3023,2.2859,2.2663,2.2328,2.1935,0.0,0.0,0.0,0.0,0.0,2.0625,0.0,1.9914,1.9223,1.8606,0.0,1.9476,1.9165,1.8985,1.9006,1.9006,1.8675,1.8084,1.8244,1.7804,1.6922,1.7649,0.0,0.0,0.0,1.9275,0.0,2.0257,1.9958,0.0,1.9722,1.9912,1.9968,2.0415,2.0366,1.9976,0.0,1.9522,2.0006,0.0,1.8342,0.0,0.0,0.0,0.0,0.0,0.0,0.0,0.0,1.4515,0.0,0.0,0.0,0.0,0.0,0.0,0.0,0.0,0.0,0.0,0.0,0.0,0.0,0.0,0.0,0.0,0.0,0.0,0.0,0.0,0.9922,0.9539,0.8775,0.7617,0.6538,0.5622,0.4666,0.4118,0.4036,0.4208,0.43,0.43,0.43,0.43,0.43,0.421,0.4032,0.3587,0.3497,0.296,0.2154,0.2154,0.1794,0.1436,0.1436,0.1436,0.1436,0.1436,0.0987,0.027,-0.0564,-0.1334,-0.2107,2.3561,2.3494,2.3363,2.3319,2.3231,2.3246,2.3275,2.3231,2.3142,2.2949,2.2844,2.2754,0.0,0.0,0.0,0.0,0.0,2.3381,0.0,0.0,2.0655,0.0,0.0,0.0,0.0,1.8822,1.8496,1.8324,1.802,1.7722,1.7461,1.7576,1.7606,1.7728,1.8116,0.0,1.8904,0.0,0.0,0.0,0.0,0.0,0.0,2.0403,2.0648,2.0671,2.0887,2.0828,2.0666,0.0,2.0328,0.0,0.0,0.0,0.0,0.0,0.0,0.0,0.0,0.0,0.0,0.0,0.0,0.0,1.4621,0.0,1.4249,0.0,0.0,0.0,0.0,0.0,0.0,0.0,1.2476,0.0,0.0,0.0,0.0,0.0,0.0,0.0,0.0,0.0,0.0,0.0,0.723,0.6227,0.5002,0.4342,0.4036,0.4036,0.4208,0.43,0.43,0.43,0.43,0.43,0.43,0.421,0.4032,0.3765,0.3408,0.296,0.2423,0.2064,0.1884,0.1525,0.1436,0.1345,0.0987,0.0632,0.0183,-0.1037,-0.1727,-0.2139,2.3182,2.3236,2.3199,2.3377,0.0,2.3363,2.3363,0.0,0.0,0.0,0.0,0.0,2.3083,2.3783,0.0,0.0,0.0,2.46,0.0,0.0,2.1836,0.0,0.0,0.0,0.0,0.0,1.8546,1.8324,1.7883,1.7572,1.7443,1.7494,1.7772,1.8319,0.0,1.9039,1.9692,0.0,0.0,2.0181,2.0618,2.0618,2.0449,2.0857,2.1169,2.136,2.1285,2.1221,2.1198,2.0859,2.0715,0.0,2.0542,0.0,0.0,0.0,0.0,0.0,1.5425,0.0,0.0,0.0,0.0,0.0,0.0,0.0,0.0,0.0,0.0,0.0,0.0,0.0,0.0,0.0,0.0,1.1754,0.0,0.0,0.0,0.0,0.0,0.0,0.0,0.0,0.0,0.0,0.0,0.6073,0.4384,0.4074,0.401,0.4034,0.4183,0.4275,0.43,0.43,0.43,0.43,0.43,0.43,0.43,0.3942,0.3765,0.3587,0.2871,0.2423,0.2154,0.1794,0.1525,0.1345,0.0448,0.0091,-0.0187,-0.1515,-0.2121,-0.2457,2.2125,2.2531,0.0,0.0,0.0,0.0,0.0,0.0,0.0,0.0,0.0,0.0,0.0,0.0,0.0,0.0,0.0,2.6379,2.5208,0.0,2.3605,0.0,0.0,2.0575,0.0,0.0,0.0,1.9725,1.9499,1.9105,1.8566,1.8685,1.8436,1.7855,1.8811,1.9212,1.9181,2.0511,2.0948,2.074,2.1552,2.1765,2.1592,0.0,2.1128,2.1635,2.1463,0.0,0.0,2.0126,2.0358,0.0,0.0,0.0,0.0,0.0,0.0,0.0,0.0,0.0,0.0,1.526,0.0,0.0,0.0,0.0,1.4515,0.0,0.0,0.0,0.0,0.0,1.3327,1.3038,1.2185,0.0,0.0,0.0,0.0,0.0,0.0,0.0,0.0,0.0,0.0,0.0,0.0,0.0,0.4235,0.4014,0.3944,0.4032,0.4128,0.4216,0.4297,0.43,0.43,0.43,0.43,0.43,0.43,0.43,0.4032,0.3587,0.3587,0.305,0.2243,0.2154,0.1884,0.1256,-0.009,-0.0736,-0.0952,-0.1714,-0.2411,-0.3049,2.148,0.0,0.0,0.0,0.0,0.0,0.0,2.3426,0.0,0.0,0.0,0.0,0.0,0.0,2.6113,0.0,0.0,2.6872,2.5863,2.4801,0.0,0.0,0.0,2.1171,0.0,0.0,0.0,0.0,0.0,1.8172,1.7802,1.8301,1.8374,1.8088,0.0,1.9625,0.0,0.0,0.0,0.0,0.0,2.1735,2.151,0.0,0.0,2.1698,2.1624,2.1612,0.0,2.1163,2.0957,2.0805,2.071,2.0023,1.9212,1.9408,1.8876,0.0,0.0,0.0,1.7429,1.5709,0.0,0.0,0.0,0.0,0.0,0.0,0.0,0.0,0.0,0.0,1.3696,1.3391,1.2249,1.1267,0.0,0.0,0.0,0.0,0.0,0.0,0.0,0.0,0.0,0.0,0.0,0.0,0.0,0.401,0.3942,0.4032,0.4126,0.4214,0.4297,0.43,0.43,0.43,0.43,0.43,0.43,0.43,0.421,0.4032,0.3765,0.3227,0.2601,0.2333,0.1885,0.1257,-0.0182,-0.0838,-0.1049,-0.2286,-0.2918,-0.3203,2.1054,0.0,0.0,0.0,0.0,0.0,0.0,0.0,0.0,0.0,2.4627,0.0,2.5555,0.0,2.6553,0.0,2.7015,2.7181,2.6616,2.5565,0.0,2.4695,2.3267,0.0,0.0,0.0,0.0,0.0,0.0,1.8289,1.8039,1.8479,1.8636,1.8518,0.0,1.9722,2.0344,0.0,2.1283,0.0,0.0,2.1858,0.0,0.0,2.1768,2.1637,0.0,2.1761,2.1761,2.1698,2.1371,2.1106,2.1572,2.0814,1.9838,2.033,1.998,1.923,1.8595,1.8554,0.0,1.6631,1.6296,0.0,1.517,0.0,0.0,0.0,0.0,0.0,0.0,0.0,1.3873,1.3691,1.2344,1.1142,0.0,0.9396,0.0,0.0,0.0,0.0,0.0,0.0,0.0,0.0,0.0,0.0,0.0,0.0,0.3908,0.4032,0.4093,0.4179,0.4297,0.43,0.43,0.43,0.43,0.43,0.43,0.43,0.43,0.43,0.3944,0.3585,0.3136,0.2601,0.2153,0.1528,0.0183,-0.0562,-0.105,-0.2593,-0.3144,-0.323,2.0811,2.0559,0.0,0.0,2.2033,0.0,0.0,0.0,2.4115,0.0,2.5302,2.5674,2.5704,2.6258,2.6632,2.6632,2.713,0.0,2.7401,2.6563,0.0,0.0,2.4777,2.4055,2.3754,0.0,0.0,0.0,0.0,0.0,1.9235,1.9223,1.917,1.8999,1.8987,0.0,2.0332,2.0541,2.1105,2.1925,2.2123,2.2173,2.2149,2.2185,2.1861,2.1476,2.1808,2.1925,2.1874,2.1761,2.1698,2.1698,2.1698,2.1698,2.1698,2.1463,2.1549,2.1498,2.0688,1.9619,1.8606,1.7825,1.6699,0.0,0.0,0.0,1.5698,0.0,0.0,0.0,0.0,0.0,0.0,1.3827,1.2484,1.0892,0.9268,0.0,0.0,0.0,0.0,0.0,0.0,0.0,0.0,0.0,0.0,0.0,0.0,0.0,0.3846,0.403,0.4036,0.412,0.4297,0.43,0.43,0.43,0.43,0.43,0.43,0.43,0.43,0.43,0.43,0.4032,0.3587,0.3136,0.2602,0.2072,0.0919,-0.0094,-0.115,-0.2537,-0.3181,-0.323,2.086,2.0949,2.1168,0.0,2.234,2.2919,0.0,0.0,0.0,0.0,2.6086,2.6527,2.7021,2.7215,2.737,2.737,2.7485,0.0,0.0,0.0,0.0,2.6525,2.5424,2.4737,2.4674,2.3378,0.0,2.1316,0.0,0.0,1.9368,1.9473,1.942,1.9316,0.0,0.0,2.0644,2.061,2.1164,2.2123,2.2185,2.1957,0.0,0.0,2.1861,2.1476,2.1944,2.2123,2.2135,2.2061,2.1937,2.1874,2.1999,2.1886,2.1761,2.1937,2.1937,2.1737,2.1071,2.0501,1.9737,1.8185,1.7386,1.6766,0.0,0.0,0.0,0.0,0.0,0.0,0.0,0.0,0.0,0.0,1.1971,0.0,0.0,0.0,0.0,0.8511,0.0,0.0,0.0,0.0,0.0,0.0,0.0,0.0,0.0,0.0,0.0,0.403,0.4036,0.412,0.4297,0.43,0.43,0.43,0.43,0.43,0.43,0.43,0.43,0.43,0.43,0.4032,0.3587,0.3497,0.2897,0.2117,0.1219,-0.0193,-0.1791,-0.2801,-0.3217,-0.323,2.1617,0.0,0.0,2.2045,0.0,0.0,2.36,0.0,0.0,2.6365,2.6826,0.0,2.7645,2.7625,2.7625,2.7625,2.7625,0.0,0.0,0.0,0.0,2.6899,2.6204,2.5642,2.5278,2.4191,0.0,2.1758,0.0,0.0,1.946,1.9565,1.9512,1.942,0.0,1.9738,0.0,2.0928,2.1355,2.1873,2.2101,0.0,0.0,2.2089,2.2005,2.1789,2.2089,2.2197,2.2197,2.2197,2.2123,2.2061,2.2185,2.2073,2.1949,2.2061,2.2061,2.1937,2.1526,2.106,2.0331,1.9351,1.8389,1.7482,1.6845,1.6477,1.6285,0.0,0.0,0.0,0.0,0.0,0.0,0.0,0.0,0.0,0.0,0.0,0.0,0.0,0.0,0.0,0.0,0.0,0.0,0.0,0.0,0.0,0.0,0.0,0.0,0.4383,0.4347,0.4357,0.4504,0.4459,0.448,0.448,0.4389,0.43,0.43,0.43,0.43,0.43,0.43,0.4143,0.3908,0.3727,0.3221,0.2443,0.1245,-0.0197,-0.1613,-0.2422,-0.2927,-0.323,0.0,0.0,0.0,0.0,0.0,0.0,0.0,2.4994,0.0,2.694,0.0,2.779,2.779,2.7675,2.7625,2.7625,0.0,2.7524,2.7386,2.7284,2.713,2.7003,2.6846,2.6433,2.5687,2.4723,0.0,0.0,0.0,0.0,1.9604,1.9604,1.9565,1.9473,0.0,0.0,0.0,2.1192,2.1547,2.1548,2.2005,2.2197,2.2197,2.2197,2.2197,2.2197,2.2197,2.2197,2.2197,2.2197,2.2197,2.2197,2.2197,2.2197,2.2185,2.1999,2.1987,2.2061,2.1925,2.1198,2.0462,2.0462,1.9212,1.7969,1.7901,1.7373,1.6908,1.6908,1.6351,1.5925,0.0,0.0,0.0,0.0,0.0,0.0,0.0,0.0,0.0,0.0,0.0,0.0,0.0,0.0,0.0,0.0,0.0,0.0,0.0,0.0,0.0,0.4786,0.4731,0.4753,0.4774,0.4789,0.475,0.4661,0.448,0.43,0.43,0.43,0.4306,0.4316,0.4316,0.4369,0.436,0.3992,0.3477,0.2874,0.1075,-0.0099,-0.0907,-0.1815,-0.2623,-0.323,0.0,0.0,0.0,0.0,0.0,2.5238,2.5636,2.6637,2.7403,2.7644,2.7665,2.7625,2.7625,2.7625,2.7625,2.7625,2.7625,0.0,0.0,0.0,0.0,2.6846,2.6779,2.65,2.5879,2.5204,2.4039,0.0,0.0,0.0,1.9759,1.9759,1.9759,0.0,0.0,0.0,2.0718,2.135,0.0,2.2065,2.2149,2.2197,2.2197,2.2197,2.2197,2.2197,2.2197,2.2197,2.2197,2.2197,2.2197,2.2197,2.2197,2.2197,2.2185,2.2135,2.1726,2.1388,2.18,2.0869,1.9759,1.9562,1.8767,1.7833,1.7235,1.6968,1.6908,1.6908,1.6498,1.6165,1.5907,0.0,0.0,0.0,0.0,0.0,0.0,0.0,0.0,0.0,0.0,0.0,0.0,0.0,0.0,0.0,0.0,0.0,0.0,0.0,0.0,0.0,0.4646,0.0,0.0,0.0,0.4835,0.4661,0.4661,0.448,0.43,0.43,0.434,0.4412,0.4412,0.4463,0.4549,0.4454,0.3931,0.2835,0.0896,-0.0302,-0.1008,-0.2422,-0.313,-0.323,0.0,0.0,0.0,0.0,0.0,0.0,0.0,2.7158,0.0,2.779,2.774,2.7675,2.7675,2.7625,2.7625,2.7625,2.7625,2.7524,2.7335,2.7233,2.713,2.6884,2.6846,0.0,2.5893,2.5314,2.4146,2.2417,0.0,0.0,1.9798,1.9862,0.0,1.9811,0.0,2.0175,0.0,0.0,0.0,2.1813,2.2089,2.2197,2.2197,2.2197,2.2197,2.2197,2.2197,2.2197,2.2197,2.2197,2.2197,2.2197,2.2197,2.2197,2.2197,2.2197,2.1925,2.1651,2.1451,2.073,2.002,1.9431,1.8633,1.7901,1.7569,1.7176,1.6908,1.6908,1.6551,1.6219,1.5826,1.4857,0.0,0.0,0.0,0.0,0.0,0.0,0.0,0.0,0.0,0.0,0.0,0.0,0.0,0.0,0.0,0.0,0.0,0.0,0.6271,0.0,0.0,0.0,0.5117,0.0,0.5193,0.5018,0.4839,0.4659,0.4482,0.4439,0.4393,0.4438,0.4485,0.4559,0.4647,0.4399,0.4046,0.3387,0.1808,0.0605,-0.0504,-0.1613,-0.2522,-0.323,0.0,2.5448,0.0,0.0,2.6439,0.0,2.6896,2.7387,2.776,2.774,2.774,2.774,2.774,2.7675,2.7625,2.7625,2.7625,2.7524,2.735,2.7284,2.713,2.6951,2.6846,2.65,2.5893,2.5425,2.438,0.0,0.0,0.0,0.0,0.0,0.0,0.0,0.0,0.0,0.0,0.0,2.1572,2.1608,2.2029,2.2197,2.2197,2.2197,2.2197,2.2197,2.2197,2.2197,2.2197,2.2197,2.2197,2.2197,2.2197,2.2197,2.2197,2.2197,2.2061,2.1788,2.1049,2.0526,1.9944,1.9233,1.8365,1.7774,1.7774,1.7304,1.6908,1.6908,1.6551,1.6132,1.5718,1.506,0.0,0.0,0.0,0.0,0.0,0.0,0.0,0.0,0.0,0.0,0.0,0.0,0.0,0.0,0.0,0.0,0.0,0.0,0.0,0.0,0.0,0.5616,0.5616,0.0,0.546,0.5371,0.4926,0.4759,0.4694,0.4495,0.4457,0.4498,0.4569,0.4653,0.4741,0.4309,0.4033,0.3732,0.2722,0.1412,0.0,-0.0605,-0.1714,-0.2927,0.0,0.0,0.0,0.0,0.0,0.0,2.7488,2.7873,2.8076,2.766,2.7625,2.7625,2.7625,2.7625,2.7625,2.7625,2.7625,2.7473,2.7233,2.7233,2.7078,2.6832,2.6779,2.65,2.5893,2.5839,2.5217,0.0,0.0,0.0,0.0,0.0,0.0,0.0,0.0,0.0,0.0,2.1581,2.1789,2.2125,2.2173,2.2197,2.2197,2.2197,2.2197,2.2197,2.2197,2.2197,2.2197,2.2197,2.2197,2.2197,2.2197,2.2197,2.2197,2.2197,2.1726,2.1135,2.0719,1.9672,1.8566,1.824,1.7569,1.6968,1.6968,1.6978,1.6908,1.6908,1.6551,1.6061,1.5417,1.5171,1.4871,0.0,0.0,0.0,0.0,0.0,0.0,0.0,0.0,0.0,0.0,0.9997,0.0,0.0,0.0,0.0,0.0,0.0,0.0,0.6163,0.6367,0.6516,0.6516,0.5953,0.5552,0.5371,0.5102,0.4883,0.4793,0.4524,0.4526,0.4683,0.4692,0.4745,0.4822,0.4732,0.4133,0.323,0.2317,0.131,0.0303,-0.0504,-0.131,-0.2118,0.0,0.0,0.0,0.0,0.0,0.0,0.0,2.7908,2.7795,2.761,2.7625,2.7625,2.7625,2.7625,2.7625,2.7625,2.7625,2.7575,2.7423,2.7284,2.713,2.7026,2.6884,2.6674,2.6447,2.6111,2.5476,0.0,0.0,0.0,0.0,0.0,0.0,0.0,0.0,2.1275,2.1642,2.185,2.2054,2.2197,2.2197,2.2197,2.2197,2.2197,2.2197,2.2197,2.2197,2.2197,2.2197,2.2197,2.2197,2.2185,2.2061,2.2123,2.2135,2.1949,2.1749,2.1336,2.015,1.942,1.87,1.7638,1.7107,1.6908,1.6908,1.6908,1.6908,1.6908,1.6551,1.6132,1.5647,1.5355,1.4982,0.0,0.0,0.0,0.0,0.0,0.0,0.0,0.0,0.0,0.0,0.0,0.0,0.0,0.0,0.0,0.0,0.0,0.0,0.716,0.0,0.6642,0.682,0.6081,0.5644,0.5555,0.544,0.5223,0.4993,0.483,0.4762,0.4783,0.4783,0.4804,0.4834,0.4834,0.4533,0.4033,0.3126,0.2116,0.121,0.0303,-0.0908,-0.2017,2.8907,0.0,2.8591,0.0,2.8421,2.8047,2.8275,2.821,2.7986,2.764,2.7739,2.7799,2.764,2.7575,2.7524,2.7524,2.7524,2.7473,2.7437,2.7233,2.713,2.7078,2.6884,0.0,2.6779,2.6394,2.5952,2.5536,2.4063,0.0,0.0,0.0,0.0,0.0,2.1553,2.1703,2.1825,2.2091,2.2197,2.2197,2.2197,2.2197,2.2197,2.2197,2.2197,2.2197,2.2197,2.2197,2.2197,2.2123,2.2123,2.2061,2.1925,2.1999,2.2011,2.1761,2.1761,2.1549,2.0031,1.9735,1.9442,1.7829,1.7516,1.753,1.7337,1.7186,1.7079,1.6899,1.659,1.6272,1.5893,1.5576,1.5213,1.4713,0.0,0.0,0.0,0.0,0.0,0.0,0.0,1.1409,1.1222,0.0,0.0,0.0,0.0,0.0,0.0,0.0,0.0,0.0,0.0,0.0,0.7336,0.6543,0.6014,0.5784,0.5689,0.5483,0.5361,0.5158,0.4976,0.4834,0.4834,0.4834,0.4834,0.4834,0.4734,0.4433,0.3531,0.2723,0.2015,0.111,-0.0303,-0.1613,3.0797,3.0064,2.948,2.9733,2.9377,2.8919,2.84,2.8839,2.8904,2.775,2.8055,2.8219,2.7649,2.7488,2.7401,2.7401,2.7284,2.7144,2.7003,2.7003,2.6951,0.0,0.0,2.6779,2.6779,2.6779,2.6779,2.6779,0.0,0.0,2.4042,0.0,2.1599,2.1771,2.1783,2.197,2.2185,2.2197,2.2197,2.2197,2.2197,2.2197,2.2197,2.2197,2.2197,2.2197,2.2197,2.2197,2.2185,2.1987,2.1925,2.1925,2.1925,2.1812,2.171,2.1698,2.1698,2.1498,2.0624,2.072,2.0682,1.8974,1.8936,1.9093,1.8249,1.7942,1.7528,1.6788,1.6637,1.6451,1.5865,1.5805,1.5513,1.4713,0.0,0.0,0.0,0.0,0.0,0.0,1.1558,1.0812,1.0807,0.0,0.0,0.0,0.0,0.0,0.0,0.0,0.0,0.908,0.9128,0.0,0.8179,0.741,0.6678,0.5901,0.5723,0.5657,0.5871,0.5392,0.5037,0.4834,0.4834,0.4834,0.4834,0.4834,0.4533,0.3934,0.343,0.2826,0.2321,0.1818,0.0606,-0.0806,3.0912,3.105,3.1127,3.104,3.1034,3.1035,3.0831,3.0376,2.9899,2.9428,2.9139,2.8892,2.8669,2.7802,2.7284,0.0,2.7233,2.7181,0.0,2.7041,2.7003,2.6951,2.6846,2.6779,2.6779,2.6779,2.6779,2.6779,0.0,0.0,0.0,2.228,2.1996,2.2528,2.2226,2.214,2.2297,2.2247,2.2197,2.2197,2.2197,2.2197,2.2197,2.2197,2.2197,2.2197,2.2197,2.2123,2.1999,2.1937,2.1726,2.1588,2.1588,2.1612,2.1635,2.1434,2.1411,2.1418,2.0896,2.083,2.0826,2.0089,1.9563,1.9248,1.8966,1.8313,1.7701,1.7287,1.7103,1.6833,1.6233,1.6173,1.5944,1.5103,1.4776,0.0,0.0,0.0,0.0,0.0,1.126,1.0812,0.0,1.0218,0.0,0.0,0.0,0.0,0.0,0.0,0.0,0.0,0.9528,0.0,0.932,0.7815,0.7035,0.681,0.6264,0.5963,0.5988,0.5425,0.514,0.5037,0.4834,0.4834,0.4834,0.4834,0.4734,0.4533,0.3934,0.343,0.2927,0.2322,0.1211,-0.0101,3.1708,3.1848,3.1973,3.1797,3.1748,3.1694,3.1694,3.1165,3.0643,3.0278,2.9853,2.9433,2.9086,2.8282,0.0,2.7497,2.743,2.729,2.7041,2.6989,2.6899,2.6899,2.6846,2.6779,2.6779,2.6779,0.0,2.6779,2.5593,2.4504,2.3498,2.2657,2.2454,2.28,2.2701,2.2662,2.2611,2.2766,2.2787,2.2787,2.2787,2.2787,2.2763,2.257,2.2486,2.2462,2.2195,2.1999,2.1862,2.1726,2.1588,2.1388,2.1336,2.1423,2.1498,2.1296,2.1285,2.1325,2.1295,2.1431,2.1484,2.1236,2.0689,2.0024,1.9362,1.8626,1.8065,1.7693,1.743,1.7104,1.643,1.6345,1.6144,1.5333,1.4991,1.441,1.3382,0.0,0.0,0.0,0.0,0.0,0.0,1.0143,1.0067,0.0,0.0,0.0,0.0,0.0,0.0,1.0702,1.0136,0.9853,0.9941,0.8874,0.8012,0.7346,0.6611,0.61,0.5942,0.5539,0.534,0.514,0.4937,0.4834,0.4834,0.4834,0.4834,0.4734,0.4234,0.3833,0.343,0.2927,0.1817,0.0606,3.295,3.2533,3.2213,0.0,3.1742,0.0,3.1418,3.1431,3.1213,3.0409,3.0193,2.9866,2.911,2.8924,2.8606,2.8046,0.0,0.0,0.0,2.691,2.691,2.691,2.691,2.6895,2.6852,2.6852,2.677,2.6674,2.5522,2.4694,2.4125,2.3428,2.3044,2.2813,2.3317,2.3347,2.3128,2.3556,2.3773,2.3773,2.3773,2.3773,2.3779,2.3232,2.3039,2.2967,2.2273,2.2032,2.1957,2.1596,2.1446,2.1446,2.1233,2.1221,2.1221,2.1221,2.1221,2.1284,2.1835,2.2317,2.2662,2.2386,2.203,2.1298,1.9381,1.8851,1.8514,1.7996,1.7674,1.7287,1.6633,1.6396,1.6105,1.5367,1.5221,1.4697,1.331,0.0,0.0,0.0,0.0,0.0,1.0218,0.9992,1.0143,0.0,0.0,0.0,0.0,0.0,1.0716,1.0967,1.1035,1.0678,1.0052,1.0243,0.9357,0.7506,0.6813,0.6337,0.6042,0.5737,0.5436,0.524,0.4937,0.4834,0.4834,0.4834,0.4834,0.4734,0.4234,0.4033,0.3932,0.343,0.2422,0.131,0.0,0.0,3.3495,3.3387,3.3738,3.3843,3.3253,3.2835,3.2315,3.1465,3.0936,3.0529,3.0206,3.0191,2.9856,2.9218,2.8739,2.839,2.8245,2.8231,2.8231,2.8231,2.8231,2.7998,2.752,2.7026,2.6329,2.5412,2.5133,2.4838,2.446,2.3876,2.3691,2.383,2.39,2.3831,2.3777,2.3779,2.3773,2.3773,2.3773,2.3773,2.3827,2.3628,2.358,2.3568,2.3436,2.3126,2.2857,2.2403,2.2004,2.174,2.1348,2.1221,2.1221,2.1221,2.1221,2.1417,2.226,2.2593,2.2891,2.3561,2.2584,2.1058,1.9381,1.8763,1.8416,1.8329,1.8063,1.7757,1.7295,1.6978,1.6512,1.5765,1.5105,1.4194,1.2712,1.2285,0.0,0.0,1.0218,1.0218,0.9992,1.0067,1.0218,0.0,0.0,0.0,0.0,1.1341,1.1404,1.1475,1.1372,1.1352,1.1519,1.0677,0.9417,0.7746,0.7638,0.7129,0.6337,0.5837,0.5536,0.5436,0.5035,0.4834,0.4834,0.4834,0.4834,0.4834,0.4634,0.4332,0.4033,0.3833,0.333,0.2623,3.3815,3.3945,3.4019,3.3955,3.4007,3.3885,3.3495,3.2917,3.2336,3.1792,3.1146,3.0762,3.0628,3.0568,3.0437,3.0089,2.9479,2.8985,2.8695,2.8681,2.8681,2.8681,2.8681,2.8521,2.8173,2.7851,2.7031,2.5765,2.5486,2.5109,2.4708,2.428,2.4122,2.4222,2.4335,2.4311,2.4256,2.443,2.447,2.447,2.447,2.447,2.4446,2.4206,2.4054,2.3951,2.3645,2.3349,2.3021,2.2698,2.2483,2.2226,2.195,2.1858,2.1812,2.1583,2.1514,2.1686,2.2467,2.2857,2.3003,2.3088,2.236,2.1145,1.9381,1.8763,1.8523,1.8442,1.8201,1.792,1.7535,1.7304,1.6911,1.6218,1.5738,1.4735,1.2806,1.2352,0.0,1.0218,1.0067,1.0067,1.0143,1.0318,1.0537,1.0772,1.0958,0.0,1.1792,1.1861,1.1922,1.1815,1.1787,1.1869,1.196,1.099,1.0122,0.9352,0.8474,0.7726,0.7129,0.6237,0.5737,0.5534,0.5135,0.4937,0.4834,0.4834,0.4834,0.4834,0.4834,0.4634,0.4332,0.4332,0.4033,0.343,3.4899,3.4448,3.4101,3.4034,3.3475,3.2933,3.2826,3.2266,3.1777,3.1564,3.1087,3.0702,3.0628,3.0568,3.0568,3.0568,3.0074,2.9537,2.9,2.8914,2.8914,2.8914,2.8914,2.8856,2.8755,2.8668,2.801,2.6668,2.6254,2.5699,2.5062,2.4856,2.471,2.4492,2.4798,2.4788,2.4675,2.5119,2.5312,2.5312,2.5312,2.5312,2.5264,2.4807,2.4582,2.4396,2.3739,2.337,2.3154,2.2948,2.2856,2.2777,2.2708,2.2685,2.2593,2.2168,2.2099,2.2237,2.2593,2.304,2.3066,2.205,2.168,2.1068,1.939,1.8772,1.8531,1.8362,1.8201,1.7937,1.7612,1.7509,1.7261,1.6627,1.6391,1.5561,1.3262,0.0,1.2337,1.0475,1.0177,1.0253,1.0481,1.0589,1.0874,1.1198,1.1517,1.1833,1.23,1.2355,1.2308,1.2188,1.236,1.2271,1.2075,1.1381,1.1096,1.1175,0.9205,0.812,0.7922,0.6637,0.5839,0.5634,0.5338,0.5037,0.4834,0.4834,0.4834,0.4834,0.4834,0.4834,0.4834,0.4834,0.4535,0.4033,3.4899,3.4448,3.4034,3.3869,3.3391,3.2772,3.2003,3.1792,3.1522,3.0851,3.0687,3.0642,3.0568,3.0568,3.0568,3.0568,3.048,3.0319,3.0098,2.9932,2.9886,2.9886,2.9978,2.9719,2.9056,2.8656,2.7836,2.6607,2.7161,2.7013,2.6129,2.6129,2.5858,2.5432,2.5448,2.5332,2.5192,2.5276,2.5312,2.5312,2.5312,2.5312,2.53,2.5216,2.5192,2.5109,2.4897,2.4673,2.4401,2.3723,2.3444,2.3247,2.2823,2.2685,2.2662,2.2593,2.2868,2.3133,2.2777,2.2857,2.2829,2.1973,2.0981,1.9904,1.9002,1.8451,1.8121,1.804,1.804,1.8014,1.7963,1.7689,1.7354,1.6932,1.6563,1.5554,1.348,0.0,1.2707,1.0759,1.0845,1.0925,1.0605,1.0958,1.1221,1.1307,1.17,1.2023,1.2312,1.2524,1.2753,1.2901,1.2551,1.2344,1.2301,1.2475,1.2032,1.117,0.9899,0.8913,0.7922,0.6637,0.5839,0.5634,0.5338,0.5037,0.4834,0.4834,0.4834,0.4834,0.4834,0.4834,0.4834,0.4834,0.4734,0.4634,3.4804,3.4349,3.3832,3.3355,3.2703,3.2059,3.1306,3.1131,3.097,3.0628,3.0568,3.0568,3.0447,3.0447,3.0387,3.0341,3.0205,3.0129,3.0068,3.0266,3.0341,3.0341,3.0462,3.0303,2.9894,2.9354,2.8764,2.8201,2.8201,2.7903,2.7418,2.6894,2.6489,2.6139,2.5652,2.5382,2.5312,2.5312,2.5312,2.5312,2.5312,2.5312,2.5312,2.5312,2.5182,2.5052,2.4992,2.4706,2.4455,2.4057,2.3916,2.381,2.3569,2.35,2.3442,2.3167,2.3259,2.3454,2.3488,2.3257,2.2841,2.1993,2.0904,1.9825,1.8922,1.8451,1.8193,1.804,1.804,1.804,1.804,1.7894,1.7627,1.7265,1.6846,0.0,1.3803,1.3389,1.2685,1.095,1.0875,1.0956,1.0956,1.1322,1.1565,1.1647,1.2129,1.2439,1.2524,1.2783,1.3055,1.3326,1.3012,1.28,1.2789,1.2807,1.2262,1.117,1.0096,0.9015,0.7922,0.6734,0.6037,0.5634,0.5436,0.5138,0.4834,0.4834,0.4834,0.4834,0.4834,0.4834,0.4834,0.4834,0.4834,0.4734,3.4756,3.425,3.3678,3.3055,3.2226,3.1522,3.1043,3.0747,3.0568,3.0568,3.0568,3.0507,3.0312,3.0312,3.0266,3.0111,2.996,2.9884,2.9884,3.0266,3.0462,3.0387,3.0401,3.0387,3.0387,2.9931,2.9623,2.9623,2.9093,2.8712,2.8495,2.767,2.7204,2.6879,2.5988,2.5594,2.5511,2.5382,2.5312,2.5312,2.5312,2.5312,2.5312,2.5241,2.5123,2.4861,2.479,2.4502,2.4273,2.42,2.42,2.42,2.42,2.42,2.412,2.3729,2.3615,2.3707,2.4097,2.3434,2.2456,2.1832,2.075,1.959,1.8843,1.8442,1.8282,1.804,1.804,1.804,1.804,1.804,1.7946,1.7646,0.0,1.6373,1.4345,1.3767,1.2972,1.1373,1.1046,1.1046,1.1461,1.1709,1.1902,1.2069,1.2505,1.2735,1.2795,1.3006,1.3183,1.3409,1.3292,1.3138,1.305,1.2856,1.2262,1.117,1.0096,0.9015,0.7925,0.6933,0.6137,0.5636,0.5636,0.5336,0.4834,0.4834,0.4834,0.4834,0.4834,0.4834,0.4834,0.4834,0.4834,0.4734,3.4756,3.425,3.3781,3.3407,3.2431,3.1637,3.148,3.097,3.0568,3.0568,3.0568,3.0507,3.0312,3.0312,3.0266,3.0111,3.0111,3.0111,3.0111,3.0111,2.9988,2.9665,2.9665,2.9713,2.9884,2.9808,2.9808,2.9808,2.9898,2.9665,2.9035,2.8803,2.8338,2.7709,2.6756,2.6346,2.6277,2.5581,2.5312,2.5312,2.5312,2.5312,2.5312,2.5182,2.5123,2.5052,2.4634,2.449,2.4418,2.4273,2.42,2.42,2.42,2.42,2.4189,2.4154,2.4143,2.4154,2.4189,2.2894,2.1507,2.1441,1.9982,1.8514,1.8442,1.8201,1.804,1.804,1.804,1.804,1.804,1.804,1.8031,1.7997,0.0,0.0,1.5223,1.4885,1.4142,1.2151,1.1901,1.1901,1.1986,1.2163,1.2334,1.2334,1.2607,1.2819,1.3079,1.3115,1.3081,1.31,1.3374,1.3232,1.2861,1.2764,1.2262,1.117,1.0096,0.9015,0.7925,0.6933,0.6137,0.5636,0.5636,0.5336,0.4834,0.4834,0.4834,0.4834,0.4834,0.4834,0.4834,0.4834,0.4834,0.4834,3.4497,3.43,3.3968,3.3407,3.2917,3.2391,3.1595,3.1321,3.1029,3.0628,3.0507,3.0326,3.0219,3.0068,2.9946,2.9789,2.9803,2.9803,2.9803,2.9803,2.9803,2.9927,2.9927,2.9913,2.9974,2.9974,2.9974,2.9974,3.005,2.9913,2.9512,2.9058,2.8597,2.8195,2.6947,2.6414,2.6346,2.5581,2.5312,2.5312,2.5312,2.5312,2.5312,2.5241,2.5123,2.4921,2.4718,2.4502,2.4273,2.42,2.42,2.4246,2.4545,2.4636,2.4705,2.5038,2.513,2.5055,2.4816,2.3188,2.168,2.168,2.007,1.8612,1.8612,1.8282,1.804,1.804,1.804,1.804,1.804,1.804,1.804,1.804,0.0,1.7049,1.5289,1.4803,1.3971,1.2209,1.2043,1.2106,1.2435,1.2621,1.2774,1.3016,1.3117,1.3254,1.3363,1.3338,1.331,1.3379,1.3295,1.3152,1.2764,1.2165,1.1277,1.0194,0.911,0.8021,0.7033,0.6637,0.6137,0.5636,0.5636,0.5336,0.4834,0.4834,0.4834,0.4834,0.4834,0.4834,0.4834,0.4834,0.4834,0.4834,3.4349,3.43,3.4134,3.3578,3.3303,3.2933,3.2033,3.1766,3.1364,3.0747,3.0507,3.0326,3.0036,2.9884,2.9761,2.9602,2.9602,2.9602,2.9602,2.9602,2.9679,2.9927,2.9927,2.9927,2.9927,2.9927,2.9927,2.9927,2.9927,2.9851,2.9699,2.9261,2.8994,2.8776,2.7591,2.6934,2.6688,2.5931,2.5523,2.5312,2.5312,2.5241,2.5241,2.5182,2.5087,2.4952,2.4868,2.4754,2.4671,2.4671,2.4671,2.4728,2.5061,2.5164,2.5233,2.5601,2.5716,2.5627,2.5294,2.3764,2.2102,2.188,2.0311,1.8819,1.8819,1.8551,1.8211,1.8211,1.8117,1.804,1.804,1.804,1.804,1.804,1.7797,1.7049,1.5379,1.4803,1.4004,1.2492,1.2331,1.2429,1.2862,1.2892,1.3052,1.3314,1.3332,1.3368,1.3537,1.3602,1.3547,1.334,1.3249,1.2953,1.2764,1.1765,1.0681,0.9608,0.8517,0.7428,0.6437,0.6337,0.6037,0.5634,0.5536,0.5236,0.4834,0.4834,0.4834,0.4834,0.4834,0.4834,0.4834,0.4834,0.4834,0.4834,3.4349,3.43,3.425,3.4101,3.3594,3.3093,3.2841,3.2312,3.1652,3.0881,3.0821,3.0507,2.987,2.9808,2.9761,2.9602,2.9602,2.9602,2.9602,2.9602,2.9602,2.9602,2.9602,2.9602,2.9602,2.9602,2.9602,2.9602,2.9602,2.9602,2.9602,2.9617,2.9617,2.9554,2.8853,2.813,2.743,2.6701,2.5943,2.5324,2.5324,2.5265,2.5064,2.4873,2.4961,2.5159,2.4998,2.5268,2.5716,2.5716,2.5716,2.5716,2.5716,2.5716,2.5727,2.5727,2.5727,2.5727,2.5727,2.4421,2.2879,2.2063,2.0493,1.917,1.917,1.887,1.8588,1.8588,1.8305,1.8049,1.8049,1.8049,1.8049,1.8049,1.8049,1.7383,1.565,1.5144,1.4585,1.3267,1.2951,1.2874,1.3121,1.315,1.315,1.315,1.3059,1.3262,1.3514,1.3784,1.3636,1.3147,1.3147,1.2953,1.2764,1.1765,1.0685,0.9608,0.8517,0.7428,0.6437,0.6139,0.5839,0.5634,0.5338,0.5037,0.4834,0.4834,0.4834,0.4834,0.4834,0.4834,0.4834,0.4834,0.4834,0.4834,3.4201,3.4151,3.4151,3.4101,3.3933,3.3646,3.3145,3.2788,3.2185,3.119,3.0851,3.0447,2.987,2.9713,2.9651,2.9602,2.9602,2.9602,2.9602,2.9602,2.9602,2.9602,2.9602,2.9602,2.9602,2.9602,2.9602,2.9602,2.9044,2.8839,2.8853,2.8756,2.8692,2.8639,2.8283,2.8055,2.7784,2.7089,2.659,2.6368,2.6294,2.622,2.6146,2.5922,2.5803,2.5715,2.5715,2.5655,2.5716,2.5716,2.5716,2.5773,2.6129,2.6485,2.6772,2.6772,2.6772,2.6519,2.5404,2.4388,2.3479,2.2859,2.1154,1.9598,1.9598,1.934,1.8999,1.8999,1.8913,1.8836,1.8836,1.8836,1.8836,1.8836,1.8836,1.8219,1.6305,1.5951,1.5297,1.356,1.3309,1.3411,1.3668,1.3692,1.3677,1.3684,1.3507,1.344,1.3515,1.3397,1.3249,1.3147,1.2958,1.2861,1.2764,1.0984,0.9899,0.9608,0.7726,0.6734,0.6437,0.6139,0.5839,0.5634,0.5338,0.5037,0.4834,0.4834,0.4834,0.4834,0.4834,0.4834,0.4834,0.4834,0.4834,0.4834,3.4101,3.4101,3.4101,3.4101,3.4101,3.3882,3.3335,3.2964,3.2351,3.1233,3.0732,3.0266,2.9775,2.9665,2.9602,2.9602,2.9827,2.9968,2.9968,3.0207,3.0347,3.0347,3.0347,3.0235,2.9968,2.9968,3.0094,3.0347,2.958,2.9224,2.9172,2.8778,2.8604,2.8617,2.8472,2.8277,2.7999,2.7496,2.7136,2.6772,2.6621,2.647,2.6318,2.6241,2.6217,2.617,2.617,2.6219,2.6313,2.6313,2.6313,2.637,2.6668,2.6978,2.7231,2.7231,2.6962,2.6434,2.5484,2.4361,2.3467,2.3032,2.1475,1.9966,1.9966,1.9678,1.9401,1.9401,1.9281,1.917,1.917,1.917,1.917,1.917,1.917,1.8543,1.6587,1.6316,1.5575,1.3738,1.3481,1.3489,1.3566,1.359,1.3564,1.3624,1.3539,1.3443,1.3346,1.3147,1.305,1.2953,1.2462,1.2165,1.2165,0.9998,0.9213,0.9608,0.7428,0.6437,0.6437,0.6039,0.5737,0.5534,0.5238,0.4937,0.4834,0.4834,0.4834,0.4834,0.4834,0.4834,0.4834,0.4834,0.4834,0.4834,3.4101,3.4101,3.4101,3.405,3.405,3.3899,3.3398,3.2888,3.2201,3.119,3.0613,3.0158,2.9749,2.9687,2.9715,2.9771,3.0291,3.0614,3.0614,3.1162,3.1485,3.1485,3.1485,3.1246,3.0698,3.0642,3.0895,3.1485,3.0719,3.0282,3.0227,2.939,2.9048,2.899,2.9028,2.8635,2.7989,2.7989,2.7482,2.6688,2.6676,2.6459,2.6163,2.6086,2.6297,2.6531,2.6531,2.6829,2.7231,2.7231,2.7231,2.7231,2.7231,2.7231,2.7149,2.7056,2.6445,2.5735,2.5568,2.4286,2.2921,2.2648,2.1427,2.0292,2.0292,2.0035,1.9795,1.9795,1.9521,1.9273,1.9273,1.9273,1.9273,1.9187,1.9187,1.8469,1.65,1.6234,1.5625,1.3806,1.3561,1.3466,1.3221,1.3147,1.3147,1.3147,1.3346,1.3346,1.3055,1.305,1.2958,1.2764,1.177,1.117,1.117,0.9106,0.8517,0.941,0.7428,0.6437,0.6337,0.5837,0.5636,0.5534,0.5035,0.4834,0.4834,0.4834,0.4834,0.4834,0.4834,0.4834,0.4834,0.4834,0.4834,0.4834,3.4101,3.4101,3.405,3.3797,3.3797,3.371,3.3361,3.2656,3.2018,3.1377,3.0703,3.033,3.0326,3.0319,3.053,3.1036,3.1204,3.1274,3.1274,3.1415,3.1485,3.1485,3.1485,3.1654,3.1991,3.1527,3.1345,3.1485,3.0759,3.0048,2.9421,2.9074,2.8637,2.7995,2.8423,2.8451,2.815,2.815,2.7925,2.762,2.7357,2.7265,2.7197,2.6979,2.6967,2.7059,2.7059,2.7128,2.7231,2.7231,2.7231,2.7231,2.7231,2.7231,2.7056,2.6351,2.5997,2.5484,2.3846,2.2999,2.2306,2.1347,2.0736,2.0382,2.0564,2.0413,2.0172,2.0172,2.0103,2.0052,2.0052,2.0052,1.9766,1.9027,1.8937,1.8193,1.6158,1.5878,1.5444,1.4297,1.3933,1.3771,1.3732,1.3346,1.3147,1.3147,1.3055,1.2958,1.2861,1.2861,1.2861,1.2764,1.177,1.117,1.117,0.9106,0.812,0.8319,0.703,0.6437,0.6337,0.5837,0.5636,0.5534,0.5035,0.4834,0.4834,0.4834,0.4834,0.4834,0.4834,0.4834,0.4834,0.4834,0.4834,0.4834,3.3949,3.3899,3.3797,3.3555,3.3503,3.3509,3.3574,3.2803,3.2208,3.2169,3.1391,3.0871,3.0951,3.0993,3.112,3.1457,3.1752,3.1935,3.1935,3.2202,3.237,3.237,3.237,3.2359,3.222,3.193,3.1764,3.1764,3.0655,2.9848,2.9433,2.8923,2.8468,2.8114,2.8299,2.8339,2.8179,2.8111,2.795,2.7708,2.7522,2.7441,2.7371,2.7219,2.7231,2.7231,2.7231,2.7231,2.7231,2.7231,2.7231,2.7231,2.7231,2.688,2.6445,2.5913,2.5136,2.4104,2.2989,2.2217,2.1615,2.0826,2.0564,2.0473,2.0473,2.0382,2.0292,2.0292,2.0292,2.0292,2.0292,2.0292,2.0011,1.8972,1.8788,1.8041,1.588,1.5602,1.5134,1.3913,1.363,1.3443,1.3346,1.3152,1.2958,1.2958,1.2861,1.2764,1.2764,1.2764,1.2565,1.2063,1.0979,1.019,0.9694,0.8018,0.7229,0.7229,0.6634,0.6437,0.6337,0.5837,0.5636,0.5534,0.5035,0.4834,0.4834,0.4834,0.4834,0.4834,0.4834,0.4834,0.4834,0.4834,0.4834,0.4834,3.4114,3.4062,3.3958,3.3656,3.3549,3.3684,3.3973,3.3236,3.2706,3.2948,3.2227,3.1646,3.164,3.1738,3.1808,3.1808,3.2272,3.2553,3.2553,3.3031,3.3326,3.3326,3.3326,3.2931,3.2087,3.2001,3.1856,3.1856,3.0594,2.9845,2.9704,2.904,2.8578,2.8431,2.8259,2.8179,2.8099,2.7869,2.7708,2.7441,2.7441,2.7371,2.7231,2.7231,2.7231,2.7231,2.7231,2.7231,2.7231,2.7231,2.7231,2.7231,2.7231,2.6528,2.5735,2.5652,2.42,2.2736,2.257,2.1784,2.0907,2.0744,2.0654,2.0564,2.0382,2.0292,2.0292,2.0292,2.0292,2.0292,2.0292,2.0292,1.9911,1.8703,1.8511,1.7755,1.5507,1.5127,1.4657,1.334,1.3147,1.305,1.2861,1.2764,1.2764,1.2764,1.2764,1.2764,1.2565,1.2559,1.2068,1.0974,0.9899,0.8913,0.8021,0.6933,0.6437,0.6437,0.6437,0.6437,0.6337,0.5937,0.5636,0.5534,0.5035,0.4834,0.4834,0.4834,0.4834,0.4834,0.4834,0.4834,0.4834,0.4834,0.4834,0.4834,3.5588,3.5534,3.5354,3.4798,3.4685,3.4602,3.4438,3.3952,3.3487,3.3069,3.2454,3.2168,3.2283,3.275,3.3073,3.3073,3.3143,3.3199,3.3199,3.3269,3.3326,3.3326,3.3326,3.2931,3.2087,3.1415,3.1044,3.1044,3.082,3.0367,2.9704,2.9549,2.9094,2.8259,2.8179,2.8007,2.7592,2.7603,2.7452,2.7219,2.7219,2.7231,2.7231,2.7231,2.7231,2.7231,2.7231,2.7231,2.7231,2.7231,2.7231,2.7231,2.7231,2.6528,2.5652,2.4914,2.3877,2.2843,2.182,2.1275,2.0907,2.0744,2.0564,2.0382,2.0292,2.0292,2.0292,2.0292,2.0292,2.0292,2.0292,2.0292,1.9729,1.7855,1.7483,1.6734,1.4394,1.4118,1.3925,1.3539,1.3244,1.305,1.2861,1.2764,1.2764,1.2764,1.2764,1.2365,1.1468,1.1468,1.0881,0.9805,0.8814,0.812,0.8021,0.6933,0.6437,0.6437,0.6437,0.6437,0.6437,0.6039,0.5839,0.5534,0.5238,0.5037,0.4834,0.4834,0.4834,0.4834,0.4834,0.4834,0.4834,0.4834,0.4834,0.4834,3.5419,3.5307,3.5194,3.4736,3.4694,3.4759,3.5043,3.4394,3.3891,3.4056,3.333,3.2868,3.289,3.2933,3.3086,3.3255,3.2874,3.2731,3.2931,3.2717,3.2717,3.2945,3.2717,3.2187,3.1267,3.082,3.0152,2.9238,2.9471,2.9316,2.887,2.887,2.8566,2.803,2.7857,2.7684,2.7522,2.7371,2.7301,2.7231,2.7231,2.7231,2.7231,2.7231,2.7231,2.7231,2.7231,2.7231,2.7231,2.7231,2.7231,2.7138,2.661,2.5841,2.4904,2.378,2.2746,2.1784,2.1195,2.0835,2.0555,2.0473,2.0382,2.0292,2.0292,2.0292,2.0292,2.0292,2.0292,2.0292,2.0292,2.0292,1.9629,1.7669,1.7296,1.6452,1.4214,1.3931,1.3738,1.3346,1.3055,1.2861,1.2764,1.2764,1.2764,1.2764,1.2764,1.2365,1.1272,1.117,1.0386,0.8715,0.8219,0.7723,0.7129,0.6634,0.6437,0.6437,0.6437,0.6437,0.6437,0.6139,0.5839,0.5634,0.5338,0.5037,0.4834,0.4834,0.4834,0.4834,0.4834,0.4834,0.4834,0.4834,0.4834,0.4834]}]]